GFSSE_sfc_30mbdewp_000.txt.gz
Dewpoint
63 67 72 70 70 69 67 65 64 63 63 62 63 64 65 65 64 63 62 62 61 59 58 60 61 62 65 66 65 65 64 62 60 60 60 61 62 62 62 62 61 62 61
64 68 72 71 70 69 67 65 64 64 64 62 61 62 61 59 61 62 63 62 60 59 57 57 59 59 60 62 63 63 63 63 62 60 61 62 61 62 62 62 63 59 60
64 68 72 71 70 69 67 65 64 63 63 60 60 61 58 57 61 62 62 61 60 59 58 57 58 57 59 60 60 61 62 61 61 61 62 60 59 61 61 62 62 60 60
67 71 73 72 70 69 67 66 65 63 62 60 58 58 60 59 62 61 62 59 58 59 59 58 59 59 57 57 58 59 59 59 59 62 61 60 60 61 60 61 61 60 60
70 72 72 72 70 70 68 67 66 64 61 60 59 59 59 60 62 61 57 58 59 60 60 59 60 61 61 62 62 61 60 59 59 61 60 60 60 60 60 58 61 61 59
70 71 72 72 71 71 69 67 66 65 63 60 60 61 61 62 62 63 61 61 62 62 60 60 60 60 60 61 62 62 63 62 61 60 60 59 60 59 58 59 59 57 60
70 71 72 72 71 71 69 68 66 64 63 61 60 60 62 64 64 65 64 63 63 63 61 61 61 62 62 62 61 61 62 63 63 61 60 59 59 60 59 58 58 57 57
69 71 72 71 72 71 70 68 67 65 63 61 59 61 62 64 64 65 65 65 64 63 63 62 63 63 62 62 62 62 62 63 62 61 61 60 60 62 62 61 60 59 59
69 70 72 72 72 71 70 69 67 65 64 62 63 63 63 64 63 64 66 66 65 65 64 64 64 63 63 64 64 64 64 64 63 61 61 60 61 62 63 62 63 62 61
68 70 71 71 71 70 69 69 68 67 66 65 64 64 65 65 64 64 67 66 65 65 65 64 64 64 65 65 65 65 65 64 61 60 60 60 62 63 64 63 64 64 63
68 69 70 70 70 70 69 69 68 67 66 66 64 65 64 61 61 63 63 63 64 65 65 64 65 65 63 62 63 62 59 58 57 57 58 60 62 63 62 62 63 63 63
65 67 68 67 68 69 69 68 68 68 67 66 65 64 62 61 59 60 61 63 64 64 63 64 63 59 53 53 50 50 49 51 50 52 56 59 59 58 58 57 59 61 60
65 66 67 67 67 68 68 67 66 66 66 65 64 63 62 60 59 60 60 60 60 61 62 57 46 44 41 41 41 40 41 43 43 44 49 54 55 56 56 56 57 57 61
62 66 67 67 67 67 67 66 66 65 65 64 63 62 62 59 59 60 61 60 60 57 42 41 38 36 34 33 33 33 35 32 33 41 46 52 52 52 53 54 57 57 55
57 61 65 67 67 67 66 65 65 64 64 63 63 62 62 60 60 59 48 44 42 39 36 33 31 31 27 27 26 30 31 27 36 38 40 47 45 49 52 50 50 49 49
47 55 62 65 66 66 65 64 63 63 63 61 61 61 61 61 50 43 43 40 37 36 30 27 29 28 24 24 20 27 30 26 32 30 33 37 39 45 43 43 44 43 47
40 43 59 63 65 65 64 64 63 62 61 60 60 61 57 41 40 41 37 33 31 29 26 25 24 28 22 21 17 25 28 26 23 25 26 34 30 36 37 38 40 41 44
42 51 59 63 64 64 63 61 60 60 55 51 50 46 39 39 37 36 32 29 28 27 25 23 23 22 23 20 17 22 26 27 23 21 23 29 26 28 30 33 35 36 38
47 54 60 63 63 63 59 56 51 47 46 43 41 39 36 33 32 31 28 27 26 25 23 22 21 23 25 19 19 22 25 26 22 20 22 25 22 26 27 27 31 33 34
52 58 63 63 62 54 49 46 44 41 38 37 35 33 30 28 29 28 26 24 23 22 20 19 19 21 27 24 23 21 26 32 24 19 22 23 22 23 26 22 26 28 32
53 60 63 61 54 50 48 46 44 41 35 31 29 28 27 26 26 26 25 23 22 21 20 20 20 18 17 25 22 20 25 28 28 25 17 22 20 20 24 21 24 26 28
52 59 61 57 50 50 49 45 40 34 29 27 27 26 26 25 25 24 22 21 20 18 18 18 17 15 17 23 15 23 13 14 19 12 19 20 16 20 21 19 21 23 26
52 57 58 51 49 48 41 37 32 27 24 23 23 24 24 24 23 21 20 19 19 18 16 18 17 16 14 16 24 14 6 9 19 21 17 19 12 19 18 21 20 21 25
52 54 51 48 46 42 40 36 32 28 23 22 22 23 22 22 21 20 19 18 18 17 14 16 16 16 17 14 17 17 18 19 11 14 16 11 17 14 18 18 17 22 25
53 50 47 46 45 40 41 36 31 27 27 23 21 20 19 19 19 18 17 16 15 16 14 13 13 13 16 15 15 16 18 17 21 15 9 12 14 14 14 15 19 17 18
52 48 47 46 42 40 38 33 31 28 23 20 19 18 17 17 17 15 15 13 13 13 12 13 13 13 14 13 14 14 15 14 14 14 14 14 14 14 14 15 15 18 21

GFSSE_sfc_30mbdewp_003.txt.gz
Dewpoint
63 67 72 71 70 69 67 66 65 65 64 63 63 66 66 67 66 65 63 63 61 60 59 59 62 62 66 66 66 66 64 63 62 61 61 61 62 62 62 62 63 61 62
63 67 73 71 70 69 67 66 65 66 64 63 65 64 62 64 64 65 64 62 61 59 57 57 60 60 61 62 63 64 64 63 62 61 62 62 61 61 62 63 64 60 60
64 68 71 71 71 69 67 67 66 66 64 62 64 62 57 59 62 64 63 61 60 59 58 58 59 58 59 60 60 60 61 61 61 62 62 58 58 61 61 61 63 60 58
66 69 71 72 71 69 68 67 66 65 65 61 60 60 60 58 63 63 61 61 59 60 59 58 60 61 59 59 59 59 59 58 60 63 59 59 58 60 60 62 59 60 60
67 69 71 72 71 70 68 68 66 65 63 61 60 60 61 61 63 62 59 58 60 61 60 60 60 61 62 62 62 63 63 62 60 60 59 58 59 58 59 60 60 61 59
68 71 71 72 71 71 69 68 67 65 63 61 61 62 62 63 63 63 61 62 63 62 61 61 61 61 61 62 61 60 61 63 62 60 60 60 60 60 59 56 59 60 58
70 71 70 72 71 72 70 69 68 66 64 62 62 62 62 64 65 64 64 64 64 63 62 62 63 63 63 63 62 62 62 63 61 60 60 60 60 62 62 61 59 59 59
69 71 70 70 72 71 70 70 68 66 65 63 61 62 62 65 65 65 65 65 65 64 65 64 64 64 64 64 64 64 64 64 61 60 60 59 60 62 62 62 62 61 60
70 71 70 68 70 70 70 69 68 66 65 63 62 63 65 66 64 65 67 66 66 66 65 65 65 65 65 65 65 65 65 64 61 61 60 59 60 63 63 62 63 64 63
69 70 69 69 70 70 70 69 68 67 66 65 65 66 66 66 65 65 65 66 66 66 66 65 65 65 65 65 64 63 61 59 56 56 57 57 61 63 63 63 64 64 64
67 69 68 69 70 70 69 68 68 67 67 66 65 65 64 62 62 63 63 65 66 66 66 65 64 61 59 56 54 53 52 50 47 48 51 57 60 61 61 61 60 61 63
64 66 66 68 68 69 69 68 67 67 66 65 65 65 63 61 61 61 62 63 65 64 64 60 52 48 45 43 42 42 41 43 42 41 44 55 56 56 57 57 58 59 60
64 65 66 67 67 69 68 68 67 67 67 66 65 64 63 62 61 62 62 62 62 62 53 45 40 38 37 35 35 34 36 31 32 40 47 55 54 54 54 55 58 61 58
63 64 65 67 67 68 68 68 67 66 66 65 65 63 63 61 61 62 62 59 55 42 40 36 34 31 28 26 28 29 29 30 37 41 42 50 50 54 56 54 53 53 54
59 64 66 67 67 67 68 67 66 65 65 65 64 63 63 61 62 55 42 41 38 35 31 30 30 25 22 22 21 28 26 31 30 34 36 45 48 48 49 50 49 49 53
55 58 64 67 66 66 67 66 65 64 64 63 63 63 63 62 52 43 39 37 34 29 27 26 26 25 19 19 17 24 25 28 26 26 34 32 42 42 44 45 45 48 47
42 47 58 64 67 67 66 65 65 64 63 62 62 62 60 46 43 39 34 30 29 28 24 23 22 25 18 16 15 20 24 27 22 25 31 28 31 35 38 39 39 41 42
40 41 50 61 65 66 65 65 64 63 61 59 58 50 41 40 38 33 30 28 27 26 24 22 19 21 19 17 17 19 22 28 20 24 26 25 28 28 28 33 32 34 36
40 43 53 61 64 65 63 63 60 57 55 51 45 40 37 36 32 29 28 28 25 23 21 19 18 20 18 18 17 17 23 28 21 23 21 25 25 25 26 25 30 30 30
44 49 57 62 64 61 58 53 50 46 42 41 38 34 31 31 29 28 26 24 22 20 18 17 16 18 20 20 19 17 29 34 27 24 18 20 23 21 25 24 24 22 26
51 55 60 62 60 56 53 50 47 43 37 33 31 28 28 29 28 27 24 22 21 19 18 16 18 16 17 22 15 16 22 24 28 27 15 21 19 20 23 20 18 18 20
52 58 61 61 56 56 54 52 49 40 33 30 29 27 27 27 25 24 22 21 20 18 18 17 18 15 17 22 14 19 12 12 17 9 22 20 17 16 18 13 17 16 18
52 58 60 57 55 54 51 44 36 30 27 25 25 26 25 24 23 21 21 19 19 20 18 18 18 17 14 18 18 12 7 8 13 17 13 21 11 17 12 17 16 15 16
52 58 58 53 54 48 46 43 42 37 31 25 24 25 23 22 21 20 20 19 18 17 16 16 16 17 18 15 17 14 15 15 9 9 14 10 16 12 15 15 14 15 15
52 56 53 52 49 46 46 43 41 34 28 24 23 22 21 20 20 19 17 17 16 16 15 16 16 16 17 15 15 14 15 15 20 14 6 10 14 14 15 14 15 15 15
52 52 50 48 47 45 43 41 36 28 23 22 21 19 17 18 17 16 15 15 15 15 15 17 17 17 16 16 16 15 14 12 11 12 12 14 14 13 14 15 14 15 17

GFSSE_sfc_30mbdewp_006.txt.gz
Dewpoint
60 67 72 70 69 68 67 66 65 65 64 63 64 67 67 67 66 64 63 63 61 59 58 58 62 63 65 66 66 65 64 64 62 61 61 61 60 60 62 60 65 61 61
61 67 72 70 69 68 66 66 66 65 63 63 66 65 64 65 65 65 63 61 61 59 58 58 61 61 62 62 62 63 63 63 62 62 62 60 59 61 61 63 62 62 59
62 66 69 70 70 68 67 66 66 65 62 65 63 58 59 60 62 63 62 61 59 59 58 59 59 58 59 59 60 60 60 60 60 63 60 54 54 60 61 61 61 60 58
62 67 67 71 70 68 67 67 66 66 62 62 62 59 59 60 62 63 61 60 59 60 59 59 61 62 61 62 62 60 60 59 60 61 52 50 52 58 60 60 60 61 59
63 66 68 71 70 69 67 67 66 65 63 61 60 60 61 61 62 63 59 59 61 60 60 60 61 61 61 62 62 62 63 62 61 59 55 54 54 52 57 58 60 60 61
63 66 71 71 70 69 69 67 66 64 62 61 61 62 62 63 63 61 59 61 63 62 61 62 62 63 63 63 62 61 61 62 61 57 56 57 58 60 61 60 58 58 60
63 66 70 71 71 70 69 68 67 65 63 62 62 62 62 64 65 65 64 63 63 63 62 63 63 64 64 63 63 64 63 63 60 58 58 58 58 61 62 61 61 60 60
64 66 68 71 71 70 69 69 67 66 64 62 62 62 63 65 65 64 65 64 64 64 65 64 65 65 65 65 65 65 65 64 60 59 59 59 60 62 63 63 63 63 62
65 66 66 68 67 70 69 68 67 66 65 63 62 63 66 65 65 65 65 66 65 66 65 65 65 66 66 66 65 65 64 63 59 58 58 56 61 62 63 62 63 64 64
64 64 64 65 64 68 68 67 68 67 66 65 65 66 66 65 64 63 65 66 66 66 66 66 66 64 63 61 59 55 53 55 49 50 50 54 60 62 62 62 62 62 62
63 64 64 64 65 66 67 67 67 67 66 66 65 65 62 58 58 60 63 64 66 66 65 63 58 54 52 50 49 47 46 45 43 43 42 54 56 56 58 58 58 58 59
61 63 65 65 65 65 66 66 64 62 64 62 62 62 59 58 56 60 62 63 63 63 59 54 48 44 43 44 42 40 38 36 34 36 39 54 54 54 54 55 57 59 60
60 62 65 67 66 65 65 65 65 62 62 63 62 61 58 58 59 59 60 61 62 59 54 49 45 41 38 34 33 31 31 28 29 34 46 52 53 53 54 58 56 55 56
59 62 64 66 67 66 65 64 63 62 62 62 62 60 58 58 60 60 61 59 54 49 46 42 39 33 28 24 23 25 26 25 31 33 43 49 53 53 54 53 52 53 55
56 60 62 65 66 67 67 64 63 61 62 62 62 59 59 60 61 57 49 46 43 40 37 34 28 23 21 21 19 22 24 24 27 31 36 46 46 48 49 49 51 51 50
52 56 60 63 66 66 67 65 63 61 61 62 61 60 61 61 59 46 41 39 36 30 24 23 23 23 20 18 18 18 21 23 25 28 32 36 41 42 43 43 43 44 45
44 50 55 61 64 66 67 66 63 62 63 62 61 61 62 58 50 41 36 32 28 26 24 23 20 21 20 18 18 18 19 22 23 26 28 28 30 36 37 37 35 36 38
40 41 44 55 62 65 67 65 64 62 62 61 61 62 57 49 42 35 31 28 27 25 23 21 18 19 19 19 18 17 19 22 21 22 24 23 25 24 26 32 32 31 31
40 40 43 47 56 62 65 65 64 63 63 61 57 52 46 40 34 30 29 27 24 22 21 17 17 18 19 18 15 12 22 25 22 21 21 22 24 23 24 23 26 23 26
41 41 43 49 55 60 65 64 64 61 56 52 49 45 39 34 31 29 27 24 22 22 18 18 18 19 18 16 16 15 26 30 26 27 24 17 20 20 22 22 17 18 19
42 45 47 52 58 62 62 58 55 52 48 43 38 35 32 30 29 28 25 23 22 20 19 17 18 17 17 17 13 16 18 20 28 24 17 18 18 18 16 15 16 17 16
42 48 51 55 60 62 59 59 58 53 47 40 31 30 30 29 29 27 25 23 21 20 20 19 19 16 16 17 14 17 13 13 16 14 18 15 15 14 15 14 17 15 16
43 48 54 57 60 59 59 58 53 44 35 30 28 28 27 26 24 25 23 21 22 22 20 19 18 15 13 16 16 13 10 10 11 13 14 17 13 13 15 17 16 15 16
42 48 56 59 58 58 56 50 46 48 43 35 27 27 25 23 22 21 21 20 19 19 19 14 15 16 16 15 16 13 12 12 9 10 13 12 14 14 16 16 15 15 15
40 51 58 58 57 57 52 51 51 49 45 29 26 24 23 22 21 20 19 18 17 17 17 16 17 16 16 15 15 13 13 14 15 15 11 13 15 16 16 15 15 14 15
41 53 57 57 56 52 52 53 52 43 31 25 24 23 21 21 19 17 17 17 16 16 17 17 19 19 17 15 14 14 14 13 13 13 13 14 15 15 15 14 14 14 15

GFSSE_sfc_30mbdewp_009.txt.gz
Dewpoint
60 68 72 70 69 68 67 66 66 64 63 63 66 66 67 67 65 64 64 63 60 59 58 60 62 64 65 66 66 65 65 64 63 62 61 59 58 60 62 61 65 62 62
61 68 71 70 68 68 66 66 65 64 63 63 65 66 66 66 66 65 62 62 60 59 58 60 60 61 61 62 62 62 63 62 62 63 61 60 59 61 61 62 63 63 58
63 66 68 70 69 68 67 66 65 63 65 64 60 59 60 62 63 62 60 59 60 58 59 60 60 59 60 60 60 59 59 59 62 62 59 55 53 58 60 61 61 61 58
63 65 66 70 70 68 67 67 66 62 64 64 61 59 59 61 63 62 60 60 60 59 59 60 61 61 62 62 63 63 63 61 60 60 53 47 50 57 57 60 61 60 60
62 65 66 71 70 68 68 67 66 64 61 61 60 60 61 62 63 61 59 61 61 59 60 61 62 62 62 62 62 58 62 63 61 61 55 55 55 59 58 57 57 60 62
61 64 69 70 70 69 68 66 66 64 61 61 62 62 63 63 63 61 60 63 62 61 62 62 63 63 63 63 63 63 62 62 59 55 55 57 57 61 61 62 61 59 59
61 66 69 70 70 69 69 67 66 64 62 62 62 62 63 65 65 65 63 64 63 63 63 63 64 65 64 64 65 64 64 63 61 58 58 58 60 61 63 62 61 61 62
60 65 68 70 70 69 68 68 67 64 63 62 62 62 65 65 66 64 65 64 64 65 64 64 65 65 65 66 65 65 65 64 59 57 58 57 61 62 63 61 63 63 63
60 63 68 68 68 70 69 69 67 66 64 62 62 63 66 64 65 65 65 65 65 65 65 66 66 66 65 64 63 61 59 58 57 52 52 53 59 61 62 62 62 63 63
60 61 64 67 67 67 68 68 67 66 66 64 64 67 66 64 63 66 66 66 65 65 66 65 63 63 60 57 53 50 49 52 48 45 45 53 55 57 59 59 59 59 59
60 61 61 62 62 66 67 67 66 67 66 66 65 65 62 59 60 60 63 65 66 65 63 59 55 50 51 50 45 41 43 41 38 39 39 53 53 53 54 55 57 58 60
58 59 60 60 61 66 66 66 64 63 64 61 61 60 57 55 56 60 62 64 64 62 58 53 48 45 46 44 40 40 34 33 32 33 46 52 53 52 52 59 59 58 59
57 59 61 61 62 63 65 65 63 61 62 61 60 59 54 54 57 59 60 61 62 61 55 52 47 42 38 32 29 28 29 28 29 32 48 52 55 56 57 56 55 57 57
55 58 62 63 63 63 63 65 62 61 61 61 59 58 54 55 57 56 58 60 55 52 48 45 41 34 26 24 23 23 25 25 28 29 47 50 52 54 54 53 55 53 53
51 56 60 63 65 64 63 63 63 62 59 59 59 58 54 55 57 58 55 52 48 44 40 35 28 26 24 23 21 20 22 22 25 28 41 47 47 48 48 48 49 48 49
48 54 58 61 65 65 65 64 63 61 59 60 60 58 56 57 59 53 48 45 41 34 28 26 25 25 23 20 19 18 20 21 24 27 33 40 41 42 42 41 40 40 40
43 49 54 58 62 65 65 66 63 61 59 62 60 57 58 60 54 48 42 38 33 29 27 25 22 22 22 20 20 19 19 21 23 26 28 30 38 37 36 36 35 35 35
40 42 49 54 59 63 65 66 64 62 60 63 60 60 61 56 50 42 38 35 30 27 26 23 21 22 22 21 20 16 18 21 22 23 25 24 27 25 34 30 30 30 30
41 40 41 47 55 61 65 66 65 63 61 62 61 62 58 50 41 34 33 31 28 26 25 22 23 23 22 20 17 15 25 26 23 21 22 23 25 24 26 25 24 25 24
40 41 41 43 48 57 63 66 65 63 63 62 60 54 49 41 35 36 32 28 28 27 25 25 24 23 21 19 16 17 25 29 25 26 27 16 21 20 22 22 21 21 22
39 41 41 42 48 53 60 64 64 62 61 57 53 47 41 35 34 33 30 28 28 27 26 25 24 22 20 19 18 21 21 20 28 30 17 18 17 16 17 18 20 21 19
40 42 43 45 48 55 63 63 62 58 55 51 43 37 32 32 32 32 30 29 28 27 26 25 23 20 20 20 17 20 17 18 18 16 19 17 16 16 17 18 20 18 19
40 41 42 47 52 59 62 61 58 49 44 40 36 32 30 31 31 31 29 28 28 28 26 24 22 19 19 20 18 16 15 15 14 16 17 17 18 16 17 20 19 18 18
40 43 44 49 56 60 60 60 56 51 45 41 33 30 28 28 29 28 27 27 26 26 24 18 19 19 19 18 18 15 15 14 13 13 16 18 16 15 18 19 18 18 17
36 43 47 50 57 58 59 58 55 50 51 37 30 27 27 27 27 26 25 25 24 23 21 21 20 18 18 17 17 17 16 16 16 16 16 17 18 19 19 18 17 17 16
35 43 49 52 57 58 58 56 52 52 43 34 28 25 25 25 25 23 23 23 22 22 22 21 21 21 19 18 17 17 17 17 16 17 17 17 17 18 17 17 16 16 16

GFSSE_sfc_30mbdewp_012.txt.gz
Dewpoint
68 71 71 70 69 68 67 66 65 64 63 65 67 67 67 66 65 65 63 61 60 59 60 61 63 64 64 66 66 66 64 64 63 63 61 59 59 61 61 63 64 63 63
68 70 71 70 68 67 66 66 65 63 64 65 66 67 67 65 65 63 62 60 59 59 60 60 61 61 61 62 61 61 61 61 62 62 60 60 61 60 61 62 62 62 59
68 69 71 70 69 67 66 66 64 64 66 63 62 64 64 65 62 60 59 60 58 59 60 61 61 62 62 62 61 60 60 59 60 59 58 59 59 58 60 61 61 62 59
67 68 69 70 69 67 67 66 63 66 64 62 60 60 62 63 61 61 60 59 58 58 60 61 61 61 62 62 61 62 63 62 61 61 60 54 55 57 56 58 60 60 62
66 66 69 70 69 68 67 66 63 63 64 62 61 61 62 63 62 61 62 61 59 60 61 62 62 63 63 63 62 61 62 63 62 61 58 56 56 61 61 61 60 59 60
65 67 71 70 69 69 68 67 66 62 61 61 63 63 63 63 62 60 63 62 61 62 62 63 64 64 63 63 64 64 63 62 63 60 57 58 61 62 62 62 61 61 60
65 68 70 70 69 69 68 67 65 62 62 63 62 63 65 65 65 61 64 63 63 63 63 64 65 65 65 65 65 65 64 63 62 60 59 60 62 62 62 61 61 62 63
68 68 70 70 69 69 69 68 66 64 62 62 62 63 65 65 65 64 64 64 64 65 64 66 66 66 66 65 65 64 63 62 59 56 54 60 61 60 61 61 62 64 63
67 68 68 69 68 69 69 68 67 65 63 63 64 65 65 65 66 66 65 65 66 64 66 66 65 65 64 62 59 55 53 54 55 49 53 55 55 56 59 60 60 60 60
62 68 68 68 68 68 69 68 67 66 65 64 64 67 65 63 67 67 67 66 65 66 65 64 63 61 58 54 48 45 46 48 51 43 52 54 52 52 54 56 57 58 59
60 66 67 68 67 67 67 68 67 67 65 65 67 66 64 62 62 65 65 66 66 65 62 59 54 51 52 50 44 40 42 35 33 40 52 52 51 52 53 58 60 60 61
59 60 65 67 66 67 67 66 66 66 65 64 64 64 62 59 61 61 64 65 65 62 59 54 48 46 42 40 39 33 33 30 31 42 52 52 53 55 59 57 58 59 58
58 59 60 61 64 67 66 65 64 64 64 62 61 61 58 58 60 61 62 63 63 60 55 52 48 38 33 29 28 25 28 28 28 48 52 54 56 57 56 56 56 56 56
57 59 60 61 64 66 66 65 64 62 63 62 61 59 55 57 57 59 61 62 57 55 46 42 36 29 27 24 24 22 24 25 28 46 51 52 52 53 53 53 52 52 52
55 58 61 62 63 64 66 65 62 61 62 61 60 58 55 58 58 58 55 53 47 40 35 30 28 28 26 23 21 20 21 23 25 40 46 48 47 48 47 46 46 45 44
48 56 62 62 63 65 64 65 63 62 61 61 60 58 56 58 58 51 48 44 37 31 29 27 24 25 24 22 22 21 21 23 25 30 40 43 42 41 41 40 39 39 39
42 52 58 62 65 65 64 64 63 62 61 60 60 58 57 57 52 48 44 38 32 30 28 25 24 26 25 24 23 22 20 21 24 27 32 38 39 39 37 35 34 34 34
41 47 54 60 64 65 64 64 64 63 62 61 61 57 60 54 49 44 40 34 31 29 27 25 25 26 25 23 21 18 21 23 24 25 25 28 27 32 35 30 27 27 28
41 41 50 56 61 64 64 65 66 64 63 62 61 61 57 49 42 38 35 31 29 28 26 26 26 25 22 21 19 17 28 29 25 23 23 25 25 23 25 24 25 27 25
37 40 42 51 57 64 65 64 65 63 63 63 61 59 49 42 37 36 33 30 29 29 28 27 25 25 21 21 20 22 26 28 25 26 23 21 21 20 21 20 22 22 24
36 40 42 43 51 63 64 64 65 62 62 61 56 51 44 40 38 33 31 31 31 28 27 26 26 22 21 21 21 22 24 27 30 31 18 19 19 18 19 19 21 21 22
39 38 42 43 45 52 63 64 65 63 60 54 51 45 41 37 35 33 32 31 29 28 27 25 22 23 22 21 17 22 18 22 20 18 20 18 17 18 18 20 20 19 20
39 40 43 43 47 49 64 64 58 52 49 45 39 35 34 34 32 33 31 31 31 30 26 24 22 21 21 22 17 17 14 17 15 20 20 18 19 17 18 21 20 19 18
39 40 42 44 46 56 63 59 57 55 49 42 39 38 32 32 32 31 31 30 29 28 24 21 21 20 22 19 21 18 16 15 14 13 20 19 21 19 20 20 19 19 18
30 41 43 44 50 62 61 59 55 51 48 39 35 32 30 30 30 29 29 28 27 24 21 22 22 20 20 20 19 18 18 19 18 16 16 18 19 20 20 20 18 18 17
30 33 46 44 55 61 60 60 55 51 43 36 32 29 28 28 28 28 28 26 25 24 23 23 22 22 20 19 19 19 18 18 18 18 18 18 18 19 20 19 18 17 18

GFSSE_sfc_30mbdewp_015.txt.gz
Dewpoint
69 71 72 70 68 68 67 66 65 64 67 67 67 67 67 66 65 64 62 61 60 61 61 63 64 65 66 66 65 65 64 64 63 61 60 59 60 61 62 63 63 63 63
70 71 71 70 68 67 66 65 64 64 66 66 67 66 66 66 64 63 61 60 60 60 60 62 63 63 63 62 62 61 60 60 60 60 60 59 61 61 62 62 62 60 59
70 71 70 70 68 67 66 64 64 65 66 67 67 67 66 64 62 60 60 58 60 60 61 62 63 63 63 62 62 62 61 60 59 59 60 59 59 58 60 62 61 61 60
70 70 70 70 69 67 66 64 67 65 63 63 63 64 64 62 60 59 58 58 59 60 60 60 61 61 62 61 61 63 63 62 62 62 60 58 57 58 56 58 59 61 63
69 69 70 70 69 67 66 64 67 64 62 63 64 63 64 62 61 62 59 59 60 61 63 63 63 63 63 63 62 62 62 62 61 61 58 56 61 61 61 62 61 60 60
67 68 71 70 69 68 67 65 64 65 62 62 63 63 64 63 62 63 62 61 62 63 63 65 65 64 64 64 64 64 63 63 63 61 58 62 61 62 62 62 60 60 62
66 69 70 70 69 69 68 67 63 62 62 64 64 64 64 64 62 64 63 63 63 64 63 65 65 65 66 65 65 64 64 63 60 58 60 62 62 62 62 60 60 64 64
67 68 69 69 69 69 69 67 65 64 64 63 64 65 65 65 64 64 64 64 65 63 65 66 66 66 66 65 64 62 60 58 56 55 58 59 59 59 60 58 62 62 62
68 68 69 69 69 69 69 67 65 65 64 64 65 66 65 67 66 65 65 65 65 65 66 66 65 65 64 61 55 52 50 52 52 53 53 54 54 53 55 58 59 59 59
67 68 69 69 68 69 69 68 66 65 64 65 66 66 64 66 67 67 66 67 65 66 65 64 63 61 58 53 47 45 46 38 41 52 53 54 52 53 54 56 58 60 61
67 67 68 68 68 68 68 68 67 65 65 65 67 65 63 64 67 66 66 66 66 66 63 60 56 54 52 50 47 44 36 30 38 51 52 52 50 51 60 59 60 61 60
66 67 67 67 67 67 67 67 66 66 65 65 66 65 63 61 64 65 65 65 66 64 61 57 50 45 39 37 32 30 31 28 40 50 55 55 57 59 57 60 58 57 59
60 66 67 67 67 67 66 66 66 65 64 64 64 63 62 60 62 62 64 64 64 62 57 53 46 35 28 26 25 23 27 26 46 51 55 55 56 56 57 56 56 56 56
58 60 66 67 66 67 66 65 64 64 63 62 62 62 58 60 60 60 62 62 62 59 47 40 30 27 25 23 22 21 24 25 44 49 54 54 53 53 53 52 50 50 49
58 59 60 64 66 66 65 65 64 63 63 62 61 60 56 56 57 59 60 60 45 38 31 28 27 25 24 22 21 20 22 24 40 45 49 50 49 47 46 44 44 43 43
55 59 60 63 65 66 65 65 64 62 62 62 61 57 55 57 58 56 50 41 33 29 28 25 24 24 24 24 22 22 21 24 30 41 42 46 42 39 39 38 38 38 38
46 59 61 61 64 65 65 65 63 62 62 61 60 56 55 58 51 47 40 33 30 28 25 24 26 26 24 23 21 18 22 22 24 37 38 40 40 40 36 33 33 33 34
41 55 61 62 64 64 65 65 63 62 62 61 60 58 57 54 50 44 37 32 31 28 25 25 25 25 22 21 19 18 24 24 25 26 33 33 33 35 33 31 29 30 31
39 41 60 62 63 64 64 65 64 62 62 61 60 59 54 50 46 42 35 30 28 27 27 26 26 23 20 19 19 19 29 29 24 24 24 26 26 25 24 29 30 27 28
37 39 48 61 63 64 64 64 65 63 63 62 61 58 51 46 41 37 32 29 29 27 27 26 25 24 21 20 21 24 26 29 25 27 20 23 21 21 20 20 21 22 27
35 35 39 55 63 64 64 63 64 63 63 62 61 52 45 40 37 33 30 29 30 27 27 25 24 21 20 21 19 23 25 27 29 30 20 19 17 20 19 20 21 20 21
36 38 39 47 61 64 64 64 63 62 62 58 53 47 43 40 36 32 31 31 29 28 25 23 24 23 22 21 17 24 17 22 18 20 21 18 18 19 19 21 20 19 18
33 37 39 42 58 63 64 63 60 55 50 50 46 43 41 38 33 32 32 30 30 29 25 22 22 22 20 21 18 17 13 16 16 20 20 19 18 19 21 21 20 20 18
31 37 40 42 45 62 64 62 61 59 56 50 46 42 39 35 33 32 31 31 30 27 23 22 22 22 22 18 21 19 17 16 11 9 18 20 21 19 20 21 20 19 19
28 31 36 42 44 55 63 61 60 58 52 45 42 38 35 33 32 32 31 30 28 24 22 21 20 19 21 20 19 18 18 20 19 16 15 18 19 19 20 20 19 19 18
29 29 34 39 45 59 62 61 60 54 45 43 40 36 33 33 32 31 30 29 25 22 23 22 22 20 20 19 20 19 18 17 17 17 18 18 18 19 20 20 19 17 18

GFSSE_sfc_30mbdewp_018.txt.gz
Dewpoint
68 71 71 69 68 68 67 67 67 68 68 68 68 68 68 66 65 63 62 61 62 62 62 66 67 67 67 66 65 65 64 63 60 59 60 61 60 61 62 63 63 63 62
70 71 71 69 68 67 66 65 65 68 69 68 67 67 66 65 63 62 61 61 60 60 62 63 65 64 64 63 63 61 59 57 58 59 60 59 61 61 62 62 62 59 58
70 71 70 69 68 66 65 64 65 66 66 67 66 66 66 64 62 61 59 60 60 60 62 64 64 64 63 63 62 62 60 59 59 60 61 58 59 59 61 62 61 61 60
70 70 70 69 67 66 64 65 66 66 67 68 67 66 63 61 60 58 58 60 60 60 60 61 61 62 61 61 63 63 62 62 62 62 58 58 58 58 57 59 60 61 62
70 69 70 69 67 66 64 67 65 63 64 65 66 65 62 60 60 59 59 59 60 62 62 63 63 62 62 62 62 61 61 62 63 61 57 58 60 62 62 61 60 59 60
69 69 70 69 68 67 66 67 64 62 62 64 65 66 63 62 62 60 60 61 63 63 64 64 64 64 64 64 64 64 63 63 62 59 57 59 61 62 62 62 60 60 62
68 70 70 70 68 67 66 67 66 63 62 63 64 64 63 63 63 63 62 62 63 63 65 65 65 65 66 65 64 63 62 60 56 60 60 62 62 61 61 59 59 65 64
68 69 70 70 69 69 67 65 66 64 64 64 64 65 64 63 64 64 63 63 64 64 65 65 66 66 65 64 62 58 55 56 54 58 58 58 59 58 60 60 61 61 60
67 69 69 69 69 69 69 66 65 65 65 65 66 66 66 66 64 65 64 65 64 65 66 66 66 65 63 58 51 49 50 52 53 53 53 53 54 53 55 56 58 59 60
67 67 68 69 69 69 69 67 65 66 65 65 67 66 65 67 66 66 65 66 64 66 65 65 64 61 57 51 48 49 41 45 51 52 53 53 51 52 56 58 60 62 63
67 67 68 68 68 68 68 67 66 66 66 66 67 64 64 67 67 67 66 66 66 66 64 61 58 55 52 50 45 42 34 36 49 51 53 54 54 60 60 61 61 61 61
66 67 67 68 68 68 67 67 66 65 65 66 66 64 61 65 66 66 66 66 66 65 62 57 51 47 37 32 28 31 28 38 49 53 55 58 60 58 60 59 59 59 58
66 66 67 67 67 67 66 66 66 65 64 65 65 64 62 62 64 65 65 65 65 62 58 51 41 31 26 25 24 24 26 42 50 53 57 57 57 56 56 55 55 54 54
66 66 67 67 67 67 66 66 65 64 63 63 64 63 62 60 62 62 62 63 62 58 52 44 29 26 24 21 21 21 24 40 48 52 56 55 54 54 53 51 49 48 47
61 66 66 67 66 67 66 65 64 64 63 62 62 62 60 59 60 61 61 62 60 53 34 29 27 25 23 22 22 20 23 38 44 49 52 52 49 47 46 45 44 43 43
57 60 66 67 67 66 65 64 63 63 63 62 61 61 58 59 59 59 59 57 43 33 28 25 25 24 24 23 21 20 23 31 42 44 46 45 43 41 40 38 38 38 40
42 58 61 66 66 66 65 65 64 63 63 62 61 60 57 57 57 56 52 39 31 28 24 26 26 25 23 21 20 18 23 24 39 39 41 40 42 40 35 35 36 36 37
41 48 60 64 66 66 65 65 64 63 62 62 61 59 55 57 53 48 39 32 29 26 25 26 26 22 21 19 18 17 25 24 32 37 37 34 37 33 35 33 31 32 34
39 41 56 62 64 65 65 65 64 62 62 61 61 58 56 54 49 42 35 32 28 26 27 26 25 22 17 18 19 22 30 27 25 28 29 26 29 25 27 31 30 29 30
37 39 47 61 63 64 65 65 64 62 62 62 61 59 55 52 46 39 34 29 28 27 27 26 24 22 20 20 23 25 25 27 25 24 25 23 22 20 20 21 21 26 28
35 36 42 57 62 64 64 64 63 61 62 62 61 57 53 48 43 36 31 29 28 27 27 25 23 19 18 21 21 24 25 26 29 24 21 21 19 20 20 21 21 21 21
34 35 36 47 61 63 64 63 63 62 62 62 59 52 50 46 39 34 31 29 29 28 26 25 24 22 21 20 19 24 19 21 20 21 20 19 19 20 21 21 20 20 19
31 33 35 39 56 63 63 63 59 57 55 54 53 50 45 41 36 33 32 30 29 28 26 24 24 23 19 19 19 18 17 15 17 20 20 19 20 20 20 21 20 20 19
29 30 33 37 48 63 64 63 59 59 59 56 54 50 45 39 35 33 32 30 30 29 24 22 23 23 22 18 20 19 17 16 9 9 18 20 21 19 20 21 20 20 18
28 28 32 36 44 61 63 62 61 59 59 53 49 48 44 37 35 34 32 31 30 27 24 22 21 22 21 21 20 19 19 20 18 15 12 16 20 20 21 20 20 18 19
29 29 29 32 39 55 63 62 61 60 53 49 47 44 40 36 34 34 33 32 29 25 23 22 21 21 20 19 19 19 18 16 18 17 17 18 18 19 20 20 19 18 19

GFSSE_sfc_30mbdewp_021.txt.gz
Dewpoint
68 70 70 68 68 68 68 68 68 69 69 69 68 68 67 66 65 63 62 62 63 63 63 66 66 66 64 65 66 65 63 60 58 60 62 62 62 62 64 63 63 63 62
69 71 70 68 68 68 68 68 69 70 69 69 68 68 67 65 64 62 62 62 61 61 62 66 65 66 65 64 63 61 58 57 59 60 59 61 62 62 62 62 61 60 58
69 70 70 69 68 68 67 67 68 69 69 68 68 67 66 64 63 61 61 60 60 60 64 65 64 64 63 63 62 60 57 59 60 61 60 58 58 59 61 61 60 60 59
70 70 69 69 68 66 65 65 67 68 68 68 66 66 65 63 60 59 60 60 61 61 63 63 63 62 62 62 62 61 62 62 63 62 58 58 58 58 57 59 60 62 62
69 69 69 69 67 66 64 65 66 66 67 67 67 65 62 60 59 59 60 60 61 61 61 62 61 62 62 62 61 61 62 64 63 60 57 58 60 62 62 62 61 60 60
69 69 70 69 67 66 66 66 65 67 67 68 66 64 61 60 59 59 60 61 63 64 64 64 63 64 64 64 64 63 63 62 58 59 56 58 61 63 62 62 60 61 62
69 69 70 69 67 66 68 66 64 64 65 66 65 63 62 63 61 60 61 63 64 64 66 64 65 65 65 65 63 61 59 57 60 59 61 62 62 61 61 59 60 63 65
69 69 69 69 68 67 68 67 65 64 64 65 66 65 63 63 63 63 62 63 63 64 65 65 66 66 65 61 57 54 55 55 59 59 58 56 57 56 58 60 59 60 60
69 69 69 69 69 68 67 68 66 65 65 65 66 66 65 65 65 64 64 64 63 65 66 66 66 65 60 50 50 52 53 55 53 52 52 53 55 53 55 56 57 59 63
68 69 69 69 69 69 67 66 66 66 66 66 66 66 66 66 66 65 65 65 64 66 66 65 64 60 54 50 49 47 50 53 51 51 51 51 50 52 59 61 63 63 62
67 68 68 69 69 69 68 66 66 66 66 66 67 66 65 66 66 66 65 66 65 66 65 63 59 55 52 48 46 43 36 47 49 50 53 57 56 60 62 61 62 61 60
66 67 68 68 68 68 67 66 66 66 66 66 66 64 64 66 66 66 66 66 67 65 63 57 52 46 32 28 27 31 33 47 51 53 55 60 59 60 59 59 59 57 57
66 66 67 68 68 67 66 66 65 65 65 65 65 63 61 65 65 65 65 65 65 63 58 49 36 28 25 25 23 26 35 48 51 55 58 58 57 56 54 54 54 53 52
66 66 66 67 67 67 67 66 65 64 63 64 64 63 61 62 64 64 64 63 63 59 53 43 28 25 22 21 21 23 33 46 51 53 56 56 55 54 52 50 48 47 47
65 66 66 67 67 67 66 66 65 64 63 63 64 63 62 60 62 62 62 62 60 53 42 30 26 24 22 22 21 22 32 44 48 51 52 51 50 48 46 45 44 43 44
62 66 66 67 67 66 66 65 64 64 62 62 62 63 62 60 60 61 61 60 57 44 30 26 25 24 23 22 20 21 28 42 45 47 46 46 45 42 40 40 40 40 42
51 60 66 66 67 66 66 65 64 64 63 61 61 61 61 59 59 60 59 56 46 31 26 26 25 24 22 20 18 21 23 37 40 42 41 42 41 40 38 39 38 38 41
41 44 61 67 66 66 66 65 64 64 63 62 60 61 59 58 59 57 55 48 32 26 26 26 25 22 20 18 17 19 25 27 38 39 37 37 36 34 36 33 33 33 34
39 40 52 63 66 66 66 65 65 64 63 62 61 61 58 57 55 53 49 39 29 27 27 26 25 21 16 19 19 28 30 27 34 35 32 32 31 29 31 32 32 30 31
38 39 47 60 64 66 66 65 65 64 63 62 61 60 57 56 51 47 40 32 29 28 27 26 23 21 19 20 24 25 29 26 26 28 27 25 23 20 21 21 21 26 29
36 37 39 57 62 64 65 64 63 62 62 62 61 59 57 54 48 42 35 30 29 28 27 25 21 17 18 23 24 24 26 26 28 22 24 21 20 20 21 21 21 21 20
33 35 36 44 60 63 64 64 63 63 62 62 61 58 56 52 46 40 35 31 30 28 26 25 23 21 19 20 20 24 22 22 20 22 20 20 20 22 20 21 20 19 19
30 32 34 36 50 62 63 63 60 59 57 58 58 55 54 51 45 41 35 33 30 29 27 26 24 22 17 19 21 20 17 15 19 20 20 20 20 20 20 21 20 19 18
28 29 31 33 37 57 63 62 60 59 58 60 58 56 50 49 45 40 35 32 30 31 28 26 25 24 21 17 19 18 18 19 11 12 18 20 21 19 20 20 20 18 20
28 28 29 31 37 43 63 63 61 59 59 58 55 53 50 46 43 39 35 32 32 32 29 25 24 24 22 21 19 18 19 20 18 13 11 16 20 20 21 20 19 18 19
28 29 30 30 32 42 60 63 62 60 56 54 53 52 48 44 41 39 35 34 33 32 28 24 24 23 22 22 20 19 18 16 17 17 16 17 17 19 21 20 19 19 19

GFSSE_sfc_30mbdewp_024.txt.gz
Dewpoint
65 70 70 70 69 68 68 68 69 70 70 70 69 67 67 66 65 63 63 64 63 63 65 64 65 65 64 65 65 63 61 59 61 61 63 63 62 63 63 63 64 63 60
67 70 70 69 68 68 68 67 69 69 70 69 68 68 66 65 64 63 63 63 62 62 65 66 67 67 65 64 62 59 57 60 60 60 61 61 62 62 62 62 61 58 59
69 69 69 68 68 68 67 68 69 69 70 69 69 67 66 65 63 62 61 60 60 61 66 66 63 64 64 63 61 58 60 61 62 61 59 58 58 58 61 61 60 60 60
70 69 69 68 68 68 67 68 69 69 69 69 67 66 64 63 60 60 60 61 60 64 64 64 63 63 62 62 60 62 62 63 63 59 58 58 59 60 58 59 60 60 61
69 69 69 69 68 66 66 67 68 68 68 68 67 65 63 60 59 61 61 61 61 61 62 62 61 62 62 61 62 62 64 63 61 58 57 58 61 62 62 62 62 61 61
69 69 70 69 67 66 66 66 66 66 67 68 67 64 61 60 60 60 61 62 63 63 63 62 64 65 65 64 64 63 62 60 59 57 56 59 61 63 61 62 58 63 62
68 69 69 69 67 66 67 67 67 68 69 67 64 63 61 60 60 61 62 63 64 65 64 64 65 65 65 63 61 59 58 61 59 60 61 61 61 60 60 59 61 62 62
69 69 69 68 67 67 68 66 66 66 67 67 66 63 63 62 61 61 62 63 64 66 65 65 66 65 62 56 54 55 57 60 60 59 56 54 57 55 56 59 59 60 62
69 69 69 69 68 68 68 67 65 65 66 66 67 65 64 64 63 62 63 63 64 65 65 66 65 62 52 51 52 55 58 56 52 52 52 52 54 53 55 56 58 61 63
69 69 69 68 68 67 68 67 66 66 65 66 66 67 65 65 65 64 65 65 63 66 66 65 63 57 52 50 49 51 55 52 50 49 50 52 53 60 62 63 63 62 61
67 68 68 68 68 67 66 67 66 66 66 66 66 66 66 66 66 65 65 66 65 66 65 63 59 55 51 47 46 43 46 48 49 52 55 60 60 61 62 62 61 60 59
65 67 68 68 68 68 67 65 66 66 66 66 66 65 64 65 66 66 65 66 66 65 63 57 53 43 31 26 30 35 44 49 52 54 57 60 60 59 59 58 57 56 56
65 66 67 68 68 67 67 65 65 65 65 65 65 64 62 65 66 65 65 65 65 63 55 44 31 26 24 24 25 29 46 50 54 55 58 59 56 54 54 54 52 51 51
65 66 67 68 67 67 66 66 65 64 64 64 65 63 60 64 65 65 64 64 63 59 51 35 27 23 21 21 23 28 44 49 52 54 56 57 55 53 51 50 49 48 48
65 66 66 67 67 67 66 66 65 64 64 64 64 63 61 62 63 63 63 63 61 55 47 32 25 23 22 21 21 26 43 48 50 51 51 52 51 49 47 45 45 45 46
65 65 66 66 67 67 66 66 65 64 63 63 63 63 62 60 62 62 62 61 59 49 36 28 25 24 23 21 20 25 40 45 48 47 45 48 46 43 42 43 42 43 44
58 65 66 66 67 66 66 66 65 64 63 62 62 63 62 60 60 61 61 60 57 41 28 26 25 24 21 20 19 22 33 41 44 42 42 41 41 42 41 40 39 41 40
40 52 64 66 66 66 66 66 65 64 63 62 61 61 62 61 60 60 59 58 49 32 27 26 24 22 20 19 17 23 24 37 39 39 38 37 34 35 36 35 34 35 36
39 40 49 65 66 66 66 66 65 64 64 63 61 60 60 60 59 58 58 53 38 29 28 26 24 21 17 19 20 29 27 32 37 37 33 33 32 31 30 35 35 32 32
38 39 40 53 65 66 66 66 65 64 64 63 62 61 60 58 58 57 54 47 32 28 28 26 24 21 19 21 26 28 28 27 30 32 27 27 22 21 21 21 21 26 32
35 37 38 43 56 65 65 64 63 63 63 63 63 61 59 58 55 53 49 41 31 29 28 25 21 18 20 25 25 26 25 27 26 23 25 22 20 21 21 21 21 21 20
31 33 36 39 53 63 64 64 63 63 63 63 63 61 60 57 53 50 47 40 31 30 28 25 21 18 18 23 22 24 24 24 22 22 21 21 20 21 21 20 19 18 19
29 30 32 36 43 61 64 64 61 61 59 60 61 60 58 56 51 50 46 39 33 32 29 26 24 20 16 20 22 22 19 17 22 21 20 20 21 20 21 20 19 18 19
28 29 30 32 36 50 62 63 62 61 60 60 60 60 57 55 51 48 46 40 35 33 31 28 26 24 19 16 19 19 18 22 16 15 19 20 20 19 20 20 19 19 20
28 28 29 30 32 37 58 63 62 61 60 59 60 59 56 54 51 48 45 40 36 34 33 30 27 25 23 20 19 18 18 19 17 13 12 18 21 21 21 20 19 19 19
28 35 32 29 30 35 44 61 62 61 59 57 57 56 54 52 50 48 44 40 40 37 34 31 31 27 24 23 21 20 18 17 16 15 14 16 17 18 21 21 19 19 19

GFSSE_sfc_30mbdewp_027.txt.gz
Dewpoint
65 70 70 68 70 71 71 71 71 71 71 71 70 69 68 67 65 64 65 64 64 65 64 65 65 64 64 63 64 61 60 61 62 64 64 64 63 63 63 63 62 60 60
66 70 69 70 68 69 69 70 71 71 71 70 69 68 67 66 64 64 64 63 63 65 67 67 66 66 65 63 60 58 60 61 61 62 62 61 63 62 63 61 60 58 60
67 69 68 69 69 69 69 68 68 70 71 70 69 67 66 65 63 63 62 61 60 66 66 65 65 64 63 62 59 60 62 62 61 60 60 58 57 58 61 61 61 61 62
69 68 66 68 68 68 68 69 67 68 70 70 68 67 65 64 62 61 60 60 65 65 65 64 63 63 62 61 61 62 63 63 61 59 57 60 61 62 59 59 59 59 61
68 67 67 68 68 68 68 69 67 68 70 69 67 65 64 60 61 61 61 62 63 63 63 62 62 62 62 62 63 64 64 62 61 57 59 61 63 62 62 62 62 62 61
68 67 68 68 68 68 68 68 69 68 69 68 67 65 61 60 61 61 61 62 62 62 62 62 64 64 64 64 64 63 61 61 58 57 58 62 63 60 61 58 63 65 63
68 68 67 68 67 66 67 67 67 68 68 68 66 63 60 61 61 61 63 64 64 64 64 64 65 65 64 61 60 60 61 61 59 60 61 62 60 59 60 61 61 62 64
68 68 67 68 68 67 68 68 68 68 70 67 65 63 61 61 61 62 64 65 65 66 65 65 66 62 57 55 56 58 62 61 61 60 58 55 57 55 56 57 59 63 63
69 68 68 67 67 68 68 67 67 68 68 67 66 64 64 63 62 62 63 64 65 65 65 66 63 54 53 54 56 58 58 56 55 53 51 51 54 53 56 57 60 63 62
69 68 68 67 66 67 67 66 66 66 67 67 66 65 65 65 64 63 64 64 64 67 66 64 59 54 52 51 54 58 55 52 49 49 52 54 60 63 63 63 63 62 60
68 68 68 68 67 67 67 66 66 66 66 66 66 65 65 65 64 64 64 65 66 65 65 62 58 55 50 49 47 51 48 48 50 55 59 60 61 62 62 61 60 59 57
65 66 68 68 67 66 67 66 65 65 64 64 65 66 65 66 66 65 64 65 66 65 63 57 52 44 32 30 35 45 46 50 51 58 59 61 60 59 58 57 57 56 55
64 65 67 68 68 67 65 65 66 65 65 65 65 65 65 65 66 66 65 65 65 61 54 43 34 29 29 28 30 41 47 51 55 57 58 58 55 53 55 54 53 52 52
64 64 66 67 67 68 67 65 64 65 65 65 65 65 63 64 65 66 65 66 64 61 50 38 30 26 26 25 27 39 46 52 54 56 57 57 54 53 52 50 50 50 50
65 64 66 66 66 67 67 66 64 64 64 64 64 65 62 63 65 65 65 65 63 58 50 35 28 26 24 24 26 37 45 50 52 52 53 53 53 50 48 47 47 47 47
64 65 66 67 66 66 66 66 65 64 64 64 64 64 63 62 65 64 64 64 62 57 47 35 28 27 25 24 25 37 44 49 50 48 48 48 48 46 45 44 45 46 46
58 64 66 66 67 65 66 66 65 65 64 63 63 64 63 61 62 64 64 63 61 52 40 30 27 26 25 22 24 31 41 46 46 44 44 43 42 45 44 42 44 41 42
40 52 63 66 66 66 65 66 66 65 65 63 63 62 63 62 60 62 62 62 59 45 34 30 28 26 25 23 23 26 36 42 42 40 40 38 39 39 38 37 37 38 38
40 40 44 63 66 66 66 66 66 65 65 64 63 62 62 62 61 60 61 61 55 43 33 30 27 26 23 23 24 29 28 38 39 36 36 34 36 35 36 39 37 35 35
39 39 40 47 62 66 66 65 65 65 65 65 63 62 61 61 61 60 59 59 50 42 34 30 28 24 23 23 26 29 29 33 37 35 32 29 29 27 24 25 27 28 34
35 36 38 40 48 63 64 64 64 63 63 64 64 63 61 60 60 60 58 55 48 42 35 30 27 24 24 29 29 28 28 29 30 31 28 26 24 23 24 24 23 23 22
31 32 35 37 40 54 62 63 63 62 63 64 63 63 62 61 59 59 57 53 46 40 33 29 26 23 24 29 27 29 26 25 25 24 26 24 22 23 23 22 21 21 22
30 30 31 34 38 47 58 63 63 62 61 62 62 62 62 61 59 58 56 53 45 40 35 30 26 25 23 27 27 27 24 24 25 24 23 23 22 22 22 22 21 20 22
27 31 31 32 35 42 58 61 61 59 59 60 61 62 61 61 59 57 55 53 48 42 38 32 29 26 25 25 24 23 22 26 24 21 22 22 22 21 21 22 20 21 21
32 35 35 31 32 36 50 62 62 60 60 61 61 61 61 59 59 56 55 52 48 42 41 36 30 28 24 25 23 22 21 21 19 20 21 21 21 22 21 21 20 20 20
36 36 38 38 34 32 36 55 61 60 60 60 60 60 59 58 57 55 53 52 50 46 44 40 35 31 27 24 24 23 22 20 19 18 18 19 21 21 22 22 20 20 20

GFSSE_sfc_30mbdewp_030.txt.gz
Dewpoint
64 67 71 69 71 71 71 72 72 71 71 71 70 70 68 67 66 66 65 64 65 66 65 66 64 64 64 63 62 61 61 62 63 65 65 64 63 63 63 62 61 57 60
65 66 68 69 70 71 71 72 72 72 71 71 70 69 67 66 65 65 64 63 65 66 67 66 66 64 64 61 60 61 61 61 62 62 61 63 64 63 62 61 60 60 61
65 65 66 68 67 68 70 71 71 71 71 70 69 68 66 65 64 64 62 61 67 67 67 66 65 64 62 60 61 61 61 61 60 61 58 54 55 60 61 62 61 61 63
65 65 65 67 68 68 67 67 69 71 70 70 68 66 65 64 63 61 60 64 66 65 65 64 64 62 61 61 62 62 63 61 60 58 55 58 58 62 60 59 59 60 61
65 64 65 68 67 67 67 66 66 69 70 69 67 66 64 62 61 61 61 64 65 64 63 62 62 62 62 62 63 64 63 62 59 57 58 60 59 61 62 60 61 62 62
64 63 67 67 67 67 68 67 65 69 70 68 67 65 61 61 62 62 63 63 63 63 62 63 64 64 64 64 63 63 62 61 59 57 59 60 59 61 59 63 63 64 65
63 63 65 68 68 68 68 68 67 68 69 68 66 62 61 62 62 62 63 63 63 63 64 64 65 64 62 61 61 61 63 60 58 58 59 57 57 59 60 60 61 64 64
64 64 64 68 68 68 68 68 68 67 69 68 65 62 61 61 62 63 64 65 64 64 65 66 64 59 57 57 58 62 62 60 59 59 57 53 56 55 56 57 61 64 62
65 65 63 65 66 68 68 69 68 67 70 67 65 63 63 63 62 63 65 65 66 65 66 65 57 55 55 56 58 60 59 56 53 53 49 47 56 55 57 58 63 62 61
66 65 64 63 62 63 65 67 68 69 68 66 65 65 64 63 63 63 65 65 65 66 66 61 55 53 53 55 59 58 54 50 47 46 45 51 62 63 63 63 62 61 60
66 66 65 62 61 62 63 64 66 67 67 66 65 65 64 60 61 62 61 64 67 66 64 60 57 53 52 50 52 52 47 41 43 46 49 61 62 62 62 61 60 58 57
65 66 66 64 62 62 63 62 61 60 62 63 64 63 60 60 60 59 61 65 66 65 63 60 57 48 39 37 37 41 38 41 43 50 55 62 60 59 59 58 57 56 56
64 66 66 66 63 63 62 62 62 60 59 60 61 62 60 62 64 64 62 62 61 62 58 54 44 39 36 32 32 36 39 41 44 48 57 58 57 57 56 55 54 54 53
64 64 65 66 65 64 63 63 62 61 60 60 61 61 62 62 62 63 63 62 62 59 55 50 42 37 32 30 30 34 38 42 44 46 55 57 55 54 53 52 52 52 51
64 64 65 66 66 66 65 64 62 61 60 59 60 61 61 61 61 61 62 64 62 61 56 49 41 35 31 29 28 33 37 42 44 46 51 55 54 51 49 49 50 49 49
62 64 65 66 66 66 66 65 65 63 61 59 59 60 61 60 60 61 63 64 64 61 57 49 41 36 33 30 27 33 38 42 43 44 47 49 50 48 47 46 47 48 47
48 55 62 66 67 66 66 65 66 65 64 62 61 60 60 60 59 60 61 63 64 61 57 48 40 35 32 28 27 32 37 40 42 42 43 43 44 48 45 45 47 44 44
39 42 51 61 65 66 66 66 67 66 65 64 62 62 61 60 59 59 61 62 63 61 54 46 40 35 33 29 27 28 35 39 39 39 40 39 39 41 41 42 40 41 40
37 38 39 48 60 63 66 66 66 66 66 64 63 63 62 62 60 58 59 61 61 59 51 45 40 37 33 30 27 27 31 35 37 36 36 36 37 36 35 38 38 37 36
37 38 39 40 46 55 63 66 66 66 65 65 65 64 63 62 61 60 58 59 60 58 51 45 40 35 33 30 23 26 28 33 36 34 33 32 33 34 32 30 33 32 36
34 37 37 38 40 45 55 63 64 64 64 64 64 65 64 63 62 61 61 59 59 56 53 46 41 34 31 29 29 29 28 30 34 34 32 30 29 28 26 25 25 24 25
30 32 34 35 37 39 47 55 59 62 63 64 64 64 64 63 62 62 61 60 59 56 54 47 39 35 33 31 31 30 27 26 28 32 31 29 27 26 25 24 24 23 24
30 33 32 33 34 36 40 50 57 61 62 62 63 63 63 63 62 62 61 61 58 55 53 48 40 37 34 31 31 30 29 27 27 28 29 29 26 25 24 24 23 22 22
38 38 37 34 33 34 37 45 52 57 57 58 59 61 63 62 62 62 61 61 58 55 52 48 42 38 37 33 30 29 28 31 27 26 26 26 26 24 24 24 22 21 23
40 42 41 40 36 33 36 42 51 54 55 55 57 60 61 62 62 62 61 60 58 54 53 51 44 39 37 38 33 28 26 25 26 27 27 25 24 24 23 23 22 21 22
41 42 41 38 38 40 35 37 46 53 55 56 58 60 60 60 61 61 60 59 58 56 53 52 47 41 37 36 34 30 27 25 23 22 23 25 25 24 23 23 22 22 21

GFSSE_sfc_30mbdewp_033.txt.gz
Dewpoint
64 67 72 71 71 71 71 72 72 71 71 71 71 70 68 67 67 66 65 65 66 65 66 65 65 64 64 62 62 62 63 63 64 65 65 64 63 63 61 60 61 59 62
64 66 70 70 71 71 72 72 72 72 71 71 71 69 67 66 66 65 64 64 67 66 67 66 64 64 62 62 62 62 61 61 61 62 64 64 64 62 61 61 62 61 61
63 65 65 69 69 72 72 72 72 71 71 70 69 68 66 65 65 64 62 67 68 68 67 66 65 63 61 61 61 61 61 60 60 59 60 54 57 60 61 61 61 62 62
63 64 64 68 68 69 71 70 71 71 70 69 68 66 65 65 64 61 62 67 67 66 65 64 63 61 61 62 62 62 61 60 58 58 55 56 59 62 62 61 60 60 61
62 63 65 66 67 66 66 68 70 70 70 69 67 66 65 63 61 61 66 66 65 64 63 62 62 62 62 63 64 63 62 60 58 58 58 60 58 61 61 63 64 62 63
61 62 66 67 67 66 66 65 67 69 70 68 67 65 62 62 62 62 65 64 64 63 63 64 64 64 64 64 63 62 62 59 59 57 58 58 59 60 62 63 65 66 66
60 63 65 67 67 66 66 65 66 70 69 67 66 62 62 62 62 63 64 64 63 63 64 65 65 63 62 61 61 63 62 60 59 57 57 55 57 57 58 60 64 64 63
60 62 64 67 67 67 67 66 66 69 68 67 64 61 62 62 62 63 63 63 63 64 65 65 62 59 58 59 61 63 61 60 57 56 53 52 56 55 56 57 64 63 62
61 61 63 64 66 68 68 68 66 67 69 67 64 63 63 63 63 64 65 65 65 65 66 63 57 57 56 58 60 60 58 56 51 50 44 47 61 57 57 59 63 62 60
62 62 60 61 62 61 63 68 68 67 68 66 64 64 64 64 64 64 65 66 65 66 65 58 55 55 56 59 59 57 52 48 45 44 45 57 64 64 63 63 62 61 59
63 62 61 60 59 60 61 65 68 69 67 65 65 64 63 58 60 63 63 64 66 67 64 58 55 54 53 54 54 50 46 41 42 45 51 63 63 63 62 61 60 59 57
64 63 62 60 59 59 60 62 63 64 66 65 64 63 59 57 57 56 61 65 66 66 63 60 55 52 47 41 40 39 40 40 43 48 59 62 60 60 60 59 58 57 56
64 65 66 62 60 60 60 60 58 58 60 61 63 62 59 57 59 58 60 61 64 63 61 59 55 48 42 38 35 36 38 40 43 47 59 60 59 58 57 56 55 55 54
63 64 65 66 62 61 60 61 60 59 58 57 58 60 60 61 63 62 61 59 57 59 57 55 48 43 40 36 35 35 37 40 42 45 56 58 57 56 55 54 54 53 52
62 64 64 66 65 63 62 62 61 61 59 58 58 59 59 60 63 63 64 63 61 60 57 53 47 41 38 35 33 34 37 40 43 45 55 56 55 52 51 51 52 50 51
61 63 65 65 66 65 64 63 63 62 61 59 58 58 58 58 59 59 61 63 63 62 59 55 49 42 38 36 33 33 36 40 41 43 51 52 52 50 49 49 49 49 49
54 58 61 64 66 66 65 64 64 64 62 60 59 59 59 58 58 58 59 63 62 63 60 57 49 42 39 36 33 33 37 39 41 42 45 48 47 48 47 48 49 46 47
42 44 50 58 64 65 65 65 64 64 64 63 62 60 60 59 59 57 58 61 62 63 62 57 49 42 40 37 34 32 35 38 40 39 41 42 43 44 45 47 44 44 42
39 40 41 44 53 60 63 65 66 66 64 64 63 61 61 61 59 58 58 60 62 62 61 57 50 44 41 38 35 32 33 37 38 37 38 38 39 42 41 41 42 40 39
35 36 37 38 40 48 57 62 66 66 66 65 63 62 61 62 62 60 59 58 61 62 60 55 50 45 43 39 33 30 31 34 36 36 35 35 36 37 36 38 40 36 38
34 35 37 38 38 41 45 53 64 65 64 65 65 63 63 63 62 62 61 59 59 60 59 54 50 45 42 39 31 31 31 30 35 35 34 33 33 35 34 32 33 31 33
30 32 34 36 38 39 40 44 52 61 62 64 65 65 65 64 63 63 62 61 59 59 59 55 50 45 40 37 36 36 33 30 29 33 34 32 31 32 29 28 28 27 27
35 35 34 34 34 35 37 40 45 53 59 61 63 64 64 64 64 63 63 62 61 60 59 56 51 46 42 38 39 38 36 33 30 30 33 33 30 29 28 28 26 25 26
40 42 40 39 35 34 35 36 39 47 54 58 58 60 62 62 62 64 62 63 62 61 59 57 53 47 45 39 38 37 34 35 31 29 30 32 31 28 28 28 26 25 24
42 43 43 40 38 39 35 36 38 42 49 54 56 56 57 61 62 62 62 62 62 61 60 58 54 47 47 44 40 36 34 29 31 32 28 28 29 28 27 27 26 25 25
42 43 43 41 38 37 39 39 37 41 45 50 53 54 55 58 61 62 62 62 62 61 60 57 55 49 48 47 43 37 33 32 28 27 29 29 27 27 27 26 26 25 25

GFSSE_sfc_30mbdewp_036.txt.gz
Dewpoint
67 71 73 72 72 72 72 72 72 72 71 71 70 70 68 68 67 66 65 65 66 66 66 65 66 64 63 63 63 63 63 63 64 65 66 65 63 61 61 63 62 63 63
67 71 73 72 72 72 73 73 72 72 72 71 70 69 68 67 66 64 64 67 66 67 66 65 64 63 63 63 62 62 61 61 63 65 64 63 63 61 60 62 63 62 61
66 68 71 72 72 73 73 73 72 71 71 71 69 67 66 66 65 63 66 68 68 67 67 65 63 62 62 62 61 61 60 60 61 63 64 59 60 60 59 59 62 62 60
66 66 67 69 72 73 72 73 72 71 71 69 67 65 64 65 63 62 67 68 67 67 65 63 62 62 62 62 62 61 59 59 58 59 60 60 61 62 62 64 60 61 62
64 64 67 67 68 69 70 71 72 71 69 68 67 65 65 63 61 67 67 66 66 65 63 62 62 62 64 64 63 62 61 58 58 60 59 60 60 62 64 65 64 65 66
62 66 67 67 66 65 66 68 69 70 69 68 67 65 63 62 62 66 66 65 64 64 63 63 64 64 64 63 63 62 61 60 60 59 58 61 61 62 63 65 66 65 64
65 66 67 66 65 65 65 66 68 70 69 68 65 63 62 63 64 65 65 64 64 64 64 65 64 63 62 62 62 63 60 60 60 57 57 57 57 57 59 63 64 63 63
65 65 65 65 64 65 66 66 68 70 69 67 64 63 63 63 63 64 64 63 63 65 65 64 61 59 59 61 63 62 61 60 57 54 54 54 57 56 56 63 63 63 61
63 64 65 65 66 67 66 65 67 68 68 66 64 64 64 63 63 63 64 64 64 65 66 60 58 58 58 60 61 60 57 54 51 48 51 60 63 58 57 64 62 61 60
61 63 64 64 66 66 67 66 66 67 67 65 65 65 64 64 64 65 66 66 65 66 63 58 57 57 59 59 58 54 51 49 45 45 59 64 64 62 63 63 62 61 59
62 62 62 62 61 61 62 66 67 66 67 65 64 64 63 62 63 65 64 65 66 67 61 57 56 54 56 55 53 48 46 45 43 50 62 64 63 63 63 62 60 59 58
63 62 60 60 60 60 61 66 65 67 67 65 64 63 62 60 60 61 64 65 67 66 61 59 56 54 49 43 41 37 39 41 45 60 63 63 61 61 61 60 59 58 57
63 65 65 62 59 60 61 64 63 66 66 65 63 63 62 58 58 61 63 65 65 64 62 60 56 50 46 44 38 38 40 40 45 60 61 61 60 59 58 57 57 56 55
63 63 65 66 62 60 60 61 59 60 62 63 64 62 62 59 60 60 61 61 64 63 62 59 56 51 45 38 36 36 39 40 43 58 58 60 59 57 56 56 56 55 54
63 63 65 65 66 62 61 61 61 59 59 59 59 62 61 62 62 63 63 60 59 61 60 57 53 45 41 37 35 35 37 40 43 56 56 58 56 55 54 54 54 53 53
62 63 64 65 66 66 63 62 62 62 60 59 59 59 60 62 63 63 63 64 62 61 60 56 52 45 40 37 35 34 36 40 43 55 54 54 54 53 51 52 51 51 52
60 63 64 65 66 65 65 65 64 64 63 60 59 59 59 59 61 62 62 63 63 63 61 59 53 46 41 37 36 33 37 40 42 46 53 51 51 51 50 50 50 49 50
45 51 64 65 65 65 65 66 65 64 64 63 62 60 59 59 59 59 59 62 63 63 63 60 54 46 42 38 36 34 37 39 41 42 48 49 47 47 47 50 49 47 47
39 41 42 53 64 65 66 66 66 65 66 64 64 63 61 60 60 59 59 61 62 62 63 61 56 46 42 40 37 34 35 38 40 40 41 44 45 45 45 46 46 45 42
36 38 39 41 44 47 62 65 66 65 65 66 65 63 63 62 61 60 59 59 62 61 62 61 55 48 44 42 37 34 33 37 38 38 38 39 40 44 42 42 42 40 41
33 35 36 37 39 41 43 53 65 65 65 65 65 66 64 62 62 62 61 60 62 61 61 61 55 49 46 42 35 32 33 32 34 38 36 36 37 38 40 40 40 37 39
31 33 35 36 38 40 41 43 52 64 64 64 64 65 65 65 64 63 62 61 60 61 61 60 54 49 45 41 33 33 32 32 30 33 36 35 34 36 35 36 36 35 33
39 39 39 38 36 36 37 38 40 44 59 62 62 63 64 64 64 64 63 63 62 60 60 60 55 50 45 41 38 37 37 35 30 31 33 35 33 33 33 29 29 28 30
43 44 43 41 40 36 35 36 37 39 42 52 61 63 63 63 63 63 63 63 63 62 61 60 57 52 46 41 39 40 38 36 31 29 32 34 32 31 31 30 27 27 26
44 45 45 44 40 39 40 37 37 38 40 44 51 58 60 62 63 62 62 62 63 63 62 61 59 54 48 45 42 41 41 35 34 33 29 30 32 31 29 29 28 27 25
43 44 43 41 40 40 39 40 40 38 39 42 46 53 55 56 60 62 62 61 62 63 62 61 60 57 51 49 44 44 41 39 34 32 32 29 29 30 29 29 28 27 26

GFSSE_sfc_30mbdewp_039.txt.gz
Dewpoint
70 72 73 72 73 72 72 72 73 72 71 71 70 69 68 67 66 65 66 66 67 67 66 66 64 64 64 63 63 63 63 63 64 65 65 64 61 63 64 63 63 63 61
71 73 73 72 72 73 73 72 72 72 71 71 70 69 68 67 65 64 67 66 67 66 65 64 64 64 63 62 62 61 61 63 64 64 64 63 62 60 62 63 63 60 60
70 72 73 73 73 73 73 72 72 72 72 71 68 67 67 66 63 67 68 67 67 67 65 64 63 62 62 61 61 60 60 62 63 64 61 60 61 61 60 61 62 62 61
70 71 72 73 73 73 73 72 71 71 71 69 67 66 66 64 62 68 68 68 67 66 64 62 62 61 62 62 60 58 58 59 59 60 61 61 62 63 65 62 60 64 63
66 67 71 73 72 72 73 71 71 69 69 68 66 65 64 61 65 68 67 67 66 64 63 62 62 63 63 63 62 61 60 60 61 60 60 60 62 64 66 65 66 66 66
65 67 68 68 69 70 71 71 69 69 68 67 66 65 62 63 66 67 66 65 64 63 63 64 64 64 64 63 62 62 61 61 60 59 61 62 61 62 65 66 65 65 65
66 66 66 66 66 67 69 69 69 69 69 67 65 63 63 63 65 66 65 65 64 64 64 64 64 63 63 62 63 62 61 61 59 57 57 57 58 58 62 64 64 63 63
65 66 66 65 64 66 67 67 69 70 68 65 64 63 63 64 64 65 64 64 64 64 65 63 61 60 61 63 62 62 60 56 54 54 54 56 57 56 59 64 63 61 61
65 65 65 64 65 64 66 66 68 69 68 65 65 65 64 63 64 64 64 63 65 66 64 60 59 59 60 61 61 58 55 52 47 52 58 61 60 58 63 64 62 61 60
64 64 64 65 66 66 66 65 67 68 67 65 65 65 64 64 64 65 66 65 66 67 61 59 58 59 60 59 57 52 49 48 45 59 64 65 62 60 63 62 62 60 59
63 64 64 65 65 65 66 66 66 67 66 65 65 64 64 64 65 66 65 66 66 66 60 58 57 58 58 56 52 46 45 43 47 60 64 64 64 64 63 62 61 59 59
61 63 64 64 63 62 63 66 66 67 66 65 64 63 62 62 63 64 65 65 66 65 61 58 57 54 50 45 41 41 38 41 55 62 64 64 63 63 62 61 60 58 57
63 65 63 61 61 61 63 64 64 66 66 64 63 62 61 61 61 62 64 66 66 64 61 60 57 52 47 45 41 35 40 41 58 62 62 62 61 59 60 59 58 57 56
63 63 65 65 61 61 64 63 63 66 66 65 63 62 61 60 59 62 63 64 65 64 61 60 57 53 49 44 39 36 39 40 58 60 61 61 60 59 58 57 56 56 55
62 63 64 65 65 63 62 61 62 63 65 65 64 63 62 61 59 61 61 62 63 63 62 60 58 54 49 39 36 35 38 39 55 57 59 60 60 58 57 56 55 55 54
63 63 64 64 65 65 64 61 60 60 62 61 62 63 62 61 61 61 62 59 59 61 61 60 57 51 43 39 36 34 36 40 49 56 58 58 58 57 55 55 54 54 52
63 63 64 64 65 65 65 65 64 63 61 59 59 60 62 62 62 62 62 63 61 61 60 59 55 49 42 39 36 33 35 38 48 55 54 54 55 54 54 53 52 53 53
61 63 64 64 65 65 65 65 65 65 64 62 60 59 59 59 62 62 62 62 63 63 62 60 56 50 45 39 37 34 35 38 42 53 52 51 51 50 52 53 52 51 51
44 61 64 64 65 65 65 65 66 65 65 64 63 61 59 59 59 60 60 61 62 63 63 62 59 51 45 41 37 36 34 37 40 42 51 49 48 47 47 52 52 51 50
34 36 38 57 65 65 65 65 66 66 65 66 66 65 63 62 60 59 59 59 62 62 62 62 60 53 46 42 39 36 34 36 39 40 42 48 47 46 45 48 48 47 46
32 33 35 36 38 44 58 64 64 64 64 64 64 65 66 65 62 61 60 59 61 61 61 62 60 57 48 43 38 35 34 33 36 38 39 40 43 45 44 44 43 42 43
36 37 37 37 36 36 40 43 58 64 64 65 64 64 64 64 65 64 62 60 61 61 61 61 59 54 51 43 39 33 30 32 31 32 38 37 38 42 42 42 41 39 39
41 41 41 41 39 37 36 36 38 42 56 62 63 63 64 64 64 64 64 63 62 61 61 60 60 56 51 46 41 39 35 35 33 32 32 37 36 37 38 39 39 37 36
44 45 44 44 41 40 36 36 35 36 37 45 59 62 62 63 63 63 63 63 63 62 61 61 61 58 53 48 42 40 43 38 35 35 33 34 37 34 36 35 35 33 33
44 44 43 42 40 40 40 41 39 37 38 40 43 47 57 62 63 63 63 62 62 62 62 61 60 57 53 51 46 43 43 41 36 34 35 34 36 34 33 33 30 29 29
43 43 42 42 41 42 42 41 40 40 40 40 40 41 44 52 58 62 62 62 62 61 61 61 61 59 56 52 48 47 43 41 41 36 35 34 35 35 32 31 30 28 27

GFSSE_sfc_30mbdewp_042.txt.gz
Dewpoint
70 73 73 73 72 72 72 72 72 72 71 70 70 69 68 67 66 66 66 67 67 67 65 65 65 65 64 63 63 64 64 64 64 64 63 63 64 64 63 63 63 61 61
71 73 73 73 72 72 73 73 73 72 71 70 70 68 67 66 65 66 66 67 66 65 64 64 64 64 63 62 62 62 64 63 63 63 63 62 61 62 63 62 61 60 60
71 72 73 73 73 73 73 72 72 72 71 70 68 68 66 64 65 68 67 68 67 65 64 64 63 62 61 61 61 62 63 63 63 61 61 61 63 61 60 62 62 61 62
71 72 72 73 73 73 73 72 72 72 71 69 68 67 65 63 68 68 68 68 66 65 63 61 61 61 61 59 60 60 60 60 61 61 61 61 63 65 63 61 64 63 66
71 72 73 73 73 73 72 72 72 71 69 68 66 65 62 64 68 68 68 67 65 63 62 62 63 63 63 61 60 60 61 62 61 61 60 62 63 65 65 66 65 66 67
68 70 73 73 73 73 72 72 71 70 67 67 66 64 63 67 68 67 66 65 64 63 62 64 64 64 63 63 62 61 62 62 61 61 62 63 62 65 66 65 66 65 65
67 69 70 70 72 72 71 70 70 69 68 67 65 62 63 66 67 66 65 65 64 64 64 64 64 63 63 63 62 62 62 59 58 57 57 57 58 62 65 65 64 63 63
66 66 67 67 68 69 69 69 70 69 68 66 64 63 63 63 64 65 65 65 64 65 64 63 62 62 62 63 62 62 57 56 55 54 55 56 58 57 64 63 62 61 60
65 65 65 65 66 67 67 68 69 69 67 66 65 65 65 64 64 64 65 64 65 65 63 61 60 60 61 62 61 58 53 52 49 53 55 57 58 57 63 63 61 61 60
64 64 64 64 65 65 65 67 68 68 67 66 66 65 64 64 65 65 64 65 66 65 61 60 59 60 60 60 57 52 49 49 54 62 64 62 61 62 63 63 62 60 59
64 64 64 64 65 65 65 66 68 68 66 66 66 65 64 64 65 66 65 66 66 64 61 59 58 60 59 57 54 48 45 43 48 61 64 65 62 63 63 63 61 60 59
63 63 64 64 65 65 65 65 67 67 66 65 64 64 63 63 65 65 65 66 67 65 61 59 57 57 55 47 43 43 38 42 57 62 64 65 64 64 63 62 60 59 58
62 63 64 64 64 63 63 65 65 67 65 64 63 63 62 62 63 64 64 65 65 65 61 60 58 54 49 45 41 34 38 44 59 62 64 64 63 62 60 60 59 58 57
63 63 63 63 62 61 63 64 64 66 65 64 63 62 61 60 60 62 63 64 65 64 61 60 57 54 48 46 45 39 38 41 57 61 62 62 61 59 59 59 58 57 56
62 63 64 64 61 61 63 62 63 65 66 65 63 62 61 60 59 61 62 63 64 64 62 60 59 57 53 49 39 36 36 39 56 60 60 61 61 60 59 58 57 56 55
62 62 63 64 65 62 63 62 61 63 65 65 64 63 62 61 60 60 61 61 63 63 63 61 59 57 52 47 39 36 35 38 49 58 58 60 61 60 58 57 56 55 55
62 62 62 63 64 65 63 62 61 61 62 63 63 64 63 62 61 60 60 60 60 61 62 61 60 57 52 45 39 36 34 36 43 56 57 58 59 59 58 56 55 54 54
63 63 63 64 64 64 65 65 64 64 62 60 60 60 62 62 62 61 61 62 61 60 60 60 58 55 50 43 39 37 34 36 40 53 55 55 55 55 56 56 55 54 54
61 63 63 64 64 64 65 65 65 65 65 63 61 60 59 61 62 62 62 62 63 63 62 60 59 54 51 46 41 38 35 35 38 45 53 53 52 52 52 54 56 54 54
38 49 57 63 64 65 65 65 65 65 65 65 65 63 62 61 60 60 61 61 62 62 62 62 61 56 52 49 42 38 37 35 38 41 47 52 50 50 49 49 54 53 53
34 35 35 39 41 59 64 64 64 64 64 64 65 65 65 64 63 61 60 59 60 61 61 62 61 60 54 47 43 38 36 35 35 38 41 46 49 48 47 47 51 49 51
38 39 39 38 36 36 42 47 61 63 64 64 64 64 64 65 65 64 62 61 60 60 60 60 60 58 57 48 47 38 39 38 34 33 37 39 43 46 46 45 46 45 45
42 43 43 42 40 39 36 37 38 40 52 60 62 63 63 64 64 64 64 63 61 61 60 60 60 59 57 51 47 47 39 41 37 34 32 37 38 40 44 44 44 42 42
44 44 43 42 40 40 40 39 36 35 35 40 49 56 57 61 62 63 63 62 62 61 61 60 60 60 57 54 49 46 46 40 39 41 34 34 37 37 39 43 43 41 39
43 43 42 41 42 43 42 41 40 40 40 40 41 42 44 49 57 61 62 62 61 61 61 60 61 60 59 58 51 46 44 45 39 38 40 37 39 38 37 38 40 39 36
42 42 42 42 42 43 43 43 43 42 42 42 42 44 45 46 48 55 60 62 61 61 60 60 60 60 58 56 55 52 48 45 46 40 39 40 41 40 38 38 36 35 35

GFSSE_sfc_30mbdewp_045.txt.gz
Dewpoint
68 70 72 72 72 72 72 72 72 72 71 70 69 69 67 66 66 66 68 68 67 65 65 65 66 65 64 64 65 65 65 64 63 64 64 65 64 62 63 63 61 61 63
70 71 73 72 72 72 72 72 72 71 71 69 69 68 67 66 66 66 68 66 65 64 64 64 65 64 63 62 64 64 64 62 62 62 62 62 62 63 62 61 61 60 62
71 72 73 73 73 73 73 72 72 71 71 70 68 67 66 65 66 67 68 66 65 65 64 63 63 62 62 62 64 64 63 63 62 62 63 63 63 60 62 63 62 62 62
71 72 73 73 73 73 72 72 72 71 70 69 68 67 64 66 68 67 68 67 65 64 62 61 61 60 60 61 62 61 61 61 61 62 61 62 64 65 60 62 64 65 66
70 72 72 73 73 73 72 72 72 70 69 68 67 65 63 69 67 68 68 66 64 63 62 62 62 62 60 60 61 62 62 62 62 60 61 62 63 65 65 66 66 66 66
71 71 72 73 73 73 72 72 72 69 68 67 66 63 64 69 69 68 67 65 64 63 63 63 64 63 63 62 62 63 63 63 61 60 62 63 62 66 66 66 66 65 64
70 72 72 73 73 72 72 72 71 69 68 67 64 63 67 67 67 67 66 65 64 63 64 64 64 63 63 63 62 62 61 62 59 58 57 57 59 65 65 65 64 63 62
69 70 71 71 72 72 72 71 70 69 68 66 63 63 65 67 67 66 66 65 64 64 64 64 63 62 63 62 62 61 58 59 56 55 56 57 58 61 64 63 62 60 60
67 67 67 68 69 69 70 70 70 69 67 66 65 65 65 64 64 64 65 65 64 65 63 62 61 61 62 62 61 57 56 54 53 52 53 55 58 57 63 63 62 61 60
65 65 64 65 66 67 68 68 69 68 67 66 66 66 65 65 64 65 65 65 65 65 62 61 60 60 61 60 57 53 51 51 52 60 62 59 61 61 63 62 61 60 59
64 64 64 64 64 65 65 67 68 67 66 66 66 65 64 64 65 65 64 65 67 65 61 60 59 60 59 57 54 49 45 44 48 60 63 63 62 64 64 63 61 60 59
63 63 64 64 64 64 64 66 67 67 66 66 65 64 63 63 64 65 65 65 66 64 62 60 58 59 56 48 43 41 38 41 52 60 63 65 64 63 63 63 58 60 58
63 63 64 64 64 64 64 65 66 66 65 64 64 63 63 63 64 64 64 65 65 66 62 61 59 55 50 44 42 37 36 41 52 61 63 65 64 64 63 60 58 59 58
62 63 64 64 64 63 63 64 65 66 64 63 63 63 62 61 61 62 62 63 64 65 62 60 58 55 50 46 45 44 37 40 56 61 62 64 64 62 60 60 60 58 57
62 63 63 63 63 62 63 64 64 65 65 63 63 62 61 60 59 60 61 62 63 64 63 60 59 58 55 51 48 42 37 38 43 58 61 62 63 62 60 59 58 57 56
63 63 63 63 62 61 62 62 63 64 65 65 63 62 62 60 59 59 60 61 62 63 63 62 60 59 57 54 48 40 36 37 40 56 59 60 62 62 61 59 58 57 56
62 63 63 64 64 61 61 62 61 62 64 65 64 64 63 62 60 59 59 60 61 62 63 62 61 59 58 54 47 42 37 35 39 49 57 58 60 61 61 59 58 57 55
62 62 62 64 64 64 62 62 61 61 61 63 63 64 64 63 62 60 59 60 60 60 61 61 60 59 58 55 50 44 38 35 36 43 53 56 57 59 59 60 58 56 55
62 62 62 63 64 64 65 64 63 63 62 61 61 61 62 63 62 62 61 61 61 60 59 60 59 58 57 54 51 45 40 36 35 38 48 53 55 56 56 56 58 57 56
54 61 63 63 64 64 64 64 64 65 65 65 64 62 60 60 61 62 62 62 62 62 62 61 59 58 56 55 51 47 42 38 36 37 41 51 53 53 53 52 53 56 56
36 41 45 55 51 63 64 64 63 63 63 64 65 65 64 63 61 60 60 60 61 61 61 62 61 60 58 52 50 48 42 39 37 36 39 43 50 51 51 50 50 53 54
37 38 38 38 36 38 49 56 62 63 64 64 64 64 64 64 64 64 62 61 60 60 60 60 61 59 58 52 53 44 48 46 38 36 36 39 42 49 49 49 48 49 51
41 42 42 40 40 40 36 37 38 39 46 56 60 62 63 63 63 64 64 63 61 60 60 60 60 59 58 54 50 52 46 45 42 39 34 35 38 42 47 47 47 47 48
44 43 41 41 41 41 41 39 37 35 35 38 43 46 44 49 56 60 62 62 62 61 60 60 60 59 58 58 52 49 48 43 46 46 38 35 35 37 41 45 46 46 45
43 41 42 43 43 44 43 42 41 40 41 41 42 41 42 44 46 50 57 60 61 61 61 60 60 59 59 59 56 52 48 47 43 42 46 44 42 40 41 40 43 44 44
42 42 42 42 42 42 41 42 42 42 42 42 43 44 45 47 49 50 55 58 60 60 60 60 59 59 59 58 57 54 52 50 47 45 43 45 44 44 44 43 43 43 43

GFSSE_sfc_30mbdewp_048.txt.gz
Dewpoint
66 70 73 72 72 72 72 71 71 71 70 69 69 68 67 67 66 68 68 67 66 66 66 66 65 65 65 66 66 65 63 63 63 65 65 64 62 62 62 61 61 62 65
67 71 73 72 71 72 72 72 72 71 70 68 68 67 66 66 66 68 67 65 64 64 64 65 65 64 64 65 65 64 63 61 61 62 62 62 63 62 61 62 61 62 65
69 71 72 72 73 73 73 72 71 71 70 69 67 67 66 66 66 68 66 66 65 64 63 63 63 63 63 65 65 64 63 63 63 64 63 63 63 61 62 63 62 63 63
71 72 72 73 73 73 73 72 72 71 70 68 68 66 65 66 67 69 67 66 65 62 61 61 61 61 62 63 63 62 62 62 62 62 62 63 64 62 61 64 66 66 65
71 72 73 73 73 73 72 72 71 70 69 69 67 64 66 68 68 69 67 66 64 62 61 62 61 60 61 61 62 63 63 62 61 60 62 62 64 64 66 67 66 66 66
71 72 73 73 73 73 72 72 71 69 69 68 65 64 69 68 69 69 67 65 63 62 63 63 63 62 62 62 63 63 63 63 60 61 61 61 63 66 66 66 65 64 64
70 71 73 73 73 73 72 72 70 69 68 66 63 64 69 69 68 67 66 65 63 63 64 64 63 63 63 63 63 61 63 61 59 58 57 57 60 66 65 64 63 62 61
70 71 71 73 73 72 72 72 70 69 68 65 64 66 68 68 67 66 65 65 64 64 64 63 63 62 63 63 62 58 62 58 56 55 56 56 59 62 65 63 61 60 60
70 70 71 71 72 71 72 71 70 69 67 65 65 66 66 65 67 66 66 65 64 65 63 62 61 61 63 62 61 56 58 55 53 51 52 54 57 58 64 63 61 61 60
67 67 67 69 69 70 70 70 69 69 67 66 66 66 65 64 64 65 66 65 65 65 62 61 60 61 61 60 57 52 51 52 52 58 61 61 59 60 64 62 61 60 59
65 64 65 65 66 67 68 68 68 67 66 66 66 65 65 64 65 65 65 65 66 65 62 61 59 60 59 56 54 49 44 43 46 58 61 63 63 63 64 63 60 60 59
63 63 64 64 64 64 65 67 67 66 66 65 65 64 63 63 64 65 64 65 65 65 62 60 59 59 55 47 43 40 38 40 47 55 61 64 64 64 64 63 58 57 57
63 63 63 64 64 64 64 66 66 65 65 65 64 63 62 62 63 64 63 64 65 66 62 61 59 56 50 45 42 39 34 39 44 57 61 64 66 65 64 61 58 57 58
62 63 63 64 63 63 64 64 66 65 64 63 63 63 62 61 62 63 62 63 64 64 63 60 58 57 53 48 45 44 43 38 45 57 60 63 65 64 63 60 60 60 58
62 62 63 63 63 63 63 63 64 65 64 63 63 62 62 60 60 60 61 61 63 63 63 62 60 58 56 54 51 48 43 38 39 47 59 61 63 64 62 60 60 58 57
62 62 63 63 63 63 63 63 63 64 65 64 63 62 62 61 59 59 59 60 61 62 62 62 61 59 59 57 55 51 44 37 37 42 54 59 61 62 62 60 59 58 56
62 63 63 63 63 62 62 62 62 63 64 64 64 63 62 61 60 59 59 59 60 61 62 62 61 60 59 58 55 51 45 40 37 39 48 56 58 61 62 61 59 59 58
62 62 63 64 64 62 61 61 62 62 63 64 64 64 64 62 61 60 59 59 59 60 61 61 61 60 59 58 57 55 50 43 38 36 43 52 56 58 60 62 61 59 58
61 62 62 63 64 64 62 62 62 62 61 61 63 63 63 64 63 62 61 60 60 60 59 59 60 60 59 58 57 55 51 47 41 37 38 46 52 56 57 59 60 60 59
59 61 62 63 63 64 64 64 64 63 63 62 62 61 61 62 63 62 62 61 61 61 60 59 59 58 58 58 56 53 50 47 44 39 38 43 49 53 55 56 56 57 58
43 48 57 61 62 64 64 63 63 63 63 64 64 65 64 61 60 61 62 62 61 61 61 61 61 60 59 55 55 55 53 47 44 42 40 39 43 50 52 53 53 53 54
38 39 40 42 41 50 60 62 63 63 63 63 64 64 64 64 64 62 61 60 60 60 60 60 60 59 59 55 57 50 52 50 45 40 38 38 39 45 48 50 50 51 51
40 41 40 40 40 39 37 38 39 40 42 49 57 60 60 59 63 63 64 63 62 60 60 59 59 59 58 55 53 56 49 48 45 45 38 36 36 39 44 48 48 49 49
43 42 41 41 41 42 41 39 37 36 35 38 40 42 42 43 45 51 58 61 62 61 61 60 59 59 58 58 53 52 51 47 49 48 43 39 38 37 38 43 46 47 47
42 41 42 43 43 43 43 42 41 40 41 42 43 44 45 47 48 49 48 53 57 59 60 60 59 59 58 58 56 53 51 48 45 46 47 48 45 43 41 40 42 45 45
42 42 42 41 41 41 41 41 41 42 42 42 43 43 44 45 46 50 53 56 58 58 59 59 59 59 59 58 58 56 54 51 49 48 46 45 46 46 44 44 43 42 44

GFSSE_sfc_30mbdewp_051.txt.gz
Dewpoint
66 70 73 72 72 72 72 71 71 70 69 68 68 68 67 67 68 68 68 67 66 66 66 64 65 67 67 66 65 64 62 62 64 65 64 64 63 61 61 61 62 64 67
66 70 73 72 72 72 72 72 71 70 69 68 68 67 66 67 69 67 66 65 64 64 65 65 65 65 65 65 64 63 61 61 61 62 63 62 64 62 62 62 62 64 65
68 70 71 72 72 72 73 72 71 71 70 68 68 67 66 67 69 66 66 66 64 63 64 64 64 65 65 65 64 64 64 64 63 64 64 64 61 62 63 64 63 63 64
69 69 70 73 73 73 73 72 71 70 69 68 67 66 66 67 69 67 66 66 62 62 62 62 62 64 64 63 63 63 62 63 62 63 62 65 64 63 64 67 67 66 66
69 69 71 73 73 73 73 72 71 70 69 68 66 65 67 67 69 67 67 64 62 62 62 61 61 63 62 63 64 63 63 62 62 61 62 65 65 66 67 66 65 65 65
70 70 72 73 73 73 73 72 71 69 69 67 65 66 69 68 69 68 66 64 63 63 63 63 63 63 63 63 63 63 64 63 61 60 58 61 65 66 66 65 64 63 63
69 70 71 73 73 73 72 72 70 69 68 65 64 68 69 69 69 67 66 64 63 64 64 63 63 63 63 63 62 62 63 61 58 56 56 58 61 66 65 64 62 61 61
69 71 70 72 73 72 72 71 70 69 67 65 65 68 69 67 67 66 65 64 64 64 64 63 63 63 63 63 60 61 62 57 55 54 55 56 59 62 64 62 61 60 60
70 70 70 70 71 72 72 71 70 69 67 65 67 69 68 67 67 66 66 65 64 64 63 62 62 63 63 62 58 59 58 56 54 52 53 55 56 59 64 62 61 59 60
69 69 69 70 69 70 71 70 69 68 67 66 67 66 65 65 66 65 66 65 65 64 62 61 61 61 61 59 56 53 53 52 52 57 59 60 59 62 64 62 59 57 58
67 67 68 68 68 69 70 69 68 67 66 66 66 65 64 64 64 65 65 65 66 65 62 60 60 61 59 56 54 50 44 45 45 53 58 63 64 64 65 63 59 58 58
65 65 65 66 67 68 68 68 68 67 65 65 65 65 64 64 64 65 64 65 65 65 62 60 59 59 53 47 45 41 40 41 44 52 58 62 65 64 65 63 58 57 56
65 64 64 64 65 65 66 67 67 66 65 65 64 63 62 63 64 65 64 64 65 66 63 61 60 56 51 47 45 42 37 39 43 49 57 62 65 66 65 63 59 57 59
63 64 64 64 64 64 64 66 66 65 65 64 64 63 62 61 62 63 63 63 64 64 65 63 60 59 56 52 48 46 45 43 40 50 56 60 63 65 63 60 60 60 59
63 63 63 64 64 63 64 65 66 65 64 64 63 63 62 61 60 61 61 62 63 64 64 63 62 60 59 58 56 53 50 45 40 41 49 58 61 64 65 62 61 60 58
63 63 63 63 64 63 63 64 64 65 65 64 63 63 62 61 60 60 59 60 61 62 63 62 62 61 60 60 59 57 53 47 41 40 43 49 58 62 63 63 60 60 58
63 63 63 63 63 63 63 63 63 63 64 65 64 63 63 62 61 60 59 59 59 61 61 62 62 62 61 60 59 58 56 51 45 41 41 46 52 58 61 63 61 60 59
63 63 63 63 63 63 62 63 63 63 63 64 64 64 64 63 62 61 60 60 60 60 60 61 61 60 60 60 59 59 58 56 53 48 42 42 47 52 56 61 62 61 59
62 62 63 64 64 63 63 62 62 62 62 62 63 63 64 64 63 62 62 62 61 60 60 60 60 60 59 59 59 59 58 57 56 53 48 44 43 48 52 56 60 62 62
61 62 62 63 64 64 64 63 63 62 63 62 62 62 62 63 63 63 63 63 62 61 61 60 60 60 59 59 59 58 57 56 55 53 52 48 46 47 49 52 54 57 60
52 58 61 62 63 63 64 64 64 63 64 64 64 63 63 62 62 62 63 62 62 61 61 61 61 60 60 59 57 58 57 56 54 52 50 47 46 45 47 49 51 54 56
41 44 48 58 57 62 63 63 63 63 64 64 64 64 65 65 64 63 62 61 61 61 61 61 61 60 60 58 58 53 54 52 50 48 45 43 42 42 43 46 47 49 52
40 41 41 41 40 40 44 46 45 45 45 50 56 58 53 47 56 63 64 63 63 61 61 61 61 60 59 57 57 57 51 49 48 51 45 41 40 40 41 44 46 48 49
42 41 41 42 42 42 41 38 37 37 37 39 41 43 44 45 46 47 52 58 61 62 61 61 61 60 59 58 55 54 54 51 51 49 49 43 44 44 42 42 43 45 46
42 42 43 43 43 43 43 42 42 41 42 43 43 44 45 46 47 51 53 51 53 56 59 60 60 60 59 59 57 54 53 51 50 50 47 49 49 49 47 45 43 43 44
42 43 42 41 41 41 41 42 42 42 42 43 43 43 44 45 46 48 52 55 57 58 58 58 59 59 59 58 58 56 54 53 50 49 47 47 47 49 47 46 46 45 45

GFSSE_sfc_30mbdewp_054.txt.gz
Dewpoint
65 68 73 72 72 71 71 71 71 71 70 69 68 67 68 68 69 68 67 67 66 66 65 66 68 67 66 65 64 62 61 62 63 63 65 64 62 61 61 63 65 64 65
63 66 73 73 72 72 72 71 70 69 69 69 68 67 68 69 68 66 65 64 64 65 65 65 66 66 65 65 63 62 62 63 65 65 63 62 63 63 63 63 64 66 66
64 65 68 73 73 72 72 71 70 69 69 68 67 66 68 68 66 67 66 64 63 64 64 65 65 65 65 65 64 64 63 63 64 64 64 59 58 63 66 65 64 63 65
64 65 66 73 73 73 72 71 71 69 69 68 67 66 67 69 67 67 66 62 62 63 63 64 65 65 64 64 63 63 63 63 63 60 61 61 61 66 67 67 66 66 65
64 64 67 72 73 72 72 72 71 69 69 67 66 66 67 69 68 67 65 62 63 62 62 63 64 63 64 64 64 64 63 62 60 54 62 65 64 66 66 65 64 64 64
64 64 71 73 73 73 72 72 70 69 68 67 65 68 67 69 68 67 64 63 64 63 63 63 63 64 64 64 64 64 63 61 58 50 55 62 66 66 65 64 63 62 62
63 66 69 73 73 73 72 72 70 69 67 65 66 69 68 69 68 66 65 64 64 64 63 63 64 64 64 63 62 63 62 59 52 50 50 52 62 66 64 62 62 61 61
63 66 68 72 73 72 72 71 70 69 67 64 67 70 70 68 67 66 65 64 65 64 63 63 63 63 63 62 60 64 60 56 52 49 51 51 59 64 63 62 61 60 60
65 65 68 68 70 72 71 70 70 69 66 65 68 69 68 67 67 66 65 64 65 64 63 63 63 63 63 61 58 61 58 54 49 49 51 54 57 61 63 62 60 59 59
67 67 66 67 66 67 69 69 69 68 66 67 68 66 66 67 66 66 66 65 65 64 62 61 61 62 61 60 56 54 52 49 47 50 52 57 61 63 64 62 58 57 58
65 66 65 66 64 66 69 68 68 67 66 66 66 64 64 61 62 64 65 65 66 63 62 60 61 61 58 56 54 51 45 45 43 45 50 61 64 64 65 62 58 58 59
63 64 65 65 64 65 69 67 67 65 63 63 61 60 57 58 59 61 63 65 66 65 62 60 60 59 53 46 46 44 41 40 40 45 49 59 64 65 65 63 59 58 58
61 62 64 66 65 65 66 67 66 64 63 63 62 61 57 57 60 60 59 59 60 64 62 61 60 56 52 48 47 45 43 40 40 43 49 58 63 65 65 64 59 58 59
62 62 64 64 65 65 65 65 64 63 63 63 63 62 59 57 58 57 56 56 58 60 60 61 59 58 58 56 53 51 49 47 44 42 46 54 61 64 65 62 60 60 60
63 64 64 64 64 64 65 65 64 63 63 63 63 63 61 60 59 57 55 55 56 58 58 59 60 58 58 58 57 56 55 53 49 44 44 51 56 61 64 64 62 61 60
64 64 64 64 64 63 63 64 64 64 63 63 63 63 62 61 60 59 58 56 55 57 59 59 59 60 60 60 59 59 57 56 52 49 47 47 50 55 61 63 62 60 61
63 64 63 63 63 62 62 62 62 63 63 62 62 63 62 62 61 60 60 60 59 58 59 60 60 61 60 60 60 59 59 58 57 54 51 49 49 52 55 60 61 61 60
63 63 63 63 63 62 61 61 60 60 61 61 62 62 63 62 62 62 61 61 61 60 60 60 60 60 60 60 60 59 59 59 59 58 58 54 51 50 52 56 60 61 60
63 63 63 64 63 63 63 62 62 61 62 62 62 62 63 63 62 62 62 62 62 61 61 61 60 60 60 60 60 59 59 59 59 58 58 57 55 52 50 50 56 59 63
62 63 63 64 64 64 64 63 63 62 61 61 61 62 62 62 62 63 62 63 63 62 62 61 61 61 61 60 59 59 59 59 59 58 57 55 55 53 52 51 51 51 56
57 61 62 63 64 64 64 63 63 63 63 63 63 63 63 63 62 63 63 63 63 63 62 62 61 61 61 62 60 59 59 57 57 55 55 53 51 51 50 50 49 49 49
43 57 60 61 62 63 63 63 63 64 64 64 65 65 65 65 65 65 65 64 64 64 63 62 62 61 61 61 59 56 53 49 51 52 51 49 48 47 46 46 47 46 47
41 46 50 54 58 60 63 61 59 59 58 60 62 63 58 51 55 61 64 65 64 64 62 63 63 62 61 60 60 58 52 45 50 51 51 48 47 45 46 46 46 47 47
43 43 43 43 44 43 44 51 55 57 55 45 43 44 45 46 47 47 47 50 55 59 61 61 61 61 61 58 58 58 58 56 53 51 51 49 51 49 49 49 47 47 46
43 44 44 43 43 43 43 42 41 41 42 43 43 44 45 45 47 49 52 53 51 50 53 55 56 57 59 58 59 56 56 54 53 52 50 48 49 48 49 49 48 47 47
44 45 44 42 42 43 43 43 43 43 42 43 43 43 44 45 46 47 48 53 55 56 57 57 58 58 58 59 60 58 55 54 53 51 50 49 48 48 49 49 47 45 44

GFSSE_sfc_30mbdewp_057.txt.gz
Dewpoint
64 69 73 72 71 71 70 70 70 70 70 68 68 67 67 69 68 67 66 66 65 66 67 68 67 66 65 63 62 61 61 61 63 64 64 64 63 62 64 65 64 64 65
64 68 73 72 71 71 71 70 70 70 69 69 67 68 69 67 66 65 64 64 65 64 67 67 66 65 65 64 64 63 64 65 65 64 63 62 64 65 64 64 65 64 66
63 67 70 73 72 72 71 70 70 69 69 68 67 68 67 66 67 65 63 64 65 65 65 67 65 65 65 64 64 63 63 63 63 63 64 59 64 67 66 64 66 66 66
62 66 68 73 72 72 71 71 70 69 68 68 67 68 68 67 66 65 62 63 64 64 65 65 65 65 64 64 63 63 62 61 59 60 63 64 64 67 67 66 65 65 64
61 63 69 73 73 72 71 71 70 69 68 67 66 67 69 68 67 64 62 63 62 62 64 64 64 65 64 64 64 63 62 61 58 58 64 65 64 66 65 65 63 63 63
60 62 71 73 73 72 72 71 69 69 67 66 66 67 69 69 67 65 63 64 63 63 63 64 64 64 64 64 64 63 62 61 59 49 57 64 66 65 64 63 63 62 62
60 66 68 73 72 72 72 71 70 69 66 65 68 69 69 68 67 65 64 64 64 63 63 64 64 64 64 62 64 63 60 57 49 49 49 53 63 65 63 62 62 61 61
60 66 67 72 72 72 72 71 70 68 65 66 69 69 70 68 67 66 64 65 64 64 63 63 63 64 63 60 63 63 60 57 49 49 52 52 61 65 63 61 60 60 60
62 63 67 69 70 72 71 71 70 68 65 66 69 70 68 67 67 66 65 65 65 64 63 63 63 63 63 59 60 61 57 52 50 50 51 54 59 63 63 61 60 58 59
61 64 67 66 67 68 69 69 69 67 66 69 68 67 67 67 67 66 65 65 65 63 62 61 62 62 61 59 56 53 51 50 46 48 51 58 61 63 64 61 58 58 59
65 64 67 65 63 65 66 67 68 66 66 67 66 65 64 60 63 63 65 66 65 63 61 60 61 61 58 56 54 52 50 46 42 45 49 60 64 64 66 63 59 58 59
64 65 66 66 61 66 67 66 66 64 62 61 58 60 57 56 57 61 63 65 66 64 61 60 60 59 53 48 50 47 44 41 41 44 49 56 62 65 65 64 60 59 59
62 64 64 65 64 68 66 66 66 63 62 62 60 58 53 54 58 58 59 60 61 64 62 61 60 56 52 50 48 47 46 45 43 43 51 52 60 63 65 65 61 58 59
59 59 60 64 65 65 65 66 65 63 60 61 61 60 57 54 56 55 55 55 56 59 59 59 57 56 57 56 54 53 51 50 49 46 47 51 54 60 64 64 61 61 60
59 60 61 63 63 64 65 65 64 63 60 60 60 61 59 58 57 54 52 52 53 54 56 56 58 57 57 58 57 57 56 55 54 50 48 51 50 55 60 63 63 63 61
63 62 62 62 62 63 64 64 64 64 60 59 60 61 61 59 59 58 56 54 52 54 56 57 58 59 59 59 58 58 58 58 57 54 52 51 48 50 55 60 61 60 60
63 63 63 63 63 63 63 62 62 62 60 59 59 60 60 60 60 59 59 59 58 56 57 58 59 59 59 59 59 59 59 59 58 58 57 55 53 51 52 55 57 59 60
62 63 63 62 62 60 59 60 60 59 59 59 60 60 61 60 61 61 61 61 61 60 60 59 59 59 59 59 59 59 59 59 58 58 58 58 57 54 55 54 56 57 59
62 62 63 63 63 62 61 61 60 59 60 60 60 61 61 61 61 61 61 61 61 61 61 61 60 60 60 60 60 60 59 59 58 58 58 58 58 57 55 55 56 56 58
61 62 63 64 63 63 63 62 62 61 60 60 60 61 61 62 62 62 62 61 61 62 62 62 60 61 61 60 59 59 59 60 59 58 57 56 54 55 55 54 54 54 54
59 61 62 63 64 64 64 63 62 62 62 61 61 61 62 62 62 62 63 62 62 62 61 61 61 60 61 61 61 60 60 58 56 56 54 53 51 51 51 50 51 51 51
43 59 61 62 63 64 64 64 63 63 63 62 63 64 64 63 64 64 65 64 64 64 64 62 62 62 62 62 60 58 55 51 52 53 52 51 50 49 48 48 48 48 49
38 48 58 60 61 62 64 64 64 63 62 63 64 64 64 57 58 62 64 65 65 65 64 64 63 62 61 61 61 58 53 48 50 51 52 51 49 49 50 49 48 48 49
40 45 49 53 58 58 61 61 60 60 60 59 53 51 49 47 47 47 47 48 50 57 61 60 61 61 61 59 60 60 59 57 52 50 52 51 50 48 49 49 48 48 48
44 45 45 46 46 46 47 51 54 53 47 44 44 44 44 45 47 47 50 52 53 52 51 52 54 56 58 57 56 56 57 56 54 53 50 50 49 48 47 50 48 48 47
45 46 45 44 43 44 44 44 43 43 43 43 44 43 43 44 45 47 48 49 53 54 55 57 57 57 57 56 56 56 56 54 53 52 51 51 49 49 48 48 46 45 45

GFSSE_sfc_30mbdewp_060.txt.gz
Dewpoint
70 72 73 72 71 71 71 70 69 69 69 68 68 68 69 67 66 66 65 65 67 68 67 66 66 65 63 61 61 62 62 62 62 63 64 65 64 65 66 65 65 66 67
70 72 72 72 71 71 71 70 70 70 70 68 68 69 66 66 64 64 64 66 66 67 67 65 65 65 64 63 63 63 64 65 65 63 64 65 67 65 64 66 67 66 65
68 71 72 72 72 72 71 70 70 70 69 68 69 66 67 65 64 63 64 65 66 67 67 65 65 65 64 64 63 61 61 62 62 63 64 66 67 66 67 66 66 65 65
68 70 71 73 72 72 71 71 70 69 68 67 69 68 67 66 63 63 64 64 65 65 65 65 65 65 64 64 63 61 60 60 61 65 65 65 66 67 66 64 64 64 64
67 67 72 73 72 72 71 71 69 68 68 67 68 69 69 67 64 62 63 63 64 65 65 65 65 65 65 64 64 62 61 61 58 64 65 65 65 65 64 64 63 63 62
64 70 73 73 72 72 71 71 69 68 67 67 68 70 69 67 64 63 64 63 63 64 64 65 65 64 64 64 63 62 60 59 56 50 64 66 65 64 63 63 62 62 61
68 70 72 73 73 72 72 70 69 67 66 67 68 69 69 67 65 64 65 64 63 64 64 64 64 64 62 64 63 62 60 57 54 51 53 63 65 64 63 62 60 61 59
67 69 71 73 72 72 72 71 69 66 66 69 69 70 68 67 66 64 65 65 64 63 63 63 64 64 62 62 64 61 58 55 52 51 54 58 65 64 62 61 59 59 59
66 68 70 71 72 72 71 70 69 66 67 70 70 70 69 68 66 65 65 65 64 64 63 63 63 63 62 59 60 58 54 52 51 51 55 57 62 64 63 61 60 60 59
64 66 68 69 70 70 70 69 68 66 69 68 68 67 67 67 67 65 65 65 64 63 62 62 63 62 61 59 55 52 50 50 48 48 59 59 62 64 64 61 59 59 59
65 67 68 68 68 68 68 68 67 65 68 67 66 66 65 65 66 64 65 66 64 62 61 61 62 60 58 56 53 51 50 48 43 46 58 61 63 65 66 63 59 59 59
65 66 65 64 66 67 67 67 65 64 64 63 65 64 64 62 63 64 64 65 65 62 61 60 60 58 55 54 52 49 46 44 42 43 55 55 60 63 65 65 60 59 59
65 66 67 66 65 67 66 66 65 64 63 62 59 58 58 59 60 62 63 63 64 64 62 61 59 57 54 52 51 49 47 47 46 45 52 51 56 61 64 66 62 58 59
65 65 65 65 67 68 66 66 65 63 63 61 62 59 55 54 58 57 61 60 61 63 63 61 61 59 58 57 55 53 53 51 51 49 51 51 51 56 60 65 62 61 61
62 63 65 64 65 67 66 66 65 63 62 62 62 61 59 57 56 56 54 55 55 57 58 58 58 58 57 57 58 57 57 56 56 54 50 51 51 52 56 60 64 63 62
63 62 64 64 64 65 66 65 65 64 63 60 61 61 61 60 59 58 56 53 53 55 57 57 58 59 59 59 59 59 59 58 58 57 54 53 50 50 52 54 58 59 60
64 63 63 62 62 63 64 64 64 64 63 60 60 61 61 60 60 60 59 58 56 55 56 58 59 59 59 60 59 59 59 59 59 59 58 55 54 51 52 55 55 57 59
63 63 64 64 64 63 63 63 63 63 62 60 60 61 61 60 61 61 60 61 61 60 59 59 60 60 60 60 58 59 59 59 59 59 59 59 59 56 54 54 56 57 57
62 63 63 63 62 61 61 60 60 59 60 60 60 61 61 60 60 61 62 62 62 62 61 61 60 59 59 60 60 60 60 59 59 59 58 58 58 58 56 56 56 56 57
61 62 63 63 63 63 62 62 61 61 60 61 61 61 62 62 62 62 62 62 60 61 61 61 61 61 61 61 59 60 61 61 60 60 58 58 56 53 54 54 56 55 54
60 61 63 63 63 63 63 62 62 61 62 61 61 62 62 62 62 63 63 61 62 62 62 62 61 60 59 61 60 60 59 60 59 58 58 56 51 50 49 49 50 50 50
39 61 62 63 64 64 64 64 64 63 63 63 63 62 63 64 64 65 65 65 65 64 64 64 63 62 61 62 60 58 54 53 53 57 52 52 49 49 48 48 48 49 49
37 48 61 63 63 64 64 64 64 63 63 63 64 64 62 56 55 58 62 64 64 64 64 64 63 62 61 61 61 57 52 50 52 52 52 51 49 49 50 49 48 48 49
39 43 51 59 62 62 64 63 62 61 61 60 55 52 50 48 48 48 48 48 49 53 60 62 61 61 60 58 60 60 58 57 53 48 52 51 49 48 48 49 49 48 48
44 45 47 50 53 52 55 58 60 60 49 46 45 45 46 47 47 48 50 50 53 53 52 51 52 57 58 57 56 55 55 55 55 53 50 50 50 49 48 48 46 45 45
46 46 46 46 46 46 47 48 50 50 45 44 44 44 44 45 46 47 48 50 51 53 55 56 56 56 56 56 56 54 53 54 53 53 52 51 50 50 49 46 45 44 45

GFSSE_sfc_30mbdewp_063.txt.gz
Dewpoint
70 72 73 72 71 71 70 70 69 69 69 67 69 68 66 66 66 66 67 69 68 67 66 66 65 63 62 62 62 62 63 63 63 65 66 67 65 65 67 66 67 66 65
71 72 73 72 71 71 70 70 71 70 69 69 68 66 65 64 64 65 66 67 67 66 65 65 65 63 62 61 63 65 65 65 64 64 66 68 66 67 66 66 65 66 66
71 71 72 72 72 71 71 71 71 70 69 69 67 66 65 63 63 64 64 66 67 66 64 65 64 64 64 62 60 61 61 61 62 63 64 67 67 66 65 65 64 64 64
71 71 72 72 72 72 71 70 70 68 68 69 68 66 65 63 63 64 65 64 64 64 65 65 64 64 64 63 61 61 61 62 65 66 66 66 65 65 65 64 63 63 63
70 71 72 72 72 72 71 70 68 68 68 70 69 68 65 62 63 63 64 65 64 65 65 65 65 65 65 63 62 61 60 60 63 65 66 65 64 63 63 63 62 62 61
69 72 72 72 72 72 71 69 68 67 67 69 70 68 66 63 63 63 64 64 65 65 65 65 64 65 64 63 62 61 61 58 52 62 66 66 64 63 63 61 61 59 58
71 72 72 72 72 71 71 70 68 67 67 68 70 68 67 65 64 64 64 64 65 64 64 65 64 63 64 64 62 61 59 55 52 58 62 65 64 63 62 60 60 59 58
71 72 72 72 72 71 71 70 68 67 68 69 70 69 67 66 64 65 65 64 63 63 64 64 64 62 62 63 62 59 56 55 52 54 58 64 65 63 62 61 60 60 60
71 71 72 72 72 71 70 69 67 68 70 70 70 69 68 67 65 64 65 64 64 63 63 63 63 63 61 59 58 54 52 52 50 54 55 60 64 64 62 61 60 60 60
69 70 71 71 71 70 69 67 66 69 69 70 70 69 68 67 66 65 66 65 63 63 62 63 63 62 60 58 55 52 51 51 48 56 57 60 63 64 64 61 59 60 60
67 68 70 70 70 69 68 66 65 69 67 67 66 66 66 66 65 64 65 65 63 62 61 61 61 59 57 55 53 50 50 46 45 51 58 62 63 64 66 63 60 60 60
66 68 68 68 68 68 67 65 64 66 67 65 65 65 65 65 64 64 64 64 63 62 60 60 59 57 55 54 53 51 47 45 43 44 56 58 60 62 65 65 61 60 60
66 67 67 67 68 67 66 66 63 62 62 63 65 64 63 62 64 64 64 64 64 62 60 60 59 57 53 52 51 49 49 46 47 47 51 54 56 58 62 65 62 60 60
64 65 65 66 67 66 65 66 64 63 63 61 60 60 57 60 61 62 62 61 61 63 62 61 60 59 57 56 55 54 53 50 50 51 49 52 52 55 57 65 65 61 61
64 65 64 66 68 66 65 66 64 63 62 62 60 59 55 56 57 57 59 60 60 61 62 62 61 59 58 57 57 56 56 56 56 55 50 51 51 53 54 56 62 63 62
63 64 64 65 67 66 66 66 65 64 63 62 62 61 58 57 56 56 55 55 55 56 57 57 57 59 59 59 59 59 59 58 58 57 56 53 53 52 54 55 56 58 60
62 64 64 64 65 66 66 66 65 64 64 61 61 61 61 60 58 58 58 55 54 54 55 57 58 59 59 60 59 59 59 59 59 59 58 56 55 54 53 56 57 57 58
64 62 63 64 64 64 65 65 65 64 63 62 61 61 61 61 60 60 60 60 59 57 57 58 59 59 59 60 59 59 60 60 60 59 59 59 59 57 54 56 57 57 58
63 63 63 64 64 64 63 64 63 63 62 61 60 61 61 61 61 61 61 61 62 61 61 60 60 60 59 59 60 60 60 60 60 60 59 58 58 58 57 56 57 57 56
62 63 64 64 63 63 62 62 61 60 60 60 60 61 61 61 60 61 61 62 62 61 61 61 61 61 61 59 60 59 60 60 60 60 60 59 56 54 53 53 54 54 54
61 63 63 63 63 62 62 61 60 59 61 60 61 61 62 62 62 61 62 62 62 62 61 62 61 61 60 61 59 59 59 59 59 58 59 56 50 49 49 49 49 50 52
58 61 63 63 63 63 63 63 63 62 62 62 62 62 63 64 65 64 64 63 64 63 63 63 63 62 61 61 58 58 56 53 53 54 54 50 49 49 48 48 49 49 51
44 60 62 63 63 63 64 64 64 63 63 63 63 63 59 57 55 57 61 63 64 64 63 63 63 62 59 60 61 58 54 49 52 52 52 50 49 49 49 48 48 49 48
37 47 62 63 63 64 64 64 63 62 61 62 62 56 50 51 50 49 49 49 49 50 54 59 61 60 59 58 59 60 59 56 52 49 52 52 50 48 50 48 48 47 45
39 46 56 60 60 59 62 63 62 61 59 51 50 49 48 48 48 48 49 49 51 53 53 51 51 52 58 57 56 56 56 55 54 52 50 50 50 49 49 47 46 45 45
45 46 48 52 51 54 55 57 60 57 50 48 47 46 45 46 47 47 48 50 50 52 54 56 56 55 55 55 55 56 53 52 52 52 51 51 50 50 47 45 45 45 45

GFSSE_sfc_30mbdewp_066.txt.gz
Dewpoint
69 72 72 71 71 71 70 70 69 68 68 69 68 67 67 67 68 69 69 68 67 66 66 64 62 62 63 63 64 64 64 66 67 67 66 67 67 67 66 65 65 65 65
71 72 72 71 71 71 70 70 69 69 69 68 65 64 64 66 67 68 68 67 66 66 65 63 62 61 64 65 66 66 65 64 65 66 67 68 67 66 65 63 64 63 66
71 72 72 72 71 71 70 69 69 70 69 67 65 63 63 64 65 66 68 66 65 65 65 64 63 61 62 62 62 62 63 63 63 66 67 66 66 64 63 62 63 64 64
71 72 72 72 71 71 70 69 69 69 69 68 65 63 63 64 63 65 65 64 65 65 64 64 64 63 62 62 62 61 65 67 66 66 66 65 64 63 63 63 62 62 63
70 71 72 72 71 71 70 69 68 70 69 68 66 63 63 64 65 65 64 64 65 65 65 65 65 64 63 62 61 61 61 66 66 65 65 64 63 63 62 62 60 60 60
70 72 72 72 71 71 70 69 68 70 69 69 67 63 63 63 64 65 64 65 65 65 65 65 64 64 63 62 61 60 59 56 64 65 65 65 63 61 61 60 59 58 57
71 72 72 72 71 71 69 69 68 69 70 69 67 65 63 63 63 64 65 65 65 65 65 64 64 64 64 63 61 59 58 54 58 61 64 64 64 62 62 61 61 60 59
71 71 71 71 71 71 69 69 68 68 70 70 68 66 64 64 64 64 65 65 65 64 65 64 63 63 64 62 60 57 55 54 52 57 63 64 64 63 62 61 61 61 60
71 71 71 71 71 70 69 69 68 69 69 70 69 68 66 64 65 64 64 64 63 64 64 64 63 62 60 59 55 53 52 55 50 55 58 63 65 64 62 61 61 61 60
70 71 71 71 71 69 68 67 69 70 70 70 69 68 67 65 65 65 65 65 64 63 64 63 63 61 60 57 54 52 52 49 48 55 56 58 64 64 64 61 60 61 60
69 69 70 69 70 68 67 66 69 69 70 70 68 67 67 66 65 66 65 64 63 63 62 62 61 60 56 54 53 52 49 45 44 55 58 61 63 64 65 65 60 61 60
67 68 69 69 69 68 65 65 68 67 67 67 66 66 65 65 64 64 64 63 62 62 61 61 60 58 55 53 52 51 48 45 44 46 56 61 61 61 64 65 62 61 60
66 68 69 69 68 67 65 63 64 66 66 65 65 65 64 64 63 64 63 63 62 61 59 60 59 57 53 52 51 51 49 47 48 47 49 57 58 56 58 63 66 62 61
65 66 68 68 68 67 66 63 62 61 63 64 64 64 62 62 63 63 63 62 62 62 60 60 59 59 57 55 54 53 53 52 49 51 49 55 55 55 56 61 65 63 61
63 64 67 67 67 66 65 65 63 62 61 61 60 61 59 61 62 62 61 61 60 61 61 61 61 60 60 59 57 57 56 56 55 55 53 51 53 54 55 56 61 64 63
63 65 66 67 67 66 65 66 64 63 63 62 61 59 56 59 58 58 57 60 59 59 61 60 61 60 59 59 59 59 59 58 58 57 57 54 53 54 56 56 57 58 59
64 65 65 66 67 66 65 66 65 64 63 62 62 60 57 56 56 56 56 54 56 55 57 57 57 59 59 59 59 59 59 60 59 59 59 58 57 56 56 57 58 57 58
62 63 65 65 67 66 66 66 66 65 64 63 62 61 60 59 58 58 58 58 56 55 55 56 58 59 59 59 59 59 60 60 60 60 59 59 59 58 57 57 59 58 58
63 64 64 64 65 66 66 66 65 65 63 63 62 61 61 61 60 60 60 60 61 60 58 58 59 60 59 58 59 59 60 59 60 60 60 60 59 58 57 57 57 56 56
63 63 64 64 64 64 64 64 64 64 62 62 61 61 61 61 61 61 61 61 62 62 61 61 60 61 61 60 60 59 58 60 59 58 59 60 56 55 54 53 52 56 59
63 63 63 63 63 63 62 62 61 61 60 60 61 61 61 61 60 60 61 61 62 61 61 61 61 60 60 61 59 57 58 58 59 58 57 58 52 50 49 49 50 53 54
61 62 63 63 63 62 62 62 61 60 61 60 61 62 62 62 62 62 62 62 63 63 62 62 62 61 61 61 57 57 54 53 53 53 53 50 49 49 48 49 49 51 49
58 61 62 63 63 63 63 63 63 62 63 62 62 62 62 63 64 64 64 64 64 64 63 63 63 62 59 59 60 57 53 50 52 52 50 49 49 49 48 49 49 48 47
45 57 62 63 63 63 63 63 62 61 60 62 62 60 54 53 53 53 51 51 51 52 53 55 60 59 58 56 57 59 59 57 52 50 51 52 50 50 48 48 48 45 44
37 41 57 62 63 63 64 63 63 61 61 59 57 55 55 54 53 53 52 51 51 52 53 52 51 51 55 57 56 55 55 55 55 53 49 49 50 49 48 46 45 45 44
42 44 53 59 59 59 61 62 62 61 59 55 54 53 52 50 50 50 49 49 50 51 52 54 55 55 55 55 55 55 55 52 51 51 50 50 49 48 45 45 45 44 43

GFSSE_sfc_30mbdewp_069.txt.gz
Dewpoint
69 71 71 71 70 70 70 69 67 68 69 67 67 68 69 70 70 69 68 67 66 65 63 62 62 63 65 65 65 66 66 65 66 67 68 67 66 64 64 65 65 66 67
70 71 71 71 70 70 70 69 68 69 68 66 66 67 69 69 69 69 68 67 65 65 62 62 65 65 65 66 66 65 65 66 66 68 67 66 65 63 62 64 65 65 65
71 71 71 71 70 70 70 69 69 69 67 65 64 66 67 69 69 68 66 65 65 64 62 62 64 64 64 63 63 64 64 65 67 68 66 65 63 63 63 62 63 64 64
71 71 71 71 70 70 69 69 70 68 66 64 63 64 65 66 68 67 66 65 64 64 64 62 63 63 63 62 64 67 67 65 66 65 64 63 63 62 62 61 61 61 62
71 71 71 71 71 70 69 69 69 68 66 64 63 64 64 64 65 64 66 65 65 65 65 64 63 63 63 62 62 66 67 67 66 64 64 63 62 61 60 60 59 58 58
70 71 71 71 71 71 70 70 69 68 67 64 63 64 65 65 64 63 65 65 65 65 65 64 63 63 63 62 60 59 63 67 65 65 64 64 61 62 61 61 61 59 58
70 71 71 71 70 70 69 69 70 69 68 66 63 63 64 64 65 64 64 65 65 65 65 64 64 63 62 61 59 59 58 60 61 63 63 63 63 62 62 62 62 61 59
70 71 70 71 70 70 69 69 70 70 69 67 64 63 63 64 64 65 65 65 65 65 64 63 64 64 63 61 58 58 56 53 55 59 63 64 64 63 62 62 62 61 60
70 70 70 71 70 70 69 69 69 70 70 68 67 65 64 64 64 64 65 65 65 65 64 63 62 62 61 58 55 54 55 51 53 56 61 63 65 63 62 61 61 61 60
70 70 70 70 70 69 69 68 69 69 70 69 68 67 65 66 65 64 65 64 64 64 64 64 63 61 59 56 53 52 52 49 51 55 55 58 64 64 63 61 60 61 60
69 68 69 68 69 67 66 68 69 69 70 69 68 67 65 65 65 66 65 65 64 64 63 63 62 60 57 53 53 52 48 45 44 56 57 59 63 62 64 66 61 61 60
67 68 67 68 68 66 65 68 68 68 69 69 67 66 65 64 65 64 64 63 63 62 62 62 61 58 55 52 52 51 48 46 44 45 56 59 62 60 61 65 63 62 61
66 67 67 67 68 66 64 66 67 67 67 67 66 65 64 64 63 63 63 62 62 61 59 60 59 57 53 52 52 51 49 49 47 47 47 55 59 57 57 60 64 63 62
64 66 68 68 67 66 64 63 66 65 65 65 65 64 63 63 62 63 62 62 61 60 58 58 58 58 57 56 54 54 54 53 51 50 51 51 57 56 56 58 63 64 62
63 62 64 67 67 66 64 63 62 63 64 64 64 64 62 61 62 63 62 61 61 60 61 60 60 60 60 59 58 57 56 56 56 55 55 53 54 56 56 57 59 62 63
56 52 61 64 67 66 64 64 63 61 60 61 61 62 61 61 62 62 61 60 59 59 60 61 60 61 60 58 58 59 58 59 59 58 58 57 56 56 58 57 58 58 59
61 60 63 65 66 66 65 65 65 63 63 62 61 60 58 58 60 60 58 57 59 59 58 59 58 58 58 59 59 59 59 60 60 60 59 59 59 58 57 58 58 59 58
61 61 64 65 66 66 66 66 66 64 63 62 62 62 59 56 57 56 56 56 55 55 55 56 57 58 59 59 59 59 59 60 60 60 60 59 59 59 58 58 60 59 58
61 62 62 64 63 63 65 67 67 66 64 63 62 62 61 58 57 58 58 58 59 56 55 55 57 58 59 58 58 59 58 59 59 59 58 59 59 59 58 57 58 56 56
63 64 63 64 65 65 66 66 66 66 65 64 63 62 62 61 60 59 60 60 61 60 60 60 59 60 60 60 59 59 60 59 60 59 58 59 59 56 56 55 57 59 59
63 63 62 63 64 65 64 64 63 63 63 62 62 62 62 61 61 60 61 61 62 61 61 61 61 60 60 60 59 57 57 57 57 56 54 56 54 52 51 50 55 54 56
62 63 63 63 64 63 63 62 62 61 61 61 61 61 61 61 61 61 61 61 62 62 61 61 61 60 60 61 58 56 54 54 52 52 52 52 50 49 49 49 51 50 50
57 61 62 62 63 63 63 62 62 62 62 61 61 61 62 63 63 62 62 63 63 64 62 63 62 62 60 59 59 57 52 50 51 52 50 49 48 49 49 49 48 47 47
42 58 62 62 63 63 63 62 62 61 60 61 61 61 58 57 58 58 58 58 57 55 56 56 60 60 59 58 56 57 58 56 51 49 50 51 50 49 48 49 46 45 45
39 44 58 61 63 63 63 62 62 60 61 61 60 59 57 56 56 56 56 55 54 53 53 52 50 50 54 54 54 54 54 55 56 54 50 50 49 49 47 47 45 44 44
40 42 50 57 61 62 62 63 62 61 60 58 58 57 56 56 55 55 53 51 50 50 51 52 53 54 54 54 54 55 54 53 51 51 51 50 48 47 45 45 45 43 44

GFSSE_sfc_30mbdewp_072.txt.gz
Dewpoint
68 70 71 70 70 69 68 67 67 69 68 68 69 70 70 70 70 69 68 67 65 63 62 63 64 65 66 66 66 64 65 66 68 67 67 66 64 63 64 66 66 66 67
69 71 71 71 70 70 69 67 69 69 67 68 69 69 70 69 69 68 67 66 64 63 64 64 65 66 66 66 66 65 65 67 67 66 65 65 64 63 64 64 64 64 64
70 71 71 71 70 70 69 68 69 68 66 67 68 69 69 69 68 68 66 66 63 62 64 65 65 65 64 64 65 65 66 67 67 66 65 63 63 62 62 62 62 62 63
70 71 70 70 70 70 68 68 69 66 64 65 67 69 69 69 67 66 66 65 63 63 65 65 64 64 64 66 67 66 66 67 66 64 63 63 62 61 60 60 59 59 61
70 70 70 70 70 69 68 70 68 66 64 64 66 67 68 69 67 66 65 65 64 64 64 64 63 63 63 65 67 67 67 66 65 64 63 61 61 61 62 61 60 59 59
70 70 70 70 70 69 70 69 67 66 64 64 65 65 67 66 66 66 65 65 65 65 64 64 63 63 63 62 63 67 67 66 64 64 64 63 62 63 63 62 61 60 59
70 70 70 70 70 69 70 69 68 67 64 64 64 65 63 64 64 64 64 65 65 65 64 63 63 62 62 61 60 60 65 63 62 63 63 63 63 63 63 63 62 61 59
69 70 69 70 70 70 69 69 70 68 65 64 64 64 65 64 64 64 64 65 65 64 64 64 63 62 61 59 59 59 56 57 57 62 63 63 64 63 63 62 62 62 60
70 69 69 70 70 69 69 69 69 69 67 65 65 64 65 65 64 64 65 65 65 64 64 63 63 63 60 57 56 57 54 54 54 58 62 63 65 63 63 62 62 62 60
68 69 69 70 69 69 69 69 69 70 69 67 66 66 65 65 65 65 65 65 65 65 64 64 62 60 58 56 54 54 51 50 54 55 55 57 64 64 63 63 61 62 61
67 68 69 68 68 67 67 68 68 69 69 69 67 65 65 65 65 65 65 65 65 64 64 63 62 60 56 53 54 54 46 44 47 55 56 57 62 62 62 65 61 61 61
66 67 67 67 67 66 66 67 68 68 69 68 66 65 64 64 65 64 64 64 64 64 63 62 61 58 54 52 51 51 48 46 45 44 53 57 62 60 59 63 64 62 61
66 67 67 67 67 64 64 67 67 67 69 67 66 65 64 64 64 63 63 62 62 62 60 60 59 57 53 52 52 51 50 50 48 48 48 52 60 58 57 59 61 64 63
64 66 67 67 67 64 63 66 66 66 67 66 65 65 63 62 61 62 61 61 60 60 57 57 57 57 57 56 55 55 55 54 53 51 51 53 56 58 57 57 60 63 63
60 62 66 67 67 65 62 64 65 66 66 66 65 64 63 62 61 62 62 61 60 59 59 58 59 59 59 59 59 58 57 57 56 56 56 56 56 57 58 57 58 61 63
55 61 61 61 65 66 65 63 63 64 65 65 64 64 63 62 62 62 62 61 60 59 59 60 60 60 60 59 58 58 58 59 59 59 59 58 58 58 59 58 57 58 59
58 59 58 57 62 64 65 64 64 63 62 62 63 63 63 61 61 62 61 60 60 59 59 60 60 58 58 59 59 59 59 59 59 60 60 59 59 59 59 61 60 59 59
59 58 60 59 61 64 65 65 65 65 64 63 62 60 60 59 59 60 59 58 56 59 58 57 57 57 58 59 59 59 59 59 60 60 60 59 60 59 59 58 60 59 59
60 59 60 61 63 65 65 64 64 66 65 64 64 62 61 58 57 58 57 56 56 55 54 55 56 57 58 58 58 59 59 59 59 59 59 58 59 59 59 58 58 57 57
62 61 60 61 62 65 62 65 64 63 66 66 65 62 62 60 57 57 57 58 59 58 57 56 56 58 59 59 60 59 59 59 59 58 58 58 59 57 57 56 57 59 60
62 62 60 61 63 63 62 61 61 61 62 65 65 63 63 62 61 59 59 59 60 60 60 61 61 60 60 61 59 57 56 57 57 53 53 55 56 54 54 55 56 56 56
61 62 60 60 62 61 61 61 61 60 61 63 63 63 63 62 62 61 60 60 61 61 61 61 61 60 60 61 57 55 52 53 52 53 50 51 51 50 50 52 51 50 50
57 60 60 61 62 62 62 63 62 62 62 62 62 61 61 62 62 61 61 61 62 62 62 62 62 61 59 59 58 57 52 49 51 52 50 49 48 48 49 49 48 48 48
40 49 61 62 62 63 63 63 62 61 60 61 62 62 60 62 62 62 62 62 61 60 60 59 61 60 60 58 56 57 57 55 52 47 50 50 49 48 48 48 46 45 47
41 40 48 60 62 62 62 61 61 60 61 61 61 60 59 58 59 59 59 58 58 57 54 53 51 50 54 53 52 53 54 54 54 53 50 50 49 48 48 47 45 44 45
40 41 45 52 59 61 61 62 62 61 60 60 60 60 59 57 57 58 57 57 55 54 53 52 52 53 52 52 53 53 53 51 50 51 50 50 49 47 46 45 45 44 45

GFSSE_sfc_30mbdewp_075.txt.gz
Dewpoint
67 69 71 70 70 69 68 68 70 69 69 69 66 68 70 70 70 70 68 66 65 64 63 64 66 67 64 64 65 66 68 67 66 66 65 65 64 65 65 65 65 65 65
68 69 71 70 69 68 67 68 70 69 69 70 69 68 70 70 70 68 67 65 63 64 64 65 66 65 65 65 65 66 67 67 65 65 64 64 64 63 63 63 63 64 66
69 69 70 71 70 69 68 69 69 69 69 69 69 70 70 70 69 68 66 64 64 64 64 65 65 65 65 66 66 67 67 66 65 65 64 61 61 61 60 60 61 63 63
69 69 69 70 70 70 68 70 69 67 67 69 70 70 70 69 68 67 65 63 64 65 65 65 65 65 67 66 66 67 67 66 65 64 60 60 60 62 61 60 60 59 60
69 69 69 70 70 69 68 70 67 65 65 68 69 70 69 68 68 65 64 63 65 66 65 65 65 65 68 68 66 67 66 65 64 62 61 62 61 63 62 61 60 60 60
69 70 70 70 70 69 70 69 67 64 64 66 68 69 69 68 66 64 65 66 65 65 65 64 64 64 64 67 67 67 66 66 64 63 62 63 63 63 63 62 61 60 60
69 69 69 70 70 70 70 69 67 64 64 65 66 67 68 67 66 64 64 64 65 65 65 63 63 62 61 62 63 67 66 63 62 63 63 63 63 64 63 63 62 60 60
69 69 68 69 70 70 69 68 67 65 64 65 65 65 66 65 63 64 64 65 65 64 63 63 62 62 60 60 59 60 61 58 60 61 63 64 64 63 63 63 63 61 60
69 68 68 68 69 70 69 69 69 66 64 65 65 65 63 65 64 64 65 65 65 64 64 64 63 61 59 57 58 57 56 56 57 59 61 63 65 63 63 62 63 62 60
68 68 68 68 68 68 68 69 69 67 66 65 65 65 65 63 64 65 65 66 65 64 64 63 62 60 58 56 56 55 52 54 55 56 55 58 63 63 62 63 62 62 61
67 68 67 68 67 67 67 68 69 68 67 66 65 65 65 64 65 65 65 65 65 65 64 63 62 59 55 55 56 52 46 45 52 55 55 57 62 61 62 64 62 62 61
64 67 68 67 66 66 66 67 68 69 68 66 65 65 64 65 65 64 64 64 65 64 64 63 61 58 53 52 52 51 48 48 47 46 50 56 61 61 59 62 64 62 62
62 66 67 67 66 65 65 67 67 69 68 67 65 64 64 64 65 64 64 63 63 62 60 61 59 55 53 52 53 52 52 52 51 50 50 53 57 60 58 58 61 64 63
59 65 66 67 66 64 65 66 66 67 68 66 65 64 63 63 63 62 62 61 60 60 57 57 56 56 55 56 56 56 56 56 55 55 54 54 55 59 58 58 59 62 62
57 60 66 67 66 64 63 66 66 66 67 66 65 65 64 62 61 61 61 61 60 59 58 58 59 59 59 60 59 59 58 58 58 58 58 57 57 58 59 58 58 59 61
59 57 63 65 66 65 62 63 65 66 66 67 66 65 63 62 61 62 62 62 61 59 59 59 60 61 61 60 59 59 59 59 59 60 60 60 59 59 60 61 60 59 59
58 58 58 61 62 65 64 63 63 64 64 65 66 65 64 63 62 62 62 62 61 59 58 60 60 60 59 59 59 60 60 60 60 60 60 60 60 59 59 61 61 60 59
55 58 59 59 60 63 65 64 64 63 63 63 63 64 64 63 62 61 62 61 60 60 59 58 58 58 58 58 59 59 59 59 59 60 60 60 60 60 60 59 60 61 60
57 59 59 59 60 63 65 65 65 65 64 64 64 63 62 61 61 60 60 60 58 57 58 58 56 57 58 59 59 59 59 59 59 59 59 59 59 59 60 59 58 60 58
59 59 59 59 60 62 65 64 64 65 65 65 65 64 64 63 60 58 58 58 57 56 55 55 55 57 58 59 59 59 59 59 59 58 58 57 58 59 58 58 57 58 60
60 60 59 59 57 62 62 62 62 60 60 64 64 65 65 63 61 59 58 58 59 59 57 57 57 57 59 61 59 57 57 57 56 54 53 55 56 56 56 57 58 57 57
60 61 60 59 60 60 62 62 61 61 62 61 62 63 64 64 63 60 58 58 60 60 61 61 61 61 60 61 57 56 52 52 53 53 51 52 52 52 53 54 53 52 52
54 59 60 59 60 61 62 62 62 62 62 61 62 63 63 64 64 63 61 61 61 61 62 62 62 61 58 59 59 56 53 50 52 53 52 50 50 50 50 51 50 49 49
43 48 60 61 60 61 62 62 60 60 59 61 62 62 63 62 62 63 63 63 63 63 62 62 61 61 60 58 58 58 58 56 52 47 51 50 50 49 49 49 48 47 48
42 41 43 55 61 62 61 61 61 61 58 59 62 60 61 61 61 61 60 60 60 60 58 57 54 53 57 55 55 53 54 54 54 52 47 50 50 49 49 48 46 46 47
42 43 47 52 58 60 61 62 61 59 59 60 60 60 60 59 59 59 59 59 59 58 57 56 55 53 52 52 52 53 52 50 51 51 50 49 50 50 48 47 45 45 46

GFSSE_sfc_30mbdewp_078.txt.gz
Dewpoint
63 67 71 70 70 69 69 69 69 69 68 67 69 70 70 70 70 70 68 66 65 64 64 64 64 65 66 66 68 67 66 66 65 65 65 65 65 65 65 65 65 65 67
63 66 71 70 70 69 69 70 70 70 70 67 69 69 69 70 70 69 67 65 64 64 65 66 66 63 65 66 67 67 66 65 65 64 64 64 63 62 62 64 65 65 65
64 66 69 70 70 69 69 70 69 69 70 69 69 70 70 70 69 68 65 65 65 65 66 67 65 65 65 66 67 66 66 65 64 63 61 56 59 61 60 60 60 62 63
64 66 67 70 69 69 69 70 69 69 69 69 70 71 70 70 68 66 65 65 65 65 66 65 66 66 66 67 67 66 65 64 63 62 56 57 58 62 61 61 61 59 59
64 65 66 70 70 69 69 69 68 68 69 69 69 70 70 69 67 65 65 66 65 65 66 66 67 68 67 67 66 66 66 64 62 58 59 60 60 63 62 60 60 60 61
65 65 69 70 70 69 71 69 67 65 68 69 69 69 69 68 66 64 65 67 67 66 66 65 66 68 68 67 67 66 66 64 63 59 60 61 61 63 63 62 61 61 61
64 65 68 70 70 70 70 68 66 65 67 68 69 69 69 67 65 64 64 66 66 65 65 64 64 63 66 67 67 66 65 62 56 58 59 60 62 62 63 63 61 60 61
64 65 66 69 69 70 70 68 66 65 65 67 68 69 68 67 65 64 64 65 65 65 64 63 62 61 61 61 63 64 62 59 56 57 59 60 63 63 63 63 63 60 60
64 65 66 67 67 70 69 68 66 65 65 66 66 67 66 66 64 63 64 64 64 64 63 63 62 61 60 59 59 59 57 56 53 55 56 59 65 63 63 63 63 61 60
65 65 65 66 64 67 67 68 66 66 66 65 65 65 65 64 64 65 64 64 65 64 64 64 62 59 58 57 57 55 53 54 51 53 53 56 64 63 62 63 63 62 60
59 65 65 65 63 62 66 68 67 66 66 65 65 65 63 62 62 63 64 65 66 65 64 62 61 59 56 56 55 50 46 45 49 50 51 56 61 61 61 63 62 62 61
56 65 66 65 63 61 64 67 66 64 61 59 60 62 60 60 60 59 64 65 66 65 64 62 61 57 52 47 49 49 49 49 47 49 51 55 60 61 59 62 63 63 62
58 61 66 65 63 59 60 66 66 65 63 61 58 58 58 60 62 60 60 61 60 62 57 58 57 50 49 49 49 48 52 53 53 54 53 52 56 60 59 58 60 62 63
59 60 65 65 64 59 58 64 66 67 65 64 61 58 58 59 59 58 57 57 57 55 54 53 50 50 51 52 52 53 55 56 56 57 56 55 57 58 60 59 59 60 62
58 60 61 66 64 62 59 59 64 65 66 65 62 61 59 58 58 57 56 55 54 53 51 51 51 52 54 57 57 57 57 57 57 57 58 58 58 59 61 60 59 59 61
56 59 60 64 65 62 60 60 60 63 66 66 65 63 62 60 59 57 57 56 56 54 53 53 55 57 57 58 58 58 58 58 58 57 57 57 59 60 61 62 62 60 60
57 59 59 60 63 64 62 62 63 63 63 66 66 65 64 62 61 60 59 59 58 57 53 55 57 59 58 58 58 58 58 57 56 56 57 56 58 59 60 62 62 62 60
58 58 58 60 60 61 63 63 64 64 65 65 65 66 65 64 63 60 59 60 59 58 56 56 58 58 56 56 57 57 57 56 56 56 57 57 57 57 59 60 60 61 61
57 57 58 60 60 58 62 65 63 62 64 63 64 64 65 64 63 61 59 60 60 58 58 57 56 55 55 57 57 56 56 55 56 56 56 56 57 58 58 59 59 60 60
56 58 57 60 60 60 61 64 65 64 64 64 64 62 61 60 60 60 59 59 59 58 56 57 55 55 56 57 56 58 59 56 55 55 55 54 54 57 58 59 58 58 60
56 58 59 59 60 59 62 60 61 61 63 63 64 63 63 63 63 62 61 59 59 58 56 55 55 55 57 59 59 57 55 54 55 54 53 53 54 55 56 57 58 58 57
59 59 59 59 59 60 61 61 60 61 62 61 61 61 62 63 63 62 63 62 59 59 58 56 57 58 59 60 56 55 51 50 52 52 52 52 53 54 55 56 56 55 55
59 59 59 60 60 59 60 62 62 63 62 61 61 61 62 62 63 64 63 63 61 61 61 60 61 60 58 59 60 55 50 46 50 50 52 51 51 52 53 54 53 52 51
56 58 59 61 59 59 59 59 60 59 58 60 60 61 62 63 63 63 64 63 63 62 62 62 63 61 59 57 59 59 57 55 49 42 49 50 51 50 51 51 50 50 49
44 45 50 59 61 60 61 60 59 58 60 60 60 59 61 61 62 61 62 62 62 62 62 61 59 59 59 58 57 55 53 53 52 48 41 42 50 50 50 50 49 48 49
46 48 51 54 59 61 61 60 59 57 59 59 59 59 60 60 61 61 61 61 61 60 58 58 57 56 55 54 53 52 51 49 48 48 46 45 45 47 50 50 49 48 48

GFSSE_sfc_30mbdewp_081.txt.gz
Dewpoint
62 68 71 70 70 69 69 69 68 67 67 70 70 70 69 70 70 69 68 66 65 64 64 64 65 67 68 68 67 65 65 65 66 65 65 66 65 65 66 66 66 66 66
62 67 71 71 70 69 69 69 70 69 68 69 70 70 69 70 70 68 67 65 65 65 64 65 65 66 67 68 65 65 64 64 63 63 62 62 62 61 63 65 65 65 65
61 66 69 71 70 70 70 70 70 70 69 69 70 69 70 70 69 68 66 65 65 67 66 63 64 65 67 67 66 65 64 63 63 63 63 57 61 61 60 60 60 62 63
61 66 67 71 71 70 71 70 69 70 69 68 70 70 70 70 69 67 66 65 66 66 67 64 65 66 68 67 66 65 63 62 61 61 56 56 58 62 61 62 61 60 60
64 66 68 70 70 70 70 69 69 69 69 70 69 70 70 69 68 66 65 66 65 67 65 66 66 66 67 67 66 65 63 61 60 60 59 60 61 62 62 61 60 61 61
65 65 70 70 70 70 71 69 68 69 69 70 70 70 69 69 67 66 67 65 66 64 66 67 69 67 67 67 66 65 64 63 63 58 59 61 62 62 63 62 61 61 61
65 67 68 70 70 70 71 69 67 68 69 68 69 69 69 68 65 66 67 66 65 66 66 66 67 68 68 67 66 65 63 61 59 58 58 60 62 62 63 62 61 61 61
64 66 67 68 69 70 70 68 66 67 68 68 68 68 68 66 65 63 66 67 65 65 65 64 63 64 66 66 66 63 61 60 55 57 59 61 63 63 63 63 62 61 61
61 65 66 66 68 70 69 67 67 67 68 68 68 68 67 66 64 63 64 65 65 65 64 63 62 61 61 60 60 60 58 57 56 55 57 60 64 63 63 63 63 61 60
60 60 66 66 65 65 67 67 66 66 67 67 68 67 66 65 63 63 62 64 65 65 64 63 62 60 59 58 57 56 53 54 52 53 54 60 65 63 62 63 62 62 60
59 59 63 66 64 62 65 66 66 66 66 66 66 65 63 62 62 63 62 64 65 65 64 63 61 59 58 57 55 52 49 49 50 50 52 56 61 62 61 63 62 62 61
56 56 60 61 65 62 65 65 62 60 61 59 62 62 62 60 60 59 64 65 66 65 64 62 61 58 53 48 50 49 47 47 47 50 53 55 59 62 60 62 63 63 62
58 58 60 60 62 62 64 65 61 59 55 57 60 61 58 58 60 61 63 63 62 63 59 60 59 52 47 47 47 46 49 51 51 53 52 51 56 60 61 59 61 62 64
57 57 60 60 59 63 63 65 64 59 56 55 57 57 56 58 59 57 58 57 57 56 54 54 52 49 49 49 48 49 52 54 54 55 56 55 56 58 60 61 60 60 62
56 58 59 60 60 63 58 65 65 65 59 57 55 55 56 57 58 56 55 55 55 53 52 52 50 48 49 50 52 53 55 55 55 55 56 57 58 60 61 61 62 60 61
56 59 59 60 61 64 56 63 66 66 64 62 59 58 56 56 57 55 54 53 53 52 52 50 49 50 51 54 55 56 56 56 56 55 55 58 59 60 61 63 63 63 61
57 58 59 60 61 62 58 58 62 65 66 64 63 60 59 59 57 55 55 56 56 55 51 51 51 53 54 54 55 56 56 55 55 55 54 55 57 59 60 62 62 62 62
57 58 59 60 60 62 62 61 59 60 63 65 65 65 62 62 60 59 59 59 58 56 55 51 53 54 56 55 55 55 55 55 54 53 54 54 55 55 59 60 60 61 61
57 58 59 60 59 61 61 63 62 62 63 61 63 64 65 64 63 61 57 58 58 58 56 54 55 56 55 54 55 55 55 55 53 53 53 54 54 56 57 60 59 59 61
57 58 59 60 60 61 60 61 62 62 63 62 63 63 64 64 63 61 59 60 60 59 58 57 55 55 54 54 55 55 56 55 56 53 53 52 51 53 55 56 59 59 59
57 58 58 59 59 60 60 60 60 59 61 62 63 63 62 61 61 61 61 61 61 60 58 57 56 54 54 57 56 56 56 55 54 54 53 50 49 53 55 56 57 59 58
58 57 59 59 59 60 60 59 60 59 59 61 62 62 61 62 62 62 63 63 62 61 60 60 55 55 55 57 57 55 53 52 52 53 50 50 50 53 54 56 57 57 57
57 58 57 58 59 59 60 60 59 59 60 60 61 61 62 62 62 62 63 63 63 62 61 61 61 57 58 59 60 56 51 49 50 51 53 49 49 51 53 55 55 54 54
57 56 58 59 59 59 60 60 59 58 57 59 60 61 61 61 62 63 64 64 63 63 62 61 62 62 60 58 59 58 57 56 49 45 50 50 49 49 51 53 52 52 51
53 58 58 59 60 61 60 60 59 59 59 60 60 59 60 61 61 61 61 62 63 63 63 62 61 60 60 60 59 57 54 54 53 51 44 44 50 50 49 50 50 50 50
48 49 49 53 58 59 59 60 59 59 59 58 59 59 58 59 60 60 61 61 62 62 61 60 59 58 57 56 55 54 52 48 47 47 47 46 44 46 50 50 50 50 50

GFSSE_sfc_30mbdewp_084.txt.gz
Dewpoint
67 70 72 70 70 70 69 69 68 69 71 71 70 70 70 70 70 69 67 66 65 65 65 68 68 68 67 65 65 65 65 66 66 66 65 65 65 67 67 67 66 66 66
68 70 72 71 70 70 70 69 69 68 70 71 70 69 70 70 70 69 67 65 65 64 64 66 65 68 67 65 65 64 62 62 63 63 62 63 63 63 63 64 65 64 65
67 69 71 71 71 71 70 71 70 69 69 71 70 70 70 70 69 68 66 65 65 65 65 65 66 66 66 65 64 62 63 64 64 64 62 62 63 62 61 60 61 62 64
66 69 69 71 71 71 71 70 70 70 69 70 70 70 70 70 69 67 66 66 68 66 64 64 65 68 67 66 64 61 62 62 61 61 59 60 61 62 62 62 62 61 60
66 67 69 71 71 71 71 70 70 70 69 69 70 70 70 70 68 67 66 67 67 65 64 65 66 68 67 66 64 61 61 61 61 61 62 62 62 62 62 62 62 62 61
66 66 70 70 70 70 71 70 70 70 70 69 69 69 69 69 68 66 67 64 66 64 65 67 67 67 67 66 65 63 62 63 62 60 62 63 60 61 62 62 62 62 61
65 69 70 69 69 70 71 70 69 69 69 70 69 69 69 68 67 67 65 64 63 65 68 69 67 67 67 66 65 63 62 60 60 59 62 62 62 62 63 62 62 62 62
64 67 68 68 69 70 70 69 68 69 68 70 69 69 69 68 67 66 64 64 65 66 67 67 68 67 67 66 65 62 59 60 58 59 62 63 64 63 63 63 61 61 62
62 63 67 68 68 69 69 68 68 69 68 68 68 68 68 67 66 64 65 64 65 66 65 64 64 64 64 64 64 61 57 56 56 58 62 63 63 63 63 63 62 61 61
62 61 61 66 67 68 68 67 67 68 68 68 68 68 67 65 64 65 63 66 64 65 65 64 62 62 61 60 59 57 52 53 55 54 62 64 65 62 63 64 62 61 60
61 62 60 60 60 62 67 66 67 68 68 68 68 66 64 63 61 63 64 66 65 66 65 63 62 61 59 57 55 52 49 51 53 53 56 62 63 61 62 63 63 62 61
57 58 59 59 59 60 60 66 65 66 66 66 65 64 63 62 62 62 64 63 65 65 64 63 61 59 56 53 52 50 46 46 49 52 54 56 60 62 60 63 63 63 62
55 56 57 59 60 60 60 64 62 63 63 64 64 63 62 61 62 64 64 64 65 64 63 62 61 57 52 51 50 47 47 50 50 52 53 54 57 60 62 60 61 63 64
56 56 56 59 60 60 61 61 63 59 59 59 62 61 61 60 61 63 63 63 63 62 60 60 58 54 52 49 49 48 50 53 54 55 53 54 55 58 60 62 61 61 61
56 56 58 60 59 60 61 63 64 58 56 58 61 60 59 61 59 59 60 60 59 58 57 56 55 52 50 49 49 50 53 55 55 56 56 56 58 60 61 62 62 63 61
56 57 59 60 61 61 61 63 63 62 57 56 57 57 58 59 58 57 56 56 56 55 54 53 51 50 49 50 53 54 55 56 56 56 58 57 59 60 61 62 63 63 63
56 58 59 60 60 60 61 62 63 63 62 59 58 56 56 58 58 56 55 55 54 54 53 51 50 50 53 54 55 56 56 56 56 56 56 58 59 59 60 62 63 62 63
57 58 59 60 61 62 63 63 62 62 63 62 60 59 59 58 57 56 56 55 56 57 54 52 51 52 56 56 56 56 56 57 56 55 54 55 58 59 60 61 62 61 61
57 58 59 58 60 59 59 60 62 62 62 63 63 64 62 61 60 60 60 60 60 58 56 55 53 55 56 56 55 56 56 56 55 53 53 54 55 57 58 60 60 59 59
57 58 59 59 59 61 61 61 59 62 62 63 64 65 64 64 63 62 60 59 60 59 58 57 56 56 56 56 55 54 57 56 55 56 54 53 52 53 55 58 59 59 60
58 58 60 59 58 60 61 59 58 60 62 63 63 64 64 64 64 62 61 62 61 60 59 58 57 56 55 55 57 56 56 56 55 55 53 52 52 54 55 56 59 59 60
58 58 59 59 59 59 60 60 59 59 60 61 62 62 62 62 62 62 62 62 62 61 60 60 60 58 56 56 56 56 54 55 56 54 52 50 50 54 55 56 58 58 57
55 58 59 59 59 59 60 60 59 60 59 59 60 61 62 62 63 63 63 63 63 62 61 60 60 60 59 59 59 56 53 50 52 52 51 51 50 51 54 55 56 56 56
57 57 59 59 59 59 60 58 59 57 57 59 60 61 61 61 62 63 63 63 63 63 62 61 62 61 61 58 59 59 59 57 48 49 52 50 49 49 53 54 54 53 52
52 56 57 58 60 59 59 59 58 58 59 59 60 60 60 61 61 61 62 62 63 63 63 62 61 61 61 60 59 59 57 56 53 51 46 48 50 50 50 52 52 52 51
52 53 53 57 57 58 58 58 59 58 58 58 58 58 59 59 60 61 61 61 61 62 62 62 62 60 58 58 57 56 54 52 50 49 48 48 47 47 50 50 50 50 50

GFSSE_sfc_30mbdewp_087.txt.gz
Dewpoint
69 71 72 70 70 69 69 70 72 73 72 71 70 70 71 70 70 68 66 64 66 67 69 69 69 65 65 65 65 66 67 67 66 65 65 66 66 66 67 66 65 65 65
69 71 71 70 70 70 69 69 70 72 72 71 70 70 70 70 69 68 66 65 65 66 68 68 68 65 65 64 63 62 63 62 62 63 63 63 63 62 63 64 63 63 64
69 71 71 71 71 71 70 69 69 70 72 71 70 70 70 70 69 67 66 65 65 65 64 68 67 65 65 63 62 63 63 63 64 64 63 62 63 62 62 62 61 63 63
69 71 71 71 71 71 71 70 69 68 71 71 70 70 71 70 69 67 66 66 66 66 66 65 67 66 65 63 62 63 63 63 62 61 61 62 62 62 62 62 62 61 61
69 70 71 72 71 71 71 70 69 69 69 71 70 70 70 70 69 66 67 68 66 66 66 65 68 67 66 63 61 62 62 63 63 61 62 62 62 62 62 62 62 62 61
68 68 71 71 71 71 71 70 70 70 68 70 70 70 70 69 69 67 68 67 62 63 63 65 68 67 66 64 62 62 63 63 61 62 62 62 62 63 62 63 62 62 61
67 69 71 71 70 71 70 70 70 70 69 69 69 69 69 69 68 67 66 63 62 63 66 67 67 67 67 65 62 62 61 60 60 62 61 62 63 63 62 62 62 63 62
65 68 69 69 68 69 69 69 69 70 68 70 69 69 69 69 68 66 64 63 64 66 69 67 67 67 67 65 63 61 59 58 60 62 62 63 64 63 63 62 61 62 62
63 62 61 62 65 68 69 68 68 69 68 70 69 69 69 68 67 64 63 64 66 67 67 68 67 67 67 66 63 59 56 56 56 62 62 63 64 64 63 63 61 61 61
62 61 60 60 60 60 60 65 66 69 68 67 68 68 68 67 66 65 65 66 66 67 66 65 65 64 64 63 60 56 53 53 55 61 62 63 63 62 63 63 62 61 60
61 60 61 61 60 60 60 60 60 65 68 67 68 68 66 64 65 65 65 65 66 66 65 64 63 62 60 58 55 51 50 51 53 60 63 65 64 62 62 63 63 62 60
59 61 61 61 60 60 60 60 59 63 67 68 67 66 64 62 61 63 65 65 65 66 65 63 62 61 58 55 53 51 47 46 48 55 58 62 63 62 62 63 63 63 62
57 57 59 60 60 59 59 59 59 59 65 67 66 65 63 61 60 62 64 64 65 65 64 63 62 58 55 52 50 48 46 46 49 54 55 57 60 62 62 61 63 64 64
56 55 58 59 58 58 60 60 60 60 62 65 65 65 62 62 62 63 63 63 64 63 62 61 60 56 53 50 50 49 46 50 53 53 54 55 58 60 62 62 62 62 62
56 55 56 60 59 59 59 61 61 61 62 63 64 64 63 62 63 63 63 63 63 62 60 59 58 55 52 51 49 49 49 52 54 55 53 55 56 59 60 61 62 62 63
57 56 57 60 60 61 60 61 62 63 62 60 63 62 61 61 62 62 62 62 61 59 59 58 56 55 52 50 49 50 52 54 55 56 56 56 57 59 61 62 62 63 63
57 57 58 59 60 60 61 62 63 64 59 58 61 59 60 60 59 59 59 59 58 57 55 55 53 51 50 50 51 53 55 56 56 56 57 57 58 59 61 63 63 63 62
57 58 58 60 60 60 62 62 64 64 61 58 58 58 59 59 58 57 56 56 55 54 53 52 51 51 53 54 55 55 56 57 56 56 56 57 59 59 60 61 63 62 61
57 58 58 60 58 61 62 63 64 63 63 61 59 58 58 58 57 56 56 55 55 55 54 53 52 52 54 56 56 56 56 56 56 55 54 55 57 58 59 60 61 59 59
58 58 59 59 58 60 59 60 63 63 63 64 60 61 59 58 58 57 59 58 58 58 57 56 53 55 56 55 55 55 56 56 55 55 54 53 54 55 58 59 59 60 62
58 59 59 59 59 61 59 58 60 60 63 63 61 63 63 62 62 61 60 60 61 59 58 57 56 55 55 56 56 56 56 56 55 54 55 51 53 54 56 58 59 59 61
57 59 59 58 59 60 60 59 59 60 61 62 62 62 63 63 63 62 61 61 61 60 60 60 59 58 56 56 54 56 54 55 56 56 53 50 53 54 55 57 59 58 59
56 57 59 59 59 60 60 60 60 59 59 59 60 61 62 63 63 63 62 62 62 61 61 61 61 60 58 59 58 55 54 53 53 53 51 50 52 53 55 56 58 58 57
53 56 58 59 60 60 60 59 59 57 56 59 60 61 61 61 61 62 62 62 62 62 60 60 60 60 60 58 60 60 59 58 53 51 52 51 50 50 54 55 55 55 55
52 53 54 57 59 59 59 59 58 58 59 59 60 59 59 60 60 60 61 62 62 62 62 61 61 60 60 59 58 58 58 58 56 53 50 49 50 50 51 54 54 52 52
51 54 54 55 56 58 58 59 59 58 58 58 58 57 58 59 60 60 60 61 61 62 62 62 61 61 60 60 59 58 56 55 54 53 50 50 50 51 51 52 52 51 51

GFSSE_sfc_30mbdewp_090.txt.gz
Dewpoint
69 71 72 71 71 72 72 72 73 72 71 71 71 71 71 71 70 67 65 68 69 68 66 68 66 67 66 66 66 66 66 66 66 65 66 66 67 66 65 64 64 64 65
69 71 72 70 70 70 72 72 73 72 72 71 70 70 70 70 69 66 65 68 68 69 69 68 65 65 64 64 65 64 61 61 63 64 64 64 63 63 64 63 63 63 64
69 71 71 71 71 71 71 71 72 71 71 71 71 69 69 70 68 67 65 66 68 69 69 67 65 64 63 61 62 63 63 64 63 64 63 63 63 63 62 61 62 63 63
70 71 70 71 71 70 70 69 70 71 70 71 71 70 70 70 68 67 66 65 67 67 68 67 65 64 62 64 64 64 64 63 63 62 62 62 62 63 62 62 62 61 60
70 70 71 72 71 71 70 69 68 68 71 70 70 70 70 70 69 66 66 67 65 65 68 67 66 64 62 63 63 63 63 64 62 62 62 62 62 63 63 63 62 62 61
70 70 72 72 71 71 71 70 69 68 68 70 70 70 70 69 69 66 68 67 65 65 66 68 66 65 63 62 62 63 63 64 62 62 62 63 62 63 63 63 62 62 62
68 69 71 69 70 72 71 70 70 70 69 70 70 69 69 69 68 68 69 67 65 64 65 69 67 66 64 63 63 63 62 62 62 60 61 62 63 62 62 63 62 62 62
68 68 68 68 68 69 68 68 70 70 69 69 70 69 69 69 67 68 67 62 63 64 65 68 67 66 65 63 62 61 59 61 61 62 62 63 64 63 62 62 62 62 62
64 63 62 62 63 64 65 64 66 69 68 67 70 69 69 68 67 66 64 64 64 65 67 67 67 67 65 64 61 58 57 60 62 62 63 64 64 63 63 62 61 61 61
62 62 60 60 60 60 59 60 60 63 67 67 69 68 68 67 66 65 64 64 66 67 69 68 66 67 66 65 61 56 54 57 61 62 62 63 64 63 63 62 61 61 61
60 61 61 60 61 60 60 59 59 58 58 65 67 67 67 67 65 64 63 64 66 67 67 67 67 66 65 62 58 54 51 53 58 62 62 64 64 62 63 63 62 61 60
60 59 61 62 61 61 61 59 58 57 58 60 67 67 67 66 65 63 63 65 65 66 65 65 64 63 60 56 54 53 48 48 49 60 62 65 63 62 63 63 63 62 61
59 60 61 61 61 60 61 61 60 57 60 59 63 67 65 65 64 64 64 65 65 65 64 64 63 60 56 53 51 49 47 45 48 54 57 63 63 62 62 63 63 63 63
57 57 59 61 60 59 60 59 58 58 56 61 63 66 65 63 64 63 64 64 64 64 63 62 61 58 55 51 50 48 46 46 49 54 54 59 62 63 63 62 62 63 63
57 56 57 59 58 57 60 59 59 58 57 59 62 65 65 64 62 62 63 63 64 63 62 61 59 56 53 51 50 49 48 47 53 52 53 56 58 61 62 62 62 62 63
56 56 55 58 58 58 59 60 60 60 59 58 61 64 65 64 63 63 62 63 63 63 61 60 58 55 52 51 50 49 49 49 53 55 53 54 58 58 61 62 62 62 63
57 57 56 58 60 59 59 60 61 61 61 60 59 63 64 64 64 62 62 62 62 61 60 58 57 56 53 51 50 49 51 53 54 55 56 55 57 58 60 62 63 63 63
57 57 57 58 60 60 60 60 60 62 63 62 61 63 62 62 63 62 61 61 60 59 57 56 56 53 52 51 50 51 54 56 56 56 56 57 57 58 60 61 63 64 62
57 57 57 58 58 59 60 60 61 61 62 62 61 62 61 61 60 61 60 59 58 57 55 54 53 52 52 53 54 55 56 56 57 56 56 56 58 59 58 59 61 62 60
57 58 58 58 59 59 60 61 62 61 62 62 61 60 60 60 59 58 57 57 56 56 54 54 52 53 53 54 55 55 56 56 56 56 55 54 57 58 58 59 60 59 59
57 57 58 58 58 58 58 58 59 59 61 62 62 62 60 59 58 57 57 56 56 56 55 54 53 53 55 56 55 56 56 56 55 55 55 53 55 56 58 58 58 59 60
57 58 58 59 59 59 59 59 59 60 61 62 62 62 60 59 59 58 59 59 59 59 57 56 56 56 55 56 55 55 53 55 56 56 54 52 53 55 56 58 58 58 59
54 56 58 59 59 59 60 60 59 61 60 61 62 61 61 60 60 61 61 61 61 60 59 59 58 58 56 58 56 55 53 52 53 53 53 51 53 54 55 57 58 58 58
53 54 56 58 59 60 60 60 58 58 57 58 60 61 61 62 61 61 62 62 61 61 60 60 61 60 59 57 59 59 58 55 51 51 53 52 52 52 55 56 58 57 57
53 54 55 57 57 59 59 59 58 58 59 60 60 60 60 61 61 61 61 60 61 62 61 61 60 60 60 58 58 58 59 58 57 54 52 51 52 53 53 55 55 56 55
50 53 52 52 53 54 57 57 58 58 58 58 58 58 59 59 59 59 59 60 61 61 61 61 61 60 60 60 59 58 57 56 55 54 52 51 51 53 54 53 54 53 53

GFSSE_sfc_30mbdewp_093.txt.gz
Dewpoint
68 71 71 71 72 72 72 72 71 71 71 70 69 69 70 70 69 67 66 67 66 67 68 67 67 65 65 65 65 67 66 64 66 66 66 67 65 64 63 62 63 64 66
69 71 71 71 72 72 72 73 72 72 72 71 70 69 68 69 68 66 69 69 68 67 69 67 67 67 65 66 64 64 65 65 64 64 64 64 65 64 63 63 63 63 66
70 71 71 71 71 71 71 72 72 72 72 71 70 68 70 69 67 66 68 69 69 69 68 65 65 64 64 65 62 62 61 62 63 64 64 63 63 62 62 62 62 62 62
70 71 71 71 71 71 71 72 71 71 71 71 70 69 69 69 67 65 68 68 69 69 67 65 64 62 62 63 64 64 64 63 63 63 62 63 63 62 62 62 61 61 60
70 70 71 71 71 70 70 70 71 71 70 70 70 70 70 69 68 66 66 68 69 69 67 65 63 63 65 65 64 64 63 62 63 62 62 62 63 62 63 62 62 62 61
70 70 71 71 71 71 70 69 68 70 70 70 70 70 70 69 69 67 67 68 66 69 67 66 63 63 65 64 63 65 65 63 62 62 63 63 63 63 63 63 62 62 62
69 70 71 72 72 71 70 70 69 68 68 70 70 69 69 69 68 67 68 67 64 66 67 66 64 64 63 64 64 63 65 64 61 61 62 62 62 63 63 63 62 62 62
68 70 70 69 70 70 69 69 70 70 69 69 70 70 70 69 68 68 69 67 64 63 67 67 65 63 63 64 63 62 63 62 61 62 62 63 64 62 62 63 62 62 62
65 65 65 66 67 66 65 66 67 67 68 68 69 70 69 68 68 67 68 65 64 64 64 68 66 64 63 63 62 60 62 62 61 62 63 64 64 63 62 62 62 61 61
63 63 63 62 61 60 60 60 60 59 60 63 67 70 68 67 67 66 67 63 62 63 65 67 67 65 64 64 61 58 59 62 61 62 62 63 64 63 63 61 61 61 61
61 61 61 61 61 61 59 58 57 57 56 59 66 68 67 67 67 65 64 63 63 65 67 67 67 68 67 64 60 57 55 58 61 61 62 63 64 63 63 62 61 61 60
59 60 61 61 61 61 61 59 58 57 57 56 59 66 67 67 66 64 63 63 63 66 68 68 67 67 65 61 58 55 51 53 57 61 61 64 64 62 63 63 62 62 61
58 59 60 61 61 61 62 61 61 60 59 57 58 63 66 66 65 63 62 62 64 65 66 66 65 64 60 55 52 51 48 48 49 58 61 64 65 62 62 63 63 63 63
59 60 60 60 60 60 60 60 60 60 59 59 59 64 65 65 64 64 62 63 65 65 64 64 63 60 57 53 50 48 47 46 46 51 56 61 64 63 62 63 63 63 64
57 58 59 60 60 60 59 59 58 58 58 58 59 65 65 64 64 64 64 64 64 64 63 62 61 58 55 53 50 49 48 46 48 50 54 55 60 64 64 63 63 63 63
57 57 57 58 59 59 58 58 58 58 59 58 60 63 65 64 63 64 64 64 63 63 62 62 60 58 55 52 50 49 49 49 48 52 53 53 58 60 63 63 63 62 62
55 57 56 56 58 58 58 58 59 59 59 59 58 62 64 64 63 63 64 64 63 63 62 60 59 57 54 52 50 50 49 49 50 53 55 53 54 57 60 62 63 63 63
51 56 56 57 58 58 58 59 60 60 60 61 60 59 63 63 63 63 63 63 63 62 62 59 58 56 54 52 50 50 50 51 53 55 55 56 55 56 58 62 63 64 63
51 55 56 57 58 58 59 59 59 60 60 61 62 61 61 63 63 63 63 63 61 61 60 58 56 55 53 53 52 51 51 54 55 56 56 57 57 57 58 59 61 62 63
54 56 57 57 58 58 59 60 61 61 61 61 61 63 61 62 63 63 62 62 61 60 58 56 55 54 53 52 52 52 54 56 56 57 56 56 57 58 58 58 60 61 61
56 57 57 57 58 58 58 58 58 58 59 61 62 62 62 62 62 62 62 61 59 58 57 55 53 53 53 54 54 55 56 56 56 56 56 55 55 57 58 58 59 59 59
56 57 57 57 58 58 58 58 58 59 59 60 61 62 62 61 61 60 60 60 59 57 56 55 54 53 53 56 54 55 53 54 56 56 55 53 54 56 58 58 58 58 59
53 55 57 58 59 59 59 59 59 60 60 60 61 60 61 61 61 60 59 59 58 57 56 56 55 55 53 55 56 54 53 52 54 54 54 53 52 54 56 57 57 58 58
53 54 55 57 57 58 60 59 58 57 56 58 58 61 61 61 61 61 60 60 60 60 58 58 58 58 57 55 57 58 58 55 52 50 53 52 52 53 55 56 57 58 57
53 54 54 54 54 55 59 59 58 57 58 59 59 60 60 60 61 61 60 60 60 61 60 60 60 59 59 58 57 57 58 58 57 52 50 51 52 52 54 56 57 57 57
49 50 49 50 50 52 53 54 55 57 58 58 58 58 59 60 59 59 59 59 59 59 60 60 60 60 59 59 59 58 57 55 56 55 53 51 51 52 53 55 55 56 56

GFSSE_sfc_30mbdewp_096.txt.gz
Dewpoint
67 71 71 72 72 71 71 70 71 71 72 71 70 70 70 70 69 68 66 66 67 68 69 68 67 67 67 66 67 66 65 67 67 67 67 66 64 63 63 63 65 66 66
68 71 72 72 72 72 72 71 71 71 71 70 70 70 70 69 68 66 67 67 67 68 68 67 64 66 64 64 67 66 66 66 65 64 65 65 64 63 63 62 63 62 63
69 71 71 72 72 71 71 71 72 72 71 70 69 68 68 68 67 67 68 68 67 69 68 66 65 64 66 63 63 64 64 64 64 64 64 63 63 62 62 62 62 62 63
70 71 71 71 72 71 71 71 71 71 71 71 69 68 68 68 67 68 68 69 69 68 66 65 64 64 65 63 62 62 62 63 64 64 63 63 62 62 62 61 61 61 61
70 71 70 71 72 72 72 71 71 71 71 70 70 69 70 69 67 67 68 70 69 68 66 64 63 64 64 65 64 64 63 64 64 62 62 62 62 62 62 62 62 62 61
70 70 71 71 71 71 71 71 71 71 70 70 69 69 69 69 68 66 68 69 69 68 66 64 63 65 66 65 64 64 63 63 62 62 63 64 62 62 62 62 62 62 62
69 70 71 70 71 71 70 70 69 71 70 70 70 69 69 69 68 68 68 69 69 69 66 64 64 65 65 64 65 65 64 63 61 62 62 62 63 62 62 62 62 62 62
68 69 70 69 70 71 71 70 70 69 68 70 70 70 69 69 68 68 68 68 69 68 66 64 64 65 64 65 64 65 65 62 61 61 62 62 63 62 62 62 62 62 62
66 67 68 69 69 68 69 69 68 67 66 67 69 69 69 69 68 68 68 68 66 66 66 65 64 64 64 64 63 63 64 62 61 62 62 63 64 62 62 62 62 61 61
63 64 66 65 64 63 63 62 60 60 61 63 67 68 69 68 67 67 67 67 65 63 67 67 65 64 64 65 63 61 64 62 61 61 63 63 64 63 62 61 61 61 61
61 62 62 63 62 61 61 60 59 57 56 60 66 68 69 68 67 67 66 66 64 63 63 67 67 66 65 64 62 59 62 61 61 61 62 63 65 63 62 62 61 61 61
59 60 61 61 61 61 61 59 58 57 56 56 64 66 67 67 67 66 65 65 63 63 62 66 67 67 66 64 61 58 53 57 60 61 61 62 65 63 63 63 62 61 61
59 59 61 61 61 61 60 59 59 59 59 58 57 62 65 66 66 65 64 63 62 63 65 66 65 66 65 61 57 55 50 53 56 59 61 62 65 63 63 63 63 63 62
58 59 61 61 61 61 61 61 60 61 61 60 58 61 63 65 65 64 63 63 62 65 66 66 65 64 62 57 54 51 49 48 49 51 59 61 64 64 63 63 63 63 63
57 59 60 60 60 60 60 60 59 59 58 58 59 61 65 65 64 64 64 63 64 65 64 64 63 62 59 55 51 49 47 46 46 47 51 55 60 64 64 63 63 64 64
54 57 59 60 60 60 60 59 59 58 58 58 58 60 64 65 65 64 64 64 64 64 64 63 62 60 58 55 51 50 48 47 46 48 50 53 56 61 64 65 64 63 63
45 53 57 57 58 59 59 58 58 57 58 58 58 59 62 64 64 64 64 64 64 64 63 62 61 59 57 54 52 50 49 49 49 49 52 52 53 56 59 62 64 63 63
39 48 54 57 57 58 58 57 58 58 58 58 59 59 60 63 64 63 63 64 64 64 63 62 61 59 57 54 52 50 49 50 50 50 52 54 54 54 56 59 62 64 63
37 40 51 56 56 57 57 58 58 59 59 60 60 61 61 61 63 63 63 63 63 61 61 61 60 58 56 54 52 51 50 50 51 52 54 55 55 56 56 57 58 62 63
41 48 54 56 56 57 58 58 58 59 59 60 60 60 61 61 60 62 62 62 62 60 58 60 60 57 56 53 52 52 52 52 53 54 55 56 57 57 57 58 59 60 62
55 55 56 56 57 57 57 57 56 57 57 59 60 60 61 61 61 61 61 62 59 59 57 58 58 57 54 54 53 53 54 55 55 56 56 56 56 57 58 58 58 60 61
55 56 56 57 57 57 58 57 58 57 58 59 60 61 62 62 62 62 61 61 60 57 55 56 57 56 54 55 53 54 51 54 56 56 56 55 55 56 57 58 58 59 59
53 54 55 56 58 58 58 58 58 58 59 58 59 60 61 62 61 62 62 61 60 60 59 58 57 54 52 55 55 53 52 51 53 55 55 55 53 54 56 58 58 58 58
52 54 55 55 54 55 56 57 56 56 56 57 57 59 60 61 61 61 61 60 60 60 58 58 57 55 55 53 56 56 57 54 52 51 53 54 53 53 55 56 57 57 57
50 50 52 52 51 52 54 58 58 57 57 58 58 58 59 60 60 61 61 60 60 60 60 58 58 56 57 55 54 55 57 57 56 52 50 52 52 53 54 55 57 57 57
46 48 47 47 48 49 50 51 53 54 55 56 57 57 58 60 59 59 59 59 59 59 60 60 59 59 58 57 58 57 55 55 55 55 53 52 51 52 52 55 56 57 57

GFSSE_sfc_30mbdewp_099.txt.gz
Dewpoint
67 71 72 72 71 71 71 71 72 72 71 71 71 71 71 70 69 67 66 66 67 69 69 69 68 68 68 67 67 67 68 68 68 68 66 64 64 64 65 65 65 65 67
68 71 72 72 72 72 71 72 72 72 72 71 71 70 70 70 69 68 66 67 68 69 69 67 67 67 67 67 66 67 67 66 66 66 65 65 65 63 63 64 63 64 65
68 71 70 72 72 72 71 71 71 72 71 71 70 69 70 70 68 67 66 67 68 69 67 65 66 64 64 66 66 66 66 65 65 65 64 60 61 63 63 62 62 63 63
69 71 70 72 71 72 72 71 71 71 71 70 68 68 68 69 67 67 67 67 69 69 68 66 64 66 64 63 64 63 63 64 64 64 61 61 61 62 62 62 62 61 61
69 71 70 71 71 71 71 72 71 71 71 70 70 68 68 68 67 67 69 69 69 68 67 66 66 66 63 62 63 62 63 64 64 63 62 63 61 62 62 62 62 62 61
70 70 70 71 71 71 71 72 71 71 71 70 70 69 69 69 68 68 69 69 69 67 66 65 65 65 66 65 65 64 64 64 63 62 62 63 62 62 62 62 62 62 62
69 70 70 70 70 70 71 71 71 71 71 70 69 69 69 69 68 68 69 69 69 68 65 64 64 65 66 65 64 64 64 63 61 62 62 63 62 62 62 62 62 62 62
65 69 69 69 69 70 70 70 70 70 70 70 70 70 69 69 68 68 68 69 69 68 65 64 65 65 66 65 66 66 65 62 61 62 63 63 63 62 62 62 62 62 62
64 65 69 69 69 70 70 70 69 69 67 67 69 70 70 69 68 67 67 67 68 68 66 64 66 66 65 66 65 67 65 62 60 61 62 63 64 62 62 62 62 62 62
62 63 64 67 68 68 68 67 66 65 64 64 66 69 69 69 68 67 66 66 68 67 67 65 66 66 65 66 65 66 64 62 61 62 62 62 65 62 62 62 62 61 61
61 61 62 64 64 65 65 63 62 60 60 64 66 68 68 68 68 67 66 65 65 66 66 66 66 66 66 66 64 62 64 61 61 60 61 63 65 63 62 61 61 61 61
53 60 62 62 63 63 63 63 61 58 56 61 67 68 68 68 67 67 66 66 66 64 63 66 67 66 65 63 62 60 62 61 61 61 60 63 66 63 63 62 61 61 61
48 59 61 62 62 62 62 62 61 58 58 58 60 66 66 67 67 67 66 66 65 63 62 61 65 65 62 62 61 58 55 58 60 61 60 62 64 64 63 63 62 62 62
40 53 60 62 62 62 62 61 61 60 60 60 59 59 64 66 66 66 65 65 64 63 63 62 63 64 65 63 60 57 54 53 56 59 59 62 63 65 63 63 63 63 63
39 49 59 62 62 61 61 61 61 61 60 60 60 60 62 64 64 65 65 64 63 64 64 65 63 63 63 63 58 54 52 50 51 52 54 58 61 64 65 64 64 64 64
35 44 58 60 62 61 61 61 61 60 59 59 58 58 60 62 64 65 65 64 64 64 64 65 65 64 62 60 56 52 50 48 48 49 49 50 55 60 63 65 64 64 64
35 39 48 57 60 61 61 61 61 60 60 58 57 57 58 60 62 64 65 64 64 65 64 64 63 62 61 58 56 53 50 48 47 47 47 50 52 56 59 62 64 64 64
36 37 42 52 58 59 60 61 60 60 59 58 57 58 58 58 60 62 63 64 65 64 64 63 62 61 61 58 56 54 51 50 49 49 49 50 53 53 55 58 60 64 64
36 37 40 49 54 57 58 58 58 58 58 59 59 59 59 59 59 60 62 62 63 64 64 63 62 61 60 58 56 54 52 50 49 49 50 51 52 55 55 55 57 59 62
38 38 41 49 54 57 58 58 58 58 58 59 59 59 59 59 60 60 61 61 62 63 62 62 61 61 60 59 57 56 55 53 50 50 51 52 53 56 56 57 57 57 58
40 46 52 55 56 57 57 56 56 56 57 58 59 60 59 60 60 60 61 61 61 61 60 61 61 58 58 58 56 55 54 53 53 53 53 54 55 57 57 58 58 59 58
51 54 56 56 57 57 58 58 57 57 58 58 59 60 60 60 60 60 61 61 61 61 60 59 59 58 56 57 54 52 49 50 54 54 55 55 55 57 57 58 58 58 59
51 52 53 55 56 56 58 58 58 58 58 58 58 59 60 60 61 61 62 61 61 61 59 58 58 56 55 56 55 53 51 49 51 55 56 56 56 56 56 57 58 58 59
50 52 53 53 53 53 54 56 56 55 55 55 58 58 58 59 60 61 61 62 62 61 59 58 58 57 55 54 56 55 54 55 52 49 54 55 56 54 55 57 58 58 59
47 48 49 49 50 50 51 52 56 55 57 57 58 59 59 59 60 61 61 61 61 60 60 59 58 57 57 55 54 54 55 55 56 53 50 53 54 54 55 56 58 58 58
45 46 46 45 45 47 48 49 50 53 53 53 53 55 55 56 60 60 61 60 60 60 59 59 58 58 57 57 57 55 53 52 52 54 53 53 53 54 55 56 56 57 58

GFSSE_sfc_30mbdewp_102.txt.gz
Dewpoint
67 69 71 71 71 71 71 71 72 71 71 72 71 71 71 70 70 67 66 67 67 66 66 67 67 68 68 68 68 68 68 68 68 66 67 66 66 66 65 65 66 66 67
68 68 71 72 71 71 71 72 73 72 71 71 71 71 71 70 69 67 66 67 69 69 69 69 68 68 68 67 68 68 68 67 67 66 65 64 65 65 64 64 65 65 66
67 67 68 71 72 72 72 72 72 72 72 71 71 71 71 70 69 68 67 67 70 69 69 69 68 67 67 66 67 67 66 66 65 64 62 56 60 64 63 63 64 64 64
67 67 68 70 71 71 72 71 72 72 72 71 70 71 70 70 69 67 66 67 69 69 68 67 67 66 67 66 66 66 65 65 65 62 57 56 57 62 62 62 62 62 62
68 67 68 70 71 71 71 71 71 72 71 70 69 68 68 69 68 67 68 68 69 68 68 66 67 66 65 64 64 63 64 64 64 60 58 58 58 62 62 62 62 61 60
67 68 68 70 70 70 70 70 71 71 71 70 70 68 68 69 67 69 68 69 69 69 68 66 67 64 64 63 63 63 64 64 63 57 57 60 58 63 63 62 62 62 62
65 69 68 69 69 69 70 70 71 71 71 70 70 69 69 68 68 69 68 68 69 68 66 66 66 65 65 65 65 64 64 64 57 57 58 59 60 62 62 62 62 62 62
64 66 68 68 68 69 69 70 70 70 70 69 69 69 69 69 69 69 68 69 69 67 66 65 65 65 66 66 65 65 64 62 57 57 58 59 63 62 62 62 62 62 62
64 64 67 66 67 68 69 69 69 69 69 69 69 69 69 69 68 69 68 68 68 68 66 66 66 65 66 65 66 66 65 61 56 56 57 59 63 62 62 62 62 62 62
62 63 64 67 66 66 67 69 68 69 67 66 67 68 69 69 69 68 67 66 67 68 67 66 67 66 66 66 66 67 64 62 57 57 57 58 64 62 62 62 62 62 62
45 59 63 64 66 67 66 66 67 66 66 65 65 66 68 66 65 65 65 65 67 67 67 66 67 67 66 66 65 65 64 59 57 56 56 63 65 62 62 62 62 61 61
37 42 60 63 64 65 66 66 65 64 61 62 64 65 66 64 63 63 64 65 66 66 66 66 66 67 65 60 62 62 61 58 57 57 56 62 65 63 62 62 62 62 61
34 36 42 61 63 63 64 65 64 61 59 58 64 66 66 66 64 64 63 65 64 64 63 64 64 64 60 55 57 58 57 58 57 57 57 61 64 65 63 63 62 62 62
32 35 40 50 62 63 63 64 63 61 59 59 59 61 64 66 66 65 61 63 63 62 62 61 60 62 63 57 55 57 56 55 56 57 56 61 63 64 65 64 63 63 62
32 36 38 46 59 63 63 63 63 61 59 59 59 59 60 63 65 66 66 62 63 64 62 62 60 59 61 61 57 54 55 54 53 53 55 59 61 63 65 64 64 63 63
31 34 37 42 54 61 62 62 63 62 61 60 59 59 59 59 60 62 65 66 65 62 62 61 61 60 60 60 60 58 53 51 51 52 52 53 58 61 63 64 63 63 64
35 35 36 37 44 58 62 62 62 62 61 60 59 59 58 56 56 58 60 62 64 65 62 62 63 62 63 62 61 59 57 52 48 47 50 51 51 53 57 61 63 64 63
36 36 36 35 39 51 60 62 62 62 62 62 61 59 57 55 55 56 58 59 60 63 64 64 64 64 64 62 61 60 58 52 48 46 45 48 49 50 54 57 61 63 64
37 36 35 36 38 44 53 56 60 61 60 60 59 57 56 55 56 56 57 58 59 62 64 64 63 63 62 62 61 61 57 54 49 47 46 46 48 50 52 53 57 58 61
45 39 38 36 38 43 48 54 57 58 59 58 58 57 56 56 57 58 57 58 58 59 61 63 62 63 62 62 61 59 57 55 52 51 48 48 48 50 52 54 55 56 57
46 45 40 37 38 48 54 56 57 56 57 57 57 58 57 57 57 57 58 58 59 58 58 59 59 60 60 62 60 59 57 56 53 53 52 50 50 50 52 54 56 57 57
50 49 49 47 51 55 57 58 57 57 58 58 58 58 58 58 58 58 58 58 58 60 59 58 59 59 60 60 58 56 53 53 53 52 52 52 51 52 53 54 56 57 59
50 52 54 55 56 56 57 58 57 58 58 57 57 58 58 58 59 59 59 59 59 60 60 59 60 59 58 59 59 55 50 48 47 47 51 51 52 53 53 54 57 58 58
48 50 51 52 52 53 54 54 55 55 54 55 56 57 57 58 57 58 59 60 61 61 61 60 60 59 58 57 57 56 54 52 47 47 55 54 54 54 54 56 56 57 58
46 47 47 48 49 50 50 51 53 56 56 57 57 57 56 56 57 59 59 60 60 61 61 60 60 59 59 58 56 55 54 54 55 52 49 53 55 56 56 56 57 59 60
44 45 44 44 44 45 46 46 47 48 51 51 51 51 51 53 53 53 55 60 60 60 60 60 59 59 58 57 57 56 55 53 52 52 52 52 53 53 56 58 58 59 60

GFSSE_sfc_30mbdewp_105.txt.gz
Dewpoint
65 69 71 71 71 71 71 72 72 72 72 71 70 71 70 70 70 66 66 66 66 65 65 67 66 68 68 68 68 68 68 68 67 67 67 67 66 66 66 66 66 66 68
67 68 71 71 71 71 71 72 72 71 72 72 71 71 70 70 69 66 67 67 67 66 67 68 68 69 68 68 67 68 68 67 66 65 64 65 65 65 65 66 66 66 67
66 67 68 71 72 72 72 72 72 72 72 71 71 71 70 70 69 67 66 67 69 69 69 69 68 68 68 67 67 67 67 66 65 63 63 57 62 64 64 64 64 64 65
66 67 67 70 71 72 72 72 72 72 71 71 70 71 71 70 70 69 67 67 69 69 68 69 68 68 67 65 67 67 66 65 63 59 58 54 56 62 62 62 62 62 62
66 68 66 69 70 71 71 71 71 72 72 71 70 70 70 70 69 68 67 67 69 69 68 68 67 67 67 66 66 66 65 64 62 61 55 56 57 62 62 62 62 61 61
65 67 69 69 69 70 70 70 70 71 70 70 69 69 68 69 68 68 69 69 69 68 68 67 67 66 65 64 63 63 63 63 61 56 56 58 58 63 63 63 63 62 62
64 66 68 69 69 69 69 69 69 70 70 69 69 69 68 68 68 68 68 68 69 68 67 67 67 65 64 63 64 64 64 64 61 55 56 58 62 63 62 63 62 62 62
64 65 67 68 69 69 69 69 69 69 69 69 69 68 69 69 69 68 68 68 69 68 67 66 67 66 65 66 65 65 65 63 57 55 56 58 63 62 62 62 62 62 62
61 64 66 68 67 68 68 69 69 69 69 70 68 68 68 69 69 69 68 67 68 68 67 66 66 66 66 66 66 66 65 61 59 54 56 58 63 62 62 62 62 62 62
45 57 64 65 67 66 66 69 69 69 69 69 69 68 68 67 69 68 68 68 67 68 67 67 67 66 66 66 67 66 65 62 59 54 56 60 63 62 62 62 62 62 62
39 42 47 63 65 66 67 67 68 68 68 66 66 66 66 65 65 66 65 66 66 68 67 66 67 67 66 66 66 67 65 60 57 55 54 62 64 63 62 62 62 62 62
36 36 38 49 64 65 65 66 66 64 64 63 63 63 64 62 61 61 63 65 66 67 67 67 67 67 66 61 64 64 63 59 56 55 54 62 63 63 62 62 62 62 61
31 34 36 39 54 64 64 65 65 64 63 62 62 63 63 62 64 62 62 64 65 66 65 65 65 64 61 56 56 60 58 58 56 55 56 61 63 65 63 63 62 62 62
31 32 36 38 42 59 63 64 64 63 62 60 59 62 65 65 66 65 60 60 63 63 63 63 63 63 62 59 53 54 56 55 56 56 56 60 62 63 65 64 63 63 62
30 33 37 39 39 50 62 63 64 63 61 60 58 59 60 63 65 65 66 66 64 64 64 63 62 61 62 61 57 52 54 54 53 54 54 59 61 63 63 65 64 64 63
29 30 34 36 39 46 61 62 63 63 62 60 58 59 57 58 59 60 62 62 62 63 63 62 61 61 59 61 60 56 53 53 53 52 52 57 60 61 63 63 65 64 63
32 33 35 37 39 42 52 61 63 63 63 61 59 59 59 57 57 58 59 60 59 60 61 63 61 60 61 62 60 59 57 54 50 50 50 51 56 59 61 62 62 64 64
35 35 35 36 37 37 44 58 62 63 63 62 61 59 59 58 57 56 56 57 58 59 59 60 62 63 63 63 62 61 59 58 54 51 47 47 50 51 55 57 61 62 64
46 43 38 36 35 37 40 50 61 62 62 61 61 60 59 58 57 55 54 55 56 58 60 62 63 63 63 63 63 62 61 60 56 51 47 46 46 49 50 54 55 58 61
47 48 47 42 37 35 39 45 52 56 60 60 58 57 56 56 55 55 55 55 56 57 58 60 60 62 62 62 62 62 62 61 59 53 49 47 46 47 50 52 56 57 57
49 49 49 44 40 36 38 43 48 52 55 57 58 57 56 56 56 56 56 56 56 56 56 57 58 60 60 62 61 60 61 60 59 56 53 51 48 49 50 52 53 55 57
49 50 51 50 45 38 40 51 54 55 56 57 57 57 57 57 58 57 58 57 58 57 57 57 58 58 59 59 58 57 55 57 58 57 55 52 50 49 50 51 52 54 56
47 49 50 52 53 55 55 57 59 58 58 57 57 57 58 57 58 58 59 59 59 59 58 59 59 58 57 58 59 56 54 52 53 55 55 53 51 50 50 51 52 53 55
45 48 48 50 51 52 53 54 55 55 54 54 55 56 57 58 56 57 58 59 59 60 60 60 60 59 59 58 59 60 59 56 51 50 53 53 52 50 50 53 53 54 56
44 46 47 47 48 49 49 50 51 50 53 55 55 55 54 54 53 52 52 54 58 59 59 59 60 60 60 59 58 57 58 58 56 53 48 50 53 50 50 52 54 55 56
43 43 43 43 44 46 46 46 47 47 47 46 47 48 49 50 50 49 50 52 52 55 59 59 60 59 59 59 59 58 56 55 54 53 53 53 53 55 57 57 57 59 60

GFSSE_sfc_30mbdewp_108.txt.gz
Dewpoint
67 68 71 70 72 72 71 72 71 73 72 71 70 70 70 70 69 66 66 66 66 66 66 67 67 68 68 67 68 68 68 68 68 68 68 67 67 67 67 67 67 67 68
66 69 70 71 72 72 71 72 71 72 72 72 71 71 70 70 69 66 67 66 67 66 66 68 68 68 68 67 68 68 68 67 66 65 65 66 66 66 66 66 67 67 66
65 69 69 71 72 72 72 72 71 71 72 71 71 71 71 70 68 67 66 67 68 67 68 68 69 69 69 66 67 67 67 66 64 63 64 64 64 64 64 65 65 65 65
65 68 69 70 70 71 72 71 71 71 71 70 70 70 70 70 69 68 67 66 68 69 68 69 69 68 66 65 66 66 67 65 63 61 62 60 60 62 62 62 63 62 63
65 68 69 69 70 70 70 71 71 71 71 70 69 69 70 69 69 69 68 67 68 69 68 69 69 68 66 64 66 66 66 64 60 60 60 58 61 63 62 61 61 63 62
64 67 68 69 69 69 70 70 70 71 70 70 70 70 70 70 69 68 68 68 69 69 68 68 68 68 67 66 65 65 64 63 60 60 58 60 63 63 63 64 63 62 62
63 65 68 69 69 70 69 69 69 69 70 70 69 69 69 69 69 68 68 68 69 69 68 68 67 66 65 64 63 63 64 62 61 61 57 59 63 63 63 63 62 62 62
62 64 65 68 68 69 69 69 69 69 69 70 69 69 69 69 69 69 68 68 69 69 68 68 67 66 64 64 64 65 65 63 59 58 57 63 63 63 62 62 62 62 62
47 57 64 65 67 68 69 69 69 69 69 69 69 69 68 69 69 69 69 68 69 69 68 67 68 67 66 65 66 66 65 62 59 59 57 63 64 63 63 63 62 62 62
42 45 44 61 65 67 67 68 69 69 68 68 68 68 68 68 68 69 69 69 68 69 68 67 67 67 67 67 67 67 66 63 60 59 57 62 64 62 63 62 62 62 62
39 41 41 45 62 65 66 67 68 68 68 68 68 68 67 67 67 68 68 67 67 68 68 67 67 67 67 67 67 66 66 64 60 58 56 63 63 62 63 62 62 62 62
36 37 37 41 45 64 65 66 67 67 66 66 65 65 65 64 63 65 66 66 67 67 68 68 67 67 67 66 66 66 66 64 61 57 58 63 64 62 63 63 62 62 62
31 34 37 39 41 53 64 64 66 66 65 64 63 63 64 64 65 64 64 65 66 66 67 67 67 66 67 65 62 65 64 63 61 58 60 63 63 61 61 63 63 62 62
32 35 37 38 41 43 61 63 64 65 65 63 61 61 64 65 66 65 65 65 65 65 65 65 65 65 64 62 60 61 62 60 59 58 60 61 63 62 63 63 63 63 62
31 34 37 39 40 41 48 62 63 64 64 63 61 59 61 64 64 65 65 65 65 65 65 64 64 63 63 62 61 57 56 58 56 56 59 61 62 62 62 64 65 64 63
34 34 36 38 41 42 42 60 62 63 63 63 61 59 59 61 62 63 62 62 62 63 64 64 64 64 63 64 63 62 53 54 55 54 54 60 61 62 63 62 64 65 64
40 37 37 38 39 40 40 47 62 62 63 63 62 60 59 58 59 59 61 60 60 60 60 61 63 63 63 62 62 62 62 55 53 53 53 56 60 61 62 62 62 64 65
46 47 46 44 39 40 40 43 58 61 63 63 63 61 59 59 59 58 58 58 59 59 59 60 61 61 62 62 62 62 62 62 56 52 50 50 56 58 60 61 63 63 63
49 48 49 49 47 41 38 40 45 61 63 63 63 62 61 60 58 58 57 56 56 57 58 59 61 62 62 62 62 62 62 62 60 56 53 50 48 52 55 57 60 62 63
49 50 50 51 51 46 40 39 42 55 61 62 62 62 61 58 57 56 56 55 56 56 57 59 60 61 61 62 62 62 62 62 62 60 57 53 48 47 50 52 55 57 59
46 48 49 51 52 53 42 38 41 46 53 60 61 60 59 58 57 57 57 57 57 56 56 57 57 59 59 61 61 60 61 62 62 61 60 55 50 47 47 49 53 56 56
46 47 48 49 51 52 54 50 41 51 54 56 58 59 59 59 59 59 58 58 58 58 57 57 57 57 58 59 58 57 55 57 61 61 60 57 53 49 49 50 51 53 55
44 46 47 49 50 51 52 55 53 53 55 56 58 58 58 57 56 56 56 57 58 59 58 58 58 57 57 58 59 56 54 52 53 58 59 58 56 54 51 49 51 53 54
44 45 46 48 48 49 50 52 51 53 53 55 56 56 56 55 53 52 52 53 54 55 57 59 59 58 58 56 57 59 58 56 52 51 56 57 57 56 53 51 49 50 52
43 44 44 45 45 47 48 49 50 50 50 49 50 50 50 51 50 49 50 51 51 51 52 52 56 58 58 57 57 57 58 58 58 55 52 53 55 55 53 51 51 51 53
42 42 42 41 41 42 44 46 47 46 46 46 45 45 45 46 47 46 47 48 49 49 49 50 51 55 58 58 58 58 57 55 54 56 54 54 53 55 55 53 52 54 56

GFSSE_sfc_30mbdewp_111.txt.gz
Dewpoint
66 68 70 71 72 72 72 72 72 72 72 71 69 70 71 70 67 66 67 67 66 66 67 67 68 67 66 68 68 67 68 68 68 68 68 68 67 67 68 68 68 68 67
66 69 69 71 72 72 72 72 71 72 72 71 69 70 69 70 67 67 66 66 67 66 67 68 69 69 67 67 68 68 68 66 66 66 66 66 66 67 67 67 67 67 65
65 69 69 70 71 72 72 71 71 72 71 71 71 71 70 70 68 66 67 67 67 67 67 68 68 69 67 66 67 67 67 66 64 64 65 64 64 64 65 65 65 66 65
65 68 69 69 70 71 72 70 70 70 71 70 70 70 70 70 69 68 67 66 68 69 68 69 69 69 66 65 65 67 67 65 62 62 63 62 61 62 62 63 63 63 63
65 67 69 69 69 69 70 71 71 70 70 70 70 70 70 70 70 69 68 67 67 69 68 69 69 68 66 65 66 66 66 64 60 60 60 60 62 63 62 61 63 63 62
63 66 69 70 68 68 69 69 70 71 70 70 70 70 70 70 68 69 69 68 68 69 68 68 69 68 66 65 66 66 65 63 60 59 60 63 62 63 64 64 63 62 62
62 64 66 69 69 68 69 69 69 69 69 70 70 69 70 69 69 69 69 69 69 69 68 68 68 68 67 66 65 64 64 62 60 60 58 62 63 63 63 63 62 62 62
49 58 63 66 67 69 68 69 69 68 68 69 69 69 70 69 69 69 69 68 69 69 68 68 67 67 66 65 64 64 64 62 60 59 58 62 64 63 63 63 62 62 62
45 45 44 61 65 67 68 68 68 68 69 69 68 68 69 69 69 69 69 69 69 69 69 69 68 67 65 64 65 66 65 63 60 58 60 63 64 63 63 63 62 62 62
40 43 40 46 60 65 67 67 68 68 68 67 67 68 68 68 68 69 69 69 69 69 69 68 69 68 67 66 67 66 66 64 60 58 59 63 65 63 63 63 62 62 62
37 39 36 41 42 58 65 67 67 67 68 68 68 68 68 67 67 67 68 68 68 68 69 68 68 68 68 67 67 67 66 65 62 60 58 62 64 62 63 63 62 62 62
31 30 35 36 40 43 61 64 66 67 67 67 66 66 65 65 66 66 67 67 67 68 68 69 68 67 67 67 67 66 66 65 63 60 58 63 64 63 63 63 63 62 62
29 32 35 36 37 40 47 61 64 66 66 66 65 64 64 64 64 64 64 66 66 67 67 68 68 67 67 66 65 65 65 65 64 61 59 62 65 63 63 63 63 63 62
31 33 36 38 38 40 42 52 62 64 64 65 63 63 62 64 65 66 65 65 66 66 66 66 67 66 66 66 65 63 64 64 63 61 59 62 65 64 62 62 63 63 63
34 35 36 38 40 40 41 44 58 62 63 64 64 61 61 62 64 65 65 65 65 66 66 65 65 65 65 64 63 62 61 62 61 60 59 61 64 64 64 63 63 64 63
44 45 42 42 39 40 41 41 48 62 63 63 64 62 60 60 62 62 63 63 63 63 65 65 64 64 64 64 63 62 60 59 60 58 57 59 63 64 65 64 64 65 65
49 49 50 50 50 45 41 41 43 55 62 60 63 63 61 60 60 61 61 61 61 60 61 61 63 64 64 64 64 64 64 63 56 57 55 58 61 62 63 64 64 65 66
48 49 49 50 51 52 50 42 41 49 59 59 61 63 63 60 60 60 59 60 60 59 59 59 60 61 62 62 62 62 63 63 63 59 56 54 58 60 61 63 64 64 65
47 48 48 49 51 52 53 48 41 42 54 61 61 63 63 62 61 59 58 58 57 57 58 58 59 60 60 60 61 62 62 62 62 62 59 55 53 58 59 60 62 63 64
46 47 48 48 49 51 53 51 44 42 47 58 62 62 62 62 61 59 58 58 57 56 56 57 58 60 59 59 60 60 62 62 62 62 60 57 54 52 54 56 58 60 62
45 45 46 47 49 49 50 51 51 46 43 51 59 59 60 61 60 59 58 58 58 57 57 57 57 57 58 60 59 59 60 61 62 62 61 60 58 55 51 50 53 55 56
44 45 46 47 48 49 49 50 53 52 52 52 56 58 59 59 58 58 57 57 57 58 58 58 57 57 57 58 57 57 54 53 59 60 61 61 59 57 53 49 49 53 54
43 44 45 47 47 48 49 50 52 53 53 53 54 56 55 54 53 53 53 54 54 54 54 55 57 58 57 57 58 56 52 50 52 58 60 60 60 59 56 54 51 49 50
42 44 44 44 44 44 46 48 50 50 50 51 52 51 52 51 50 50 51 51 52 52 51 52 52 52 54 55 56 57 58 56 52 50 56 58 59 58 57 55 53 50 51
42 42 43 42 41 42 43 44 47 47 48 48 48 48 48 48 47 47 48 48 49 49 49 49 49 49 50 51 55 55 55 56 57 54 52 52 57 58 57 57 55 53 51
42 41 41 39 38 38 39 41 43 43 44 44 44 43 43 44 44 44 45 46 47 47 47 48 48 47 47 47 48 49 54 53 52 54 53 53 53 54 57 57 56 54 53

GFSSE_sfc_30mbdewp_114.txt.gz
Dewpoint
65 69 69 70 71 72 71 72 71 71 71 71 70 70 70 69 67 67 68 67 66 66 67 67 66 65 67 68 67 67 68 68 69 68 68 68 68 68 68 68 68 67 66
66 69 69 69 70 71 71 72 71 72 71 71 69 69 70 69 66 67 66 66 67 67 67 68 68 67 68 68 68 68 66 66 67 67 66 66 67 67 67 68 67 66 65
65 68 69 70 69 70 70 71 71 71 71 71 70 70 69 70 67 67 67 67 67 67 67 68 68 68 67 68 68 67 66 64 65 66 64 64 64 65 66 66 66 66 64
65 67 69 70 69 70 70 70 70 71 71 71 71 70 70 70 68 67 67 67 68 69 68 69 69 68 66 66 65 67 66 64 63 65 63 61 62 62 62 63 63 63 63
64 66 69 69 69 69 70 70 70 70 70 70 70 70 70 70 70 69 68 67 67 69 68 69 69 68 66 65 65 67 66 64 61 60 60 60 62 62 61 62 62 62 63
62 65 68 69 69 68 69 69 70 71 70 70 70 70 70 70 69 69 69 69 67 69 69 69 69 67 67 66 67 67 66 64 60 59 59 62 62 62 63 63 63 62 62
53 60 65 68 69 69 68 68 69 69 69 70 70 70 69 69 69 69 69 68 68 69 69 69 69 68 66 66 66 66 65 62 60 60 61 63 63 64 64 63 62 62 61
46 45 48 65 67 68 68 68 68 68 68 68 68 69 69 69 69 69 69 69 69 69 69 68 69 68 67 67 65 65 64 62 60 59 58 62 64 63 63 63 62 62 62
43 42 40 46 56 65 67 68 68 68 68 67 68 67 68 69 69 69 69 69 69 69 69 69 69 68 67 66 65 65 64 63 60 58 59 62 65 63 63 63 62 62 62
38 38 36 39 41 48 63 66 67 68 68 68 68 67 67 68 68 69 68 69 69 69 69 69 69 68 67 66 65 66 65 64 62 58 58 62 65 64 63 63 62 62 62
33 31 33 35 37 40 50 63 65 68 67 67 67 67 67 68 67 67 68 68 68 69 69 69 69 69 68 67 67 67 66 65 63 61 58 59 64 64 64 63 62 62 62
29 30 35 36 37 37 41 52 61 64 67 67 67 67 67 66 66 67 67 67 67 68 68 69 69 68 68 67 67 67 66 65 64 63 60 59 62 64 64 64 63 62 62
31 34 36 38 39 38 40 45 53 61 64 66 66 65 65 64 64 64 64 64 66 66 67 68 68 68 67 66 66 66 66 65 64 64 62 60 62 64 63 64 63 63 62
40 43 44 44 41 40 41 40 45 52 61 63 64 64 63 63 64 65 65 65 65 66 66 66 67 67 66 66 65 65 65 65 64 64 62 61 61 63 64 64 64 63 63
47 49 50 50 50 47 44 43 43 48 54 61 63 64 63 61 62 64 65 65 66 66 66 66 66 66 65 65 65 65 63 64 64 63 62 60 61 64 65 65 64 64 63
48 49 50 50 51 51 51 48 45 45 51 58 62 63 63 61 61 62 63 63 64 65 66 65 65 65 65 65 64 64 63 61 62 62 61 59 60 62 65 65 65 64 64
47 48 48 48 50 52 52 52 49 46 49 55 58 60 62 62 61 60 61 61 62 62 63 64 64 64 64 64 64 64 63 62 59 61 60 58 58 61 64 64 64 64 65
46 46 47 49 50 51 51 52 51 46 46 51 56 59 60 62 61 60 60 61 61 60 60 60 60 61 62 62 62 63 64 63 64 62 59 59 58 60 62 64 64 64 64
45 46 46 47 48 49 50 52 52 49 47 47 55 58 60 61 62 61 60 60 60 60 59 58 58 59 59 59 60 61 61 61 62 63 62 59 56 57 59 60 62 63 63
45 45 45 46 47 48 49 49 50 52 50 49 52 56 59 60 61 62 60 60 59 58 57 58 57 59 59 59 59 59 59 60 61 62 62 61 60 57 56 58 59 61 63
44 45 45 45 46 47 47 46 48 50 52 51 53 58 58 58 58 60 60 59 59 58 58 58 57 57 57 58 58 57 58 60 60 61 61 61 60 57 55 55 56 57 58
43 44 44 45 45 45 47 48 49 50 53 54 56 54 53 53 54 55 56 56 56 57 56 56 56 56 56 57 56 55 51 52 57 59 61 61 61 60 59 55 52 52 53
42 43 43 43 43 44 45 48 49 50 52 51 51 52 51 51 51 52 52 54 53 53 52 52 52 52 53 53 54 54 50 48 51 54 58 59 60 60 60 59 57 54 52
42 43 43 42 41 41 43 46 46 47 46 48 49 50 49 48 49 49 50 50 50 50 49 50 49 50 50 50 52 54 55 55 51 49 50 54 57 59 60 59 58 55 52
42 42 41 40 38 39 39 42 44 43 45 45 45 45 45 45 45 45 46 46 47 48 48 48 47 47 47 47 47 48 48 50 53 52 50 50 52 55 59 59 58 57 55
41 41 40 37 34 35 36 35 35 37 38 39 40 39 39 38 38 39 42 44 45 44 44 46 47 46 46 45 45 45 46 46 45 46 47 49 51 52 56 58 58 57 56

GFSSE_sfc_30mbdewp_117.txt.gz
Dewpoint
64 69 69 69 69 70 71 71 71 71 71 71 70 70 70 68 67 68 67 66 66 67 67 66 65 65 67 67 67 67 67 68 69 69 69 68 68 68 68 68 67 67 66
65 67 70 69 69 69 70 70 70 70 71 71 70 70 70 67 66 66 67 67 67 68 68 67 67 66 68 68 67 67 67 68 67 67 66 67 68 67 68 67 67 66 65
65 67 69 69 69 69 70 70 70 71 71 70 70 70 69 68 67 67 66 67 67 67 68 68 68 67 68 68 68 66 65 65 66 65 64 64 65 66 66 67 66 65 64
64 66 69 69 69 69 70 70 70 71 71 70 70 70 70 70 68 67 67 67 68 69 69 68 69 68 67 68 68 67 65 64 65 64 62 61 62 63 64 64 65 64 64
62 66 69 68 68 68 69 69 69 69 70 70 70 70 70 70 70 69 68 67 67 69 68 68 69 68 67 66 65 67 66 64 62 61 60 60 62 61 61 61 62 62 63
52 58 66 69 68 68 69 68 69 70 70 70 70 69 70 70 70 69 69 69 68 68 68 69 69 68 67 66 65 67 66 65 60 59 59 60 62 62 62 63 63 62 62
45 44 52 63 67 69 68 67 68 68 69 69 69 69 69 69 69 69 69 69 68 68 69 69 69 68 67 66 66 66 66 64 59 59 60 62 62 64 63 63 62 62 62
43 41 39 46 49 61 67 68 68 67 68 68 69 68 69 69 69 69 69 68 69 69 69 69 69 68 67 66 66 66 66 63 60 59 59 62 62 64 63 63 62 62 62
39 35 34 38 40 46 55 64 68 68 68 68 68 68 68 68 68 68 68 69 68 69 69 69 69 69 68 67 67 66 65 63 60 59 58 61 63 65 64 63 62 62 62
33 32 33 36 37 40 43 55 61 66 68 68 68 68 67 67 68 68 68 69 69 69 69 69 69 69 68 68 67 66 65 64 63 59 58 60 63 65 64 64 63 62 62
32 33 36 37 37 38 39 49 52 60 64 67 67 67 67 67 67 67 67 67 68 68 69 69 69 69 68 67 66 66 65 65 63 61 58 58 63 65 64 64 63 62 62
34 40 43 43 41 40 40 42 47 53 58 64 66 66 66 66 67 67 67 66 67 67 68 69 69 69 68 67 66 66 66 65 64 63 62 61 60 63 65 64 64 63 62
43 47 49 49 48 46 45 44 42 47 52 57 63 64 65 65 64 64 64 64 65 66 66 67 68 69 68 67 66 66 66 65 64 64 63 63 62 61 64 65 65 64 63
48 49 49 50 50 50 48 48 46 45 49 53 57 63 63 64 63 64 64 65 64 65 65 66 67 67 67 67 66 65 65 65 65 64 63 63 63 62 63 64 65 65 64
47 48 48 49 50 51 51 50 49 48 48 48 54 60 63 62 62 63 63 64 65 65 65 65 66 66 66 66 65 65 64 64 64 64 63 63 62 63 62 63 65 65 65
46 46 47 48 50 51 50 51 51 50 48 49 52 56 58 62 61 61 62 62 63 65 65 66 65 65 65 65 65 65 65 64 63 63 63 62 61 62 63 62 64 64 64
45 46 46 48 48 49 49 50 52 52 49 48 49 52 54 59 61 61 61 61 61 63 63 64 64 64 64 64 64 64 64 64 63 63 63 62 61 60 61 62 63 64 65
44 45 46 47 48 48 48 50 51 51 51 49 49 51 53 55 59 61 61 61 61 61 61 61 61 61 62 62 62 63 63 64 64 62 61 61 61 60 60 61 63 63 64
44 45 45 46 46 47 48 48 49 50 52 51 51 53 55 57 59 61 61 61 60 60 60 59 59 59 59 59 60 60 60 61 61 62 62 62 60 59 58 59 61 63 63
44 45 45 45 45 46 47 47 48 49 51 53 54 56 57 56 58 59 60 61 60 59 59 58 58 58 58 58 58 59 59 59 60 60 61 61 62 60 58 57 58 61 62
43 44 44 44 44 45 46 47 48 48 49 53 54 53 53 54 55 55 56 57 58 58 58 58 57 57 57 58 57 56 56 57 58 59 60 60 61 61 60 59 57 58 58
42 43 43 42 43 44 45 47 49 50 52 52 53 51 50 51 52 52 54 54 54 55 54 53 52 55 56 57 55 53 50 50 54 57 59 59 60 60 60 58 57 56 57
41 42 42 41 41 41 43 46 47 48 48 48 49 49 48 47 49 50 50 51 52 52 51 50 51 50 50 52 52 53 49 48 50 51 54 57 58 59 60 60 59 57 54
41 41 40 39 38 38 40 43 44 45 44 44 45 44 44 43 44 45 46 47 48 49 49 49 49 48 49 47 50 49 49 50 47 47 50 51 53 54 56 58 59 59 58
41 40 40 37 35 36 36 38 39 38 41 42 42 40 42 40 37 39 43 44 44 44 46 46 46 46 46 46 45 46 46 47 47 45 44 45 46 48 52 55 56 58 59
41 39 38 34 31 32 34 34 34 34 33 33 33 32 34 34 35 34 35 37 39 42 42 42 40 42 41 43 43 43 43 44 43 43 42 42 43 45 44 47 55 56 57